<?xml version="1.0" encoding="UTF-8" standalone="no" ?>
<gpx xmlns="http://www.topografix.com/GPX/1/1" xmlns:xsi="http://www.w3.org/2001/XMLSchema-instance" xsi:schemaLocation="http://www.topografix.com/GPX/1/1 http://www.topografix.com/GPX/1/1/gpx.xsd" version="1.1" creator="VisuGPX - https://www.visugpx.com">
  <metadata>
    <name>2022-03-26 Gémenos</name>
    <desc><![CDATA[Boucle au départ de Gémenos vie les gorges de la petite Sainte Baume et le vallon du cerisier.]]></desc>
  </metadata>
  <trk>
    <name><![CDATA[2022-03-26 Gémenos]]></name>
    <trkseg>
      <trkpt lat="43.27366" lon="5.63788">
        <ele>125.9140625</ele>
        <time>2022-03-26T08:00:35Z</time>
      </trkpt>
      <trkpt lat="43.27367" lon="5.63783">
        <ele>125.86328125</ele>
        <time>2022-03-26T08:00:45Z</time>
      </trkpt>
      <trkpt lat="43.27367" lon="5.63786">
        <ele>125.88671875</ele>
        <time>2022-03-26T08:01:05Z</time>
      </trkpt>
      <trkpt lat="43.27369" lon="5.63785">
        <ele>125.80859375</ele>
        <time>2022-03-26T08:01:32Z</time>
      </trkpt>
      <trkpt lat="43.27367" lon="5.63786">
        <ele>125.8671875</ele>
        <time>2022-03-26T08:01:51Z</time>
      </trkpt>
      <trkpt lat="43.27369" lon="5.63788">
        <ele>125.8125</ele>
        <time>2022-03-26T08:02:08Z</time>
      </trkpt>
      <trkpt lat="43.27367" lon="5.63789">
        <ele>125.88671875</ele>
        <time>2022-03-26T08:02:41Z</time>
      </trkpt>
      <trkpt lat="43.27368" lon="5.63788">
        <ele>125.84375</ele>
        <time>2022-03-26T08:03:07Z</time>
      </trkpt>
      <trkpt lat="43.27368" lon="5.63788">
        <ele>125.82421875</ele>
        <time>2022-03-26T08:03:08Z</time>
      </trkpt>
      <trkpt lat="43.27365" lon="5.63811">
        <ele>125.44921875</ele>
        <time>2022-03-26T08:03:20Z</time>
      </trkpt>
      <trkpt lat="43.27362" lon="5.6382">
        <ele>125.20703125</ele>
        <time>2022-03-26T08:03:24Z</time>
      </trkpt>
      <trkpt lat="43.27351" lon="5.63835">
        <ele>125.91796875</ele>
        <time>2022-03-26T08:03:35Z</time>
      </trkpt>
      <trkpt lat="43.27349" lon="5.63834">
        <ele>126.03515625</ele>
        <time>2022-03-26T08:03:40Z</time>
      </trkpt>
      <trkpt lat="43.27348" lon="5.63835">
        <ele>126.12109375</ele>
        <time>2022-03-26T08:03:41Z</time>
      </trkpt>
      <trkpt lat="43.27346" lon="5.63838">
        <ele>126.23046875</ele>
        <time>2022-03-26T08:03:53Z</time>
      </trkpt>
      <trkpt lat="43.27345" lon="5.63839">
        <ele>126.3125</ele>
        <time>2022-03-26T08:03:54Z</time>
      </trkpt>
      <trkpt lat="43.27344" lon="5.6384">
        <ele>126.3828125</ele>
        <time>2022-03-26T08:03:55Z</time>
      </trkpt>
      <trkpt lat="43.27343" lon="5.63841">
        <ele>126.49609375</ele>
        <time>2022-03-26T08:03:56Z</time>
      </trkpt>
      <trkpt lat="43.27341" lon="5.63842">
        <ele>126.609375</ele>
        <time>2022-03-26T08:03:57Z</time>
      </trkpt>
      <trkpt lat="43.27324" lon="5.63851">
        <ele>127.81640625</ele>
        <time>2022-03-26T08:04:08Z</time>
      </trkpt>
      <trkpt lat="43.27323" lon="5.63851">
        <ele>127.8828125</ele>
        <time>2022-03-26T08:04:09Z</time>
      </trkpt>
      <trkpt lat="43.27321" lon="5.63852">
        <ele>127.98046875</ele>
        <time>2022-03-26T08:04:10Z</time>
      </trkpt>
      <trkpt lat="43.2732" lon="5.63852">
        <ele>128.0859375</ele>
        <time>2022-03-26T08:04:11Z</time>
      </trkpt>
      <trkpt lat="43.27318" lon="5.63852">
        <ele>128.20703125</ele>
        <time>2022-03-26T08:04:12Z</time>
      </trkpt>
      <trkpt lat="43.27316" lon="5.63853">
        <ele>128.30859375</ele>
        <time>2022-03-26T08:04:13Z</time>
      </trkpt>
      <trkpt lat="43.2729" lon="5.63854">
        <ele>132.9921875</ele>
        <time>2022-03-26T08:04:30Z</time>
      </trkpt>
      <trkpt lat="43.27265" lon="5.63849">
        <ele>137.390625</ele>
        <time>2022-03-26T08:04:44Z</time>
      </trkpt>
      <trkpt lat="43.27257" lon="5.63846">
        <ele>138.53515625</ele>
        <time>2022-03-26T08:04:50Z</time>
      </trkpt>
      <trkpt lat="43.27255" lon="5.63845">
        <ele>138.64453125</ele>
        <time>2022-03-26T08:04:51Z</time>
      </trkpt>
      <trkpt lat="43.27254" lon="5.63844">
        <ele>138.73046875</ele>
        <time>2022-03-26T08:04:52Z</time>
      </trkpt>
      <trkpt lat="43.27253" lon="5.63843">
        <ele>138.84765625</ele>
        <time>2022-03-26T08:04:53Z</time>
      </trkpt>
      <trkpt lat="43.27251" lon="5.63842">
        <ele>138.97265625</ele>
        <time>2022-03-26T08:04:54Z</time>
      </trkpt>
      <trkpt lat="43.2725" lon="5.63841">
        <ele>139.09765625</ele>
        <time>2022-03-26T08:04:55Z</time>
      </trkpt>
      <trkpt lat="43.27248" lon="5.6384">
        <ele>139.2734375</ele>
        <time>2022-03-26T08:04:56Z</time>
      </trkpt>
      <trkpt lat="43.27246" lon="5.63839">
        <ele>139.453125</ele>
        <time>2022-03-26T08:04:57Z</time>
      </trkpt>
      <trkpt lat="43.27219" lon="5.63824">
        <ele>141.0234375</ele>
        <time>2022-03-26T08:05:14Z</time>
      </trkpt>
      <trkpt lat="43.27198" lon="5.63813">
        <ele>144.1640625</ele>
        <time>2022-03-26T08:05:28Z</time>
      </trkpt>
      <trkpt lat="43.27196" lon="5.63813">
        <ele>144.70703125</ele>
        <time>2022-03-26T08:05:29Z</time>
      </trkpt>
      <trkpt lat="43.27194" lon="5.63814">
        <ele>145.71484375</ele>
        <time>2022-03-26T08:05:31Z</time>
      </trkpt>
      <trkpt lat="43.27194" lon="5.63819">
        <ele>146.94921875</ele>
        <time>2022-03-26T08:05:34Z</time>
      </trkpt>
      <trkpt lat="43.27197" lon="5.63829">
        <ele>148.2734375</ele>
        <time>2022-03-26T08:05:40Z</time>
      </trkpt>
      <trkpt lat="43.27198" lon="5.6383">
        <ele>148.16015625</ele>
        <time>2022-03-26T08:05:41Z</time>
      </trkpt>
      <trkpt lat="43.272" lon="5.63831">
        <ele>148.0234375</ele>
        <time>2022-03-26T08:05:42Z</time>
      </trkpt>
      <trkpt lat="43.27201" lon="5.63832">
        <ele>147.8828125</ele>
        <time>2022-03-26T08:05:43Z</time>
      </trkpt>
      <trkpt lat="43.27202" lon="5.63832">
        <ele>147.7109375</ele>
        <time>2022-03-26T08:05:44Z</time>
      </trkpt>
      <trkpt lat="43.27222" lon="5.63849">
        <ele>146.18359375</ele>
        <time>2022-03-26T08:05:57Z</time>
      </trkpt>
      <trkpt lat="43.27239" lon="5.63865">
        <ele>145.88671875</ele>
        <time>2022-03-26T08:06:08Z</time>
      </trkpt>
      <trkpt lat="43.2724" lon="5.63866">
        <ele>145.78125</ele>
        <time>2022-03-26T08:06:09Z</time>
      </trkpt>
      <trkpt lat="43.27266" lon="5.63888">
        <ele>140.65234375</ele>
        <time>2022-03-26T08:06:27Z</time>
      </trkpt>
      <trkpt lat="43.27274" lon="5.63894">
        <ele>138.203125</ele>
        <time>2022-03-26T08:06:33Z</time>
      </trkpt>
      <trkpt lat="43.27275" lon="5.63896">
        <ele>137.7421875</ele>
        <time>2022-03-26T08:06:34Z</time>
      </trkpt>
      <trkpt lat="43.27277" lon="5.63897">
        <ele>137.2421875</ele>
        <time>2022-03-26T08:06:35Z</time>
      </trkpt>
      <trkpt lat="43.27279" lon="5.63901">
        <ele>136.44921875</ele>
        <time>2022-03-26T08:06:37Z</time>
      </trkpt>
      <trkpt lat="43.27279" lon="5.63903">
        <ele>136.28515625</ele>
        <time>2022-03-26T08:06:38Z</time>
      </trkpt>
      <trkpt lat="43.2728" lon="5.63905">
        <ele>136.19140625</ele>
        <time>2022-03-26T08:06:39Z</time>
      </trkpt>
      <trkpt lat="43.27265" lon="5.6391">
        <ele>141.375</ele>
        <time>2022-03-26T08:06:51Z</time>
      </trkpt>
      <trkpt lat="43.27245" lon="5.63895">
        <ele>148</ele>
        <time>2022-03-26T08:07:06Z</time>
      </trkpt>
      <trkpt lat="43.27222" lon="5.63879">
        <ele>153.81640625</ele>
        <time>2022-03-26T08:07:22Z</time>
      </trkpt>
      <trkpt lat="43.272" lon="5.63869">
        <ele>157.6796875</ele>
        <time>2022-03-26T08:07:37Z</time>
      </trkpt>
      <trkpt lat="43.27205" lon="5.63884">
        <ele>159.28515625</ele>
        <time>2022-03-26T08:07:47Z</time>
      </trkpt>
      <trkpt lat="43.27227" lon="5.63904">
        <ele>154.9375</ele>
        <time>2022-03-26T08:08:04Z</time>
      </trkpt>
      <trkpt lat="43.27237" lon="5.63915">
        <ele>151.8515625</ele>
        <time>2022-03-26T08:08:12Z</time>
      </trkpt>
      <trkpt lat="43.27237" lon="5.63925">
        <ele>152.09765625</ele>
        <time>2022-03-26T08:08:17Z</time>
      </trkpt>
      <trkpt lat="43.27216" lon="5.63921">
        <ele>159.88671875</ele>
        <time>2022-03-26T08:08:30Z</time>
      </trkpt>
      <trkpt lat="43.27202" lon="5.63915">
        <ele>164.359375</ele>
        <time>2022-03-26T08:08:40Z</time>
      </trkpt>
      <trkpt lat="43.27198" lon="5.63925">
        <ele>166.53515625</ele>
        <time>2022-03-26T08:08:46Z</time>
      </trkpt>
      <trkpt lat="43.27204" lon="5.63935">
        <ele>165.4609375</ele>
        <time>2022-03-26T08:08:52Z</time>
      </trkpt>
      <trkpt lat="43.27225" lon="5.63962">
        <ele>155.84765625</ele>
        <time>2022-03-26T08:09:12Z</time>
      </trkpt>
      <trkpt lat="43.27225" lon="5.63966">
        <ele>155.2421875</ele>
        <time>2022-03-26T08:09:14Z</time>
      </trkpt>
      <trkpt lat="43.27222" lon="5.63977">
        <ele>155.515625</ele>
        <time>2022-03-26T08:09:21Z</time>
      </trkpt>
      <trkpt lat="43.27217" lon="5.63984">
        <ele>156.58984375</ele>
        <time>2022-03-26T08:09:26Z</time>
      </trkpt>
      <trkpt lat="43.27214" lon="5.63993">
        <ele>156.74609375</ele>
        <time>2022-03-26T08:09:31Z</time>
      </trkpt>
      <trkpt lat="43.27195" lon="5.64017">
        <ele>160.875</ele>
        <time>2022-03-26T08:09:48Z</time>
      </trkpt>
      <trkpt lat="43.27176" lon="5.64042">
        <ele>165.38671875</ele>
        <time>2022-03-26T08:10:06Z</time>
      </trkpt>
      <trkpt lat="43.27155" lon="5.64056">
        <ele>170.73828125</ele>
        <time>2022-03-26T08:10:22Z</time>
      </trkpt>
      <trkpt lat="43.27136" lon="5.64065">
        <ele>175.26953125</ele>
        <time>2022-03-26T08:10:37Z</time>
      </trkpt>
      <trkpt lat="43.27123" lon="5.64071">
        <ele>177.8359375</ele>
        <time>2022-03-26T08:10:48Z</time>
      </trkpt>
      <trkpt lat="43.27118" lon="5.64074">
        <ele>178.734375</ele>
        <time>2022-03-26T08:10:52Z</time>
      </trkpt>
      <trkpt lat="43.271" lon="5.6409">
        <ele>180.29296875</ele>
        <time>2022-03-26T08:11:09Z</time>
      </trkpt>
      <trkpt lat="43.27082" lon="5.64112">
        <ele>180.37109375</ele>
        <time>2022-03-26T08:11:27Z</time>
      </trkpt>
      <trkpt lat="43.27064" lon="5.64135">
        <ele>181.22265625</ele>
        <time>2022-03-26T08:11:44Z</time>
      </trkpt>
      <trkpt lat="43.27046" lon="5.64161">
        <ele>182.0234375</ele>
        <time>2022-03-26T08:12:01Z</time>
      </trkpt>
      <trkpt lat="43.27029" lon="5.64185">
        <ele>184.21875</ele>
        <time>2022-03-26T08:12:18Z</time>
      </trkpt>
      <trkpt lat="43.27013" lon="5.64212">
        <ele>186.34765625</ele>
        <time>2022-03-26T08:12:35Z</time>
      </trkpt>
      <trkpt lat="43.26998" lon="5.64235">
        <ele>188.14453125</ele>
        <time>2022-03-26T08:12:48Z</time>
      </trkpt>
      <trkpt lat="43.26978" lon="5.64271">
        <ele>189.82421875</ele>
        <time>2022-03-26T08:13:07Z</time>
      </trkpt>
      <trkpt lat="43.2696" lon="5.643">
        <ele>192.0625</ele>
        <time>2022-03-26T08:13:24Z</time>
      </trkpt>
      <trkpt lat="43.26944" lon="5.64326">
        <ele>194.4609375</ele>
        <time>2022-03-26T08:13:41Z</time>
      </trkpt>
      <trkpt lat="43.26927" lon="5.64353">
        <ele>197.05078125</ele>
        <time>2022-03-26T08:13:58Z</time>
      </trkpt>
      <trkpt lat="43.26911" lon="5.64374">
        <ele>199.828125</ele>
        <time>2022-03-26T08:14:13Z</time>
      </trkpt>
      <trkpt lat="43.269" lon="5.6439">
        <ele>201.7890625</ele>
        <time>2022-03-26T08:14:25Z</time>
      </trkpt>
      <trkpt lat="43.26887" lon="5.64409">
        <ele>204.0390625</ele>
        <time>2022-03-26T08:14:40Z</time>
      </trkpt>
      <trkpt lat="43.26876" lon="5.64426">
        <ele>205.60546875</ele>
        <time>2022-03-26T08:14:52Z</time>
      </trkpt>
      <trkpt lat="43.26859" lon="5.64454">
        <ele>207.62109375</ele>
        <time>2022-03-26T08:15:11Z</time>
      </trkpt>
      <trkpt lat="43.26842" lon="5.64476">
        <ele>210.4140625</ele>
        <time>2022-03-26T08:15:27Z</time>
      </trkpt>
      <trkpt lat="43.26838" lon="5.6448">
        <ele>211.296875</ele>
        <time>2022-03-26T08:15:30Z</time>
      </trkpt>
      <trkpt lat="43.26824" lon="5.64496">
        <ele>213.640625</ele>
        <time>2022-03-26T08:15:42Z</time>
      </trkpt>
      <trkpt lat="43.26821" lon="5.64501">
        <ele>214.0859375</ele>
        <time>2022-03-26T08:15:45Z</time>
      </trkpt>
      <trkpt lat="43.26802" lon="5.64516">
        <ele>217.703125</ele>
        <time>2022-03-26T08:16:03Z</time>
      </trkpt>
      <trkpt lat="43.26778" lon="5.64538">
        <ele>221.18359375</ele>
        <time>2022-03-26T08:16:24Z</time>
      </trkpt>
      <trkpt lat="43.2676" lon="5.64557">
        <ele>221.4453125</ele>
        <time>2022-03-26T08:16:40Z</time>
      </trkpt>
      <trkpt lat="43.26743" lon="5.6457">
        <ele>222.79296875</ele>
        <time>2022-03-26T08:16:54Z</time>
      </trkpt>
      <trkpt lat="43.26725" lon="5.64582">
        <ele>225.04296875</ele>
        <time>2022-03-26T08:17:08Z</time>
      </trkpt>
      <trkpt lat="43.26711" lon="5.64585">
        <ele>227.62109375</ele>
        <time>2022-03-26T08:17:16Z</time>
      </trkpt>
      <trkpt lat="43.26714" lon="5.64574">
        <ele>229.23046875</ele>
        <time>2022-03-26T08:17:25Z</time>
      </trkpt>
      <trkpt lat="43.26722" lon="5.64557">
        <ele>230</ele>
        <time>2022-03-26T08:17:33Z</time>
      </trkpt>
      <trkpt lat="43.26722" lon="5.64553">
        <ele>230.4453125</ele>
        <time>2022-03-26T08:17:35Z</time>
      </trkpt>
      <trkpt lat="43.26726" lon="5.64537">
        <ele>231.64453125</ele>
        <time>2022-03-26T08:17:52Z</time>
      </trkpt>
      <trkpt lat="43.26732" lon="5.64521">
        <ele>232.1328125</ele>
        <time>2022-03-26T08:18:04Z</time>
      </trkpt>
      <trkpt lat="43.2674" lon="5.64495">
        <ele>234.0859375</ele>
        <time>2022-03-26T08:18:18Z</time>
      </trkpt>
      <trkpt lat="43.26749" lon="5.64461">
        <ele>236.66796875</ele>
        <time>2022-03-26T08:18:35Z</time>
      </trkpt>
      <trkpt lat="43.26759" lon="5.64431">
        <ele>237.875</ele>
        <time>2022-03-26T08:18:52Z</time>
      </trkpt>
      <trkpt lat="43.26763" lon="5.64411">
        <ele>238.8671875</ele>
        <time>2022-03-26T08:19:01Z</time>
      </trkpt>
      <trkpt lat="43.26765" lon="5.644">
        <ele>239.515625</ele>
        <time>2022-03-26T08:19:06Z</time>
      </trkpt>
      <trkpt lat="43.26767" lon="5.64369">
        <ele>241.90234375</ele>
        <time>2022-03-26T08:19:21Z</time>
      </trkpt>
      <trkpt lat="43.2677" lon="5.6434">
        <ele>243.90234375</ele>
        <time>2022-03-26T08:19:37Z</time>
      </trkpt>
      <trkpt lat="43.26773" lon="5.6431">
        <ele>245.47265625</ele>
        <time>2022-03-26T08:19:52Z</time>
      </trkpt>
      <trkpt lat="43.26776" lon="5.64297">
        <ele>245.890625</ele>
        <time>2022-03-26T08:19:58Z</time>
      </trkpt>
      <trkpt lat="43.26779" lon="5.64263">
        <ele>248.62890625</ele>
        <time>2022-03-26T08:20:15Z</time>
      </trkpt>
      <trkpt lat="43.26783" lon="5.6423">
        <ele>250.203125</ele>
        <time>2022-03-26T08:20:33Z</time>
      </trkpt>
      <trkpt lat="43.26787" lon="5.64198">
        <ele>251.73828125</ele>
        <time>2022-03-26T08:20:48Z</time>
      </trkpt>
      <trkpt lat="43.26792" lon="5.64159">
        <ele>253.34765625</ele>
        <time>2022-03-26T08:21:06Z</time>
      </trkpt>
      <trkpt lat="43.26792" lon="5.64125">
        <ele>254.6328125</ele>
        <time>2022-03-26T08:21:21Z</time>
      </trkpt>
      <trkpt lat="43.26793" lon="5.64089">
        <ele>256.83203125</ele>
        <time>2022-03-26T08:21:38Z</time>
      </trkpt>
      <trkpt lat="43.26792" lon="5.64059">
        <ele>258.1875</ele>
        <time>2022-03-26T08:21:54Z</time>
      </trkpt>
      <trkpt lat="43.26793" lon="5.64041">
        <ele>258.359375</ele>
        <time>2022-03-26T08:22:02Z</time>
      </trkpt>
      <trkpt lat="43.26794" lon="5.64009">
        <ele>259.796875</ele>
        <time>2022-03-26T08:22:18Z</time>
      </trkpt>
      <trkpt lat="43.26792" lon="5.63981">
        <ele>261.9453125</ele>
        <time>2022-03-26T08:22:31Z</time>
      </trkpt>
      <trkpt lat="43.2679" lon="5.63952">
        <ele>264.0390625</ele>
        <time>2022-03-26T08:22:48Z</time>
      </trkpt>
      <trkpt lat="43.2679" lon="5.6393">
        <ele>265.26953125</ele>
        <time>2022-03-26T08:23:00Z</time>
      </trkpt>
      <trkpt lat="43.26787" lon="5.63895">
        <ele>267.6171875</ele>
        <time>2022-03-26T08:23:18Z</time>
      </trkpt>
      <trkpt lat="43.26786" lon="5.63883">
        <ele>268.37109375</ele>
        <time>2022-03-26T08:23:24Z</time>
      </trkpt>
      <trkpt lat="43.26783" lon="5.63871">
        <ele>269.34765625</ele>
        <time>2022-03-26T08:23:30Z</time>
      </trkpt>
      <trkpt lat="43.26769" lon="5.63844">
        <ele>272.78125</ele>
        <time>2022-03-26T08:23:46Z</time>
      </trkpt>
      <trkpt lat="43.26767" lon="5.63829">
        <ele>273.69140625</ele>
        <time>2022-03-26T08:23:53Z</time>
      </trkpt>
      <trkpt lat="43.26767" lon="5.63821">
        <ele>273.99609375</ele>
        <time>2022-03-26T08:23:58Z</time>
      </trkpt>
      <trkpt lat="43.26767" lon="5.63786">
        <ele>275.4140625</ele>
        <time>2022-03-26T08:24:15Z</time>
      </trkpt>
      <trkpt lat="43.2676" lon="5.63762">
        <ele>277.8828125</ele>
        <time>2022-03-26T08:24:29Z</time>
      </trkpt>
      <trkpt lat="43.26756" lon="5.6373">
        <ele>280.19921875</ele>
        <time>2022-03-26T08:24:45Z</time>
      </trkpt>
      <trkpt lat="43.26755" lon="5.6371">
        <ele>281.8203125</ele>
        <time>2022-03-26T08:24:56Z</time>
      </trkpt>
      <trkpt lat="43.26755" lon="5.63672">
        <ele>283.6328125</ele>
        <time>2022-03-26T08:25:13Z</time>
      </trkpt>
      <trkpt lat="43.26755" lon="5.63638">
        <ele>286.0703125</ele>
        <time>2022-03-26T08:25:28Z</time>
      </trkpt>
      <trkpt lat="43.26768" lon="5.63618">
        <ele>286.4765625</ele>
        <time>2022-03-26T08:25:42Z</time>
      </trkpt>
      <trkpt lat="43.26769" lon="5.63619">
        <ele>286.3046875</ele>
        <time>2022-03-26T08:25:43Z</time>
      </trkpt>
      <trkpt lat="43.26785" lon="5.63616">
        <ele>284.796875</ele>
        <time>2022-03-26T08:25:53Z</time>
      </trkpt>
      <trkpt lat="43.26785" lon="5.6359">
        <ele>287.03125</ele>
        <time>2022-03-26T08:26:06Z</time>
      </trkpt>
      <trkpt lat="43.26783" lon="5.63562">
        <ele>289.35546875</ele>
        <time>2022-03-26T08:26:20Z</time>
      </trkpt>
      <trkpt lat="43.26781" lon="5.63536">
        <ele>291.203125</ele>
        <time>2022-03-26T08:26:34Z</time>
      </trkpt>
      <trkpt lat="43.26778" lon="5.63509">
        <ele>292.7421875</ele>
        <time>2022-03-26T08:26:50Z</time>
      </trkpt>
      <trkpt lat="43.2677" lon="5.63484">
        <ele>295.2890625</ele>
        <time>2022-03-26T08:27:05Z</time>
      </trkpt>
      <trkpt lat="43.26765" lon="5.63466">
        <ele>297.4609375</ele>
        <time>2022-03-26T08:27:16Z</time>
      </trkpt>
      <trkpt lat="43.26765" lon="5.63462">
        <ele>297.74609375</ele>
        <time>2022-03-26T08:27:18Z</time>
      </trkpt>
      <trkpt lat="43.26765" lon="5.63456">
        <ele>298.1015625</ele>
        <time>2022-03-26T08:27:22Z</time>
      </trkpt>
      <trkpt lat="43.26765" lon="5.63452">
        <ele>298.30859375</ele>
        <time>2022-03-26T08:27:24Z</time>
      </trkpt>
      <trkpt lat="43.26771" lon="5.63415">
        <ele>299.40625</ele>
        <time>2022-03-26T08:27:45Z</time>
      </trkpt>
      <trkpt lat="43.26774" lon="5.63407">
        <ele>299.41796875</ele>
        <time>2022-03-26T08:27:56Z</time>
      </trkpt>
      <trkpt lat="43.26775" lon="5.63406">
        <ele>299.18359375</ele>
        <time>2022-03-26T08:28:22Z</time>
      </trkpt>
      <trkpt lat="43.26772" lon="5.63404">
        <ele>299.98828125</ele>
        <time>2022-03-26T08:28:55Z</time>
      </trkpt>
      <trkpt lat="43.26773" lon="5.63403">
        <ele>299.83203125</ele>
        <time>2022-03-26T08:29:04Z</time>
      </trkpt>
      <trkpt lat="43.26777" lon="5.63357">
        <ele>300.66796875</ele>
        <time>2022-03-26T08:29:16Z</time>
      </trkpt>
      <trkpt lat="43.26777" lon="5.6334">
        <ele>301.67578125</ele>
        <time>2022-03-26T08:29:19Z</time>
      </trkpt>
      <trkpt lat="43.26776" lon="5.63333">
        <ele>302.20703125</ele>
        <time>2022-03-26T08:29:20Z</time>
      </trkpt>
      <trkpt lat="43.26776" lon="5.63327">
        <ele>302.63671875</ele>
        <time>2022-03-26T08:29:21Z</time>
      </trkpt>
      <trkpt lat="43.26777" lon="5.63314">
        <ele>303.484375</ele>
        <time>2022-03-26T08:29:23Z</time>
      </trkpt>
      <trkpt lat="43.26776" lon="5.63308">
        <ele>304.0859375</ele>
        <time>2022-03-26T08:29:24Z</time>
      </trkpt>
      <trkpt lat="43.26774" lon="5.63287">
        <ele>305.9375</ele>
        <time>2022-03-26T08:29:27Z</time>
      </trkpt>
      <trkpt lat="43.26774" lon="5.63281">
        <ele>306.33203125</ele>
        <time>2022-03-26T08:29:28Z</time>
      </trkpt>
      <trkpt lat="43.26775" lon="5.63274">
        <ele>306.61328125</ele>
        <time>2022-03-26T08:29:29Z</time>
      </trkpt>
      <trkpt lat="43.26776" lon="5.63268">
        <ele>306.80859375</ele>
        <time>2022-03-26T08:29:30Z</time>
      </trkpt>
      <trkpt lat="43.26778" lon="5.63262">
        <ele>306.97265625</ele>
        <time>2022-03-26T08:29:31Z</time>
      </trkpt>
      <trkpt lat="43.26793" lon="5.63224">
        <ele>306.43359375</ele>
        <time>2022-03-26T08:29:42Z</time>
      </trkpt>
      <trkpt lat="43.26804" lon="5.632">
        <ele>305.765625</ele>
        <time>2022-03-26T08:29:55Z</time>
      </trkpt>
      <trkpt lat="43.26814" lon="5.63169">
        <ele>306.1640625</ele>
        <time>2022-03-26T08:30:10Z</time>
      </trkpt>
      <trkpt lat="43.26813" lon="5.63167">
        <ele>306.63671875</ele>
        <time>2022-03-26T08:30:11Z</time>
      </trkpt>
      <trkpt lat="43.26811" lon="5.63166">
        <ele>307.22265625</ele>
        <time>2022-03-26T08:30:12Z</time>
      </trkpt>
      <trkpt lat="43.26809" lon="5.63165">
        <ele>307.77734375</ele>
        <time>2022-03-26T08:30:13Z</time>
      </trkpt>
      <trkpt lat="43.26807" lon="5.63166">
        <ele>308.30859375</ele>
        <time>2022-03-26T08:30:14Z</time>
      </trkpt>
      <trkpt lat="43.26805" lon="5.63167">
        <ele>308.69921875</ele>
        <time>2022-03-26T08:30:15Z</time>
      </trkpt>
      <trkpt lat="43.26803" lon="5.63169">
        <ele>308.93359375</ele>
        <time>2022-03-26T08:30:16Z</time>
      </trkpt>
      <trkpt lat="43.26802" lon="5.63171">
        <ele>309.03515625</ele>
        <time>2022-03-26T08:30:17Z</time>
      </trkpt>
      <trkpt lat="43.26801" lon="5.63173">
        <ele>309.01953125</ele>
        <time>2022-03-26T08:30:18Z</time>
      </trkpt>
      <trkpt lat="43.26789" lon="5.632">
        <ele>309.25</ele>
        <time>2022-03-26T08:30:31Z</time>
      </trkpt>
      <trkpt lat="43.26771" lon="5.6322">
        <ele>311.6796875</ele>
        <time>2022-03-26T08:30:45Z</time>
      </trkpt>
      <trkpt lat="43.26753" lon="5.63236">
        <ele>314.42578125</ele>
        <time>2022-03-26T08:30:59Z</time>
      </trkpt>
      <trkpt lat="43.26738" lon="5.63251">
        <ele>315.9453125</ele>
        <time>2022-03-26T08:31:13Z</time>
      </trkpt>
      <trkpt lat="43.26721" lon="5.63269">
        <ele>317.890625</ele>
        <time>2022-03-26T08:31:29Z</time>
      </trkpt>
      <trkpt lat="43.26712" lon="5.63275">
        <ele>319.58984375</ele>
        <time>2022-03-26T08:31:37Z</time>
      </trkpt>
      <trkpt lat="43.26711" lon="5.63276">
        <ele>319.76953125</ele>
        <time>2022-03-26T08:31:38Z</time>
      </trkpt>
      <trkpt lat="43.2671" lon="5.63277">
        <ele>319.93359375</ele>
        <time>2022-03-26T08:31:39Z</time>
      </trkpt>
      <trkpt lat="43.26709" lon="5.63278">
        <ele>320.12890625</ele>
        <time>2022-03-26T08:31:40Z</time>
      </trkpt>
      <trkpt lat="43.26708" lon="5.63278">
        <ele>320.3359375</ele>
        <time>2022-03-26T08:31:41Z</time>
      </trkpt>
      <trkpt lat="43.26705" lon="5.63278">
        <ele>320.984375</ele>
        <time>2022-03-26T08:31:44Z</time>
      </trkpt>
      <trkpt lat="43.26701" lon="5.63278">
        <ele>321.7421875</ele>
        <time>2022-03-26T08:31:47Z</time>
      </trkpt>
      <trkpt lat="43.267" lon="5.63278">
        <ele>322.0546875</ele>
        <time>2022-03-26T08:31:48Z</time>
      </trkpt>
      <trkpt lat="43.26698" lon="5.63278">
        <ele>322.37890625</ele>
        <time>2022-03-26T08:31:49Z</time>
      </trkpt>
      <trkpt lat="43.26697" lon="5.63278">
        <ele>322.67578125</ele>
        <time>2022-03-26T08:31:50Z</time>
      </trkpt>
      <trkpt lat="43.26695" lon="5.63277">
        <ele>322.87109375</ele>
        <time>2022-03-26T08:31:51Z</time>
      </trkpt>
      <trkpt lat="43.26685" lon="5.63263">
        <ele>324.84375</ele>
        <time>2022-03-26T08:32:01Z</time>
      </trkpt>
      <trkpt lat="43.26683" lon="5.63262">
        <ele>325.13671875</ele>
        <time>2022-03-26T08:32:02Z</time>
      </trkpt>
      <trkpt lat="43.26681" lon="5.63261">
        <ele>325.40234375</ele>
        <time>2022-03-26T08:32:03Z</time>
      </trkpt>
      <trkpt lat="43.26679" lon="5.63262">
        <ele>325.56640625</ele>
        <time>2022-03-26T08:32:04Z</time>
      </trkpt>
      <trkpt lat="43.26677" lon="5.63263">
        <ele>325.69921875</ele>
        <time>2022-03-26T08:32:05Z</time>
      </trkpt>
      <trkpt lat="43.26675" lon="5.63265">
        <ele>325.74609375</ele>
        <time>2022-03-26T08:32:06Z</time>
      </trkpt>
      <trkpt lat="43.26673" lon="5.63268">
        <ele>325.6484375</ele>
        <time>2022-03-26T08:32:07Z</time>
      </trkpt>
      <trkpt lat="43.26671" lon="5.63272">
        <ele>325.6953125</ele>
        <time>2022-03-26T08:32:08Z</time>
      </trkpt>
      <trkpt lat="43.26669" lon="5.63277">
        <ele>325.6796875</ele>
        <time>2022-03-26T08:32:09Z</time>
      </trkpt>
      <trkpt lat="43.26668" lon="5.63282">
        <ele>325.59375</ele>
        <time>2022-03-26T08:32:10Z</time>
      </trkpt>
      <trkpt lat="43.26665" lon="5.63287">
        <ele>325.5546875</ele>
        <time>2022-03-26T08:32:11Z</time>
      </trkpt>
      <trkpt lat="43.26661" lon="5.6329">
        <ele>325.5546875</ele>
        <time>2022-03-26T08:32:12Z</time>
      </trkpt>
      <trkpt lat="43.26657" lon="5.63293">
        <ele>325.6171875</ele>
        <time>2022-03-26T08:32:13Z</time>
      </trkpt>
      <trkpt lat="43.26652" lon="5.63293">
        <ele>325.7578125</ele>
        <time>2022-03-26T08:32:14Z</time>
      </trkpt>
      <trkpt lat="43.26649" lon="5.63292">
        <ele>325.9453125</ele>
        <time>2022-03-26T08:32:15Z</time>
      </trkpt>
      <trkpt lat="43.26646" lon="5.63291">
        <ele>326.16796875</ele>
        <time>2022-03-26T08:32:16Z</time>
      </trkpt>
      <trkpt lat="43.26645" lon="5.63286">
        <ele>326.515625</ele>
        <time>2022-03-26T08:32:17Z</time>
      </trkpt>
      <trkpt lat="43.26645" lon="5.6328">
        <ele>326.93359375</ele>
        <time>2022-03-26T08:32:18Z</time>
      </trkpt>
      <trkpt lat="43.26645" lon="5.63274">
        <ele>327.34375</ele>
        <time>2022-03-26T08:32:19Z</time>
      </trkpt>
      <trkpt lat="43.26645" lon="5.63268">
        <ele>327.71875</ele>
        <time>2022-03-26T08:32:20Z</time>
      </trkpt>
      <trkpt lat="43.26646" lon="5.63262">
        <ele>328.30859375</ele>
        <time>2022-03-26T08:32:21Z</time>
      </trkpt>
      <trkpt lat="43.26647" lon="5.63256">
        <ele>328.875</ele>
        <time>2022-03-26T08:32:22Z</time>
      </trkpt>
      <trkpt lat="43.26651" lon="5.6324">
        <ele>330.328125</ele>
        <time>2022-03-26T08:32:26Z</time>
      </trkpt>
      <trkpt lat="43.26653" lon="5.6324">
        <ele>330.234375</ele>
        <time>2022-03-26T08:32:27Z</time>
      </trkpt>
      <trkpt lat="43.26654" lon="5.63241">
        <ele>330.015625</ele>
        <time>2022-03-26T08:32:28Z</time>
      </trkpt>
      <trkpt lat="43.26655" lon="5.63243">
        <ele>329.765625</ele>
        <time>2022-03-26T08:32:29Z</time>
      </trkpt>
      <trkpt lat="43.26656" lon="5.63251">
        <ele>328.82421875</ele>
        <time>2022-03-26T08:32:31Z</time>
      </trkpt>
      <trkpt lat="43.26672" lon="5.63264">
        <ele>326.20703125</ele>
        <time>2022-03-26T08:32:37Z</time>
      </trkpt>
      <trkpt lat="43.26673" lon="5.63268">
        <ele>325.55859375</ele>
        <time>2022-03-26T08:32:39Z</time>
      </trkpt>
      <trkpt lat="43.26673" lon="5.63271">
        <ele>325.484375</ele>
        <time>2022-03-26T08:32:40Z</time>
      </trkpt>
      <trkpt lat="43.26672" lon="5.63274">
        <ele>325.5390625</ele>
        <time>2022-03-26T08:32:41Z</time>
      </trkpt>
      <trkpt lat="43.2667" lon="5.63277">
        <ele>325.62890625</ele>
        <time>2022-03-26T08:32:42Z</time>
      </trkpt>
      <trkpt lat="43.26653" lon="5.63294">
        <ele>325.6953125</ele>
        <time>2022-03-26T08:32:48Z</time>
      </trkpt>
      <trkpt lat="43.2665" lon="5.63292">
        <ele>325.8984375</ele>
        <time>2022-03-26T08:32:49Z</time>
      </trkpt>
      <trkpt lat="43.26647" lon="5.6329">
        <ele>326.1953125</ele>
        <time>2022-03-26T08:32:50Z</time>
      </trkpt>
      <trkpt lat="43.26645" lon="5.63286">
        <ele>326.55078125</ele>
        <time>2022-03-26T08:32:51Z</time>
      </trkpt>
      <trkpt lat="43.26645" lon="5.6328">
        <ele>326.9375</ele>
        <time>2022-03-26T08:32:52Z</time>
      </trkpt>
      <trkpt lat="43.26644" lon="5.63275">
        <ele>327.3046875</ele>
        <time>2022-03-26T08:32:53Z</time>
      </trkpt>
      <trkpt lat="43.26645" lon="5.6327">
        <ele>327.640625</ele>
        <time>2022-03-26T08:32:54Z</time>
      </trkpt>
      <trkpt lat="43.26645" lon="5.63265">
        <ele>328.0625</ele>
        <time>2022-03-26T08:32:55Z</time>
      </trkpt>
      <trkpt lat="43.26646" lon="5.63261">
        <ele>328.4765625</ele>
        <time>2022-03-26T08:32:56Z</time>
      </trkpt>
      <trkpt lat="43.26647" lon="5.63257">
        <ele>328.76953125</ele>
        <time>2022-03-26T08:32:57Z</time>
      </trkpt>
      <trkpt lat="43.26648" lon="5.63254">
        <ele>329.01171875</ele>
        <time>2022-03-26T08:32:58Z</time>
      </trkpt>
      <trkpt lat="43.26649" lon="5.63251">
        <ele>329.25</ele>
        <time>2022-03-26T08:32:59Z</time>
      </trkpt>
      <trkpt lat="43.26658" lon="5.63229">
        <ele>331.2421875</ele>
        <time>2022-03-26T08:33:13Z</time>
      </trkpt>
      <trkpt lat="43.26671" lon="5.63207">
        <ele>333.55078125</ele>
        <time>2022-03-26T08:33:27Z</time>
      </trkpt>
      <trkpt lat="43.26675" lon="5.63205">
        <ele>333.28125</ele>
        <time>2022-03-26T08:33:30Z</time>
      </trkpt>
      <trkpt lat="43.26677" lon="5.63206">
        <ele>333.00390625</ele>
        <time>2022-03-26T08:33:31Z</time>
      </trkpt>
      <trkpt lat="43.26678" lon="5.63206">
        <ele>332.7109375</ele>
        <time>2022-03-26T08:33:32Z</time>
      </trkpt>
      <trkpt lat="43.2668" lon="5.63207">
        <ele>332.390625</ele>
        <time>2022-03-26T08:33:33Z</time>
      </trkpt>
      <trkpt lat="43.26681" lon="5.63208">
        <ele>331.98828125</ele>
        <time>2022-03-26T08:33:34Z</time>
      </trkpt>
      <trkpt lat="43.26682" lon="5.6321">
        <ele>331.52734375</ele>
        <time>2022-03-26T08:33:35Z</time>
      </trkpt>
      <trkpt lat="43.26691" lon="5.63222">
        <ele>328.81640625</ele>
        <time>2022-03-26T08:33:41Z</time>
      </trkpt>
      <trkpt lat="43.26693" lon="5.63222">
        <ele>328.453125</ele>
        <time>2022-03-26T08:33:42Z</time>
      </trkpt>
      <trkpt lat="43.26695" lon="5.63222">
        <ele>328.203125</ele>
        <time>2022-03-26T08:33:43Z</time>
      </trkpt>
      <trkpt lat="43.26698" lon="5.6322">
        <ele>328.05078125</ele>
        <time>2022-03-26T08:33:44Z</time>
      </trkpt>
      <trkpt lat="43.26699" lon="5.63218">
        <ele>327.875</ele>
        <time>2022-03-26T08:33:45Z</time>
      </trkpt>
      <trkpt lat="43.26701" lon="5.63216">
        <ele>327.74609375</ele>
        <time>2022-03-26T08:33:46Z</time>
      </trkpt>
      <trkpt lat="43.26711" lon="5.63186">
        <ele>330.33203125</ele>
        <time>2022-03-26T08:33:59Z</time>
      </trkpt>
      <trkpt lat="43.26715" lon="5.63158">
        <ele>334.14453125</ele>
        <time>2022-03-26T08:34:15Z</time>
      </trkpt>
      <trkpt lat="43.2672" lon="5.63142">
        <ele>336.03515625</ele>
        <time>2022-03-26T08:34:24Z</time>
      </trkpt>
      <trkpt lat="43.26721" lon="5.6314">
        <ele>336.11328125</ele>
        <time>2022-03-26T08:34:25Z</time>
      </trkpt>
      <trkpt lat="43.26721" lon="5.63138">
        <ele>336.3046875</ele>
        <time>2022-03-26T08:34:26Z</time>
      </trkpt>
      <trkpt lat="43.26721" lon="5.63137">
        <ele>336.5234375</ele>
        <time>2022-03-26T08:34:27Z</time>
      </trkpt>
      <trkpt lat="43.26722" lon="5.63135">
        <ele>336.71484375</ele>
        <time>2022-03-26T08:34:28Z</time>
      </trkpt>
      <trkpt lat="43.26723" lon="5.63133">
        <ele>336.90625</ele>
        <time>2022-03-26T08:34:29Z</time>
      </trkpt>
      <trkpt lat="43.26723" lon="5.63131">
        <ele>337.0859375</ele>
        <time>2022-03-26T08:34:30Z</time>
      </trkpt>
      <trkpt lat="43.26724" lon="5.63127">
        <ele>337.4296875</ele>
        <time>2022-03-26T08:34:32Z</time>
      </trkpt>
      <trkpt lat="43.26733" lon="5.63104">
        <ele>338.34765625</ele>
        <time>2022-03-26T08:34:47Z</time>
      </trkpt>
      <trkpt lat="43.26739" lon="5.63085">
        <ele>339.546875</ele>
        <time>2022-03-26T08:34:59Z</time>
      </trkpt>
      <trkpt lat="43.26744" lon="5.63079">
        <ele>339.234375</ele>
        <time>2022-03-26T08:35:03Z</time>
      </trkpt>
      <trkpt lat="43.26745" lon="5.63078">
        <ele>339.1796875</ele>
        <time>2022-03-26T08:35:04Z</time>
      </trkpt>
      <trkpt lat="43.26746" lon="5.63077">
        <ele>339.08984375</ele>
        <time>2022-03-26T08:35:05Z</time>
      </trkpt>
      <trkpt lat="43.26747" lon="5.63076">
        <ele>339.13671875</ele>
        <time>2022-03-26T08:35:06Z</time>
      </trkpt>
      <trkpt lat="43.26747" lon="5.63074">
        <ele>339.234375</ele>
        <time>2022-03-26T08:35:07Z</time>
      </trkpt>
      <trkpt lat="43.26748" lon="5.63072">
        <ele>339.25390625</ele>
        <time>2022-03-26T08:35:08Z</time>
      </trkpt>
      <trkpt lat="43.26751" lon="5.63062">
        <ele>339.15625</ele>
        <time>2022-03-26T08:35:14Z</time>
      </trkpt>
      <trkpt lat="43.26751" lon="5.63061">
        <ele>339.28515625</ele>
        <time>2022-03-26T08:35:15Z</time>
      </trkpt>
      <trkpt lat="43.26751" lon="5.63059">
        <ele>339.41796875</ele>
        <time>2022-03-26T08:35:16Z</time>
      </trkpt>
      <trkpt lat="43.26751" lon="5.63057">
        <ele>339.5546875</ele>
        <time>2022-03-26T08:35:17Z</time>
      </trkpt>
      <trkpt lat="43.26751" lon="5.63055">
        <ele>339.65234375</ele>
        <time>2022-03-26T08:35:18Z</time>
      </trkpt>
      <trkpt lat="43.26752" lon="5.63053">
        <ele>339.73828125</ele>
        <time>2022-03-26T08:35:19Z</time>
      </trkpt>
      <trkpt lat="43.26752" lon="5.63052">
        <ele>339.8828125</ele>
        <time>2022-03-26T08:35:20Z</time>
      </trkpt>
      <trkpt lat="43.26751" lon="5.6305">
        <ele>340.06640625</ele>
        <time>2022-03-26T08:35:21Z</time>
      </trkpt>
      <trkpt lat="43.26751" lon="5.63035">
        <ele>341.36328125</ele>
        <time>2022-03-26T08:35:29Z</time>
      </trkpt>
      <trkpt lat="43.2675" lon="5.63033">
        <ele>341.546875</ele>
        <time>2022-03-26T08:35:30Z</time>
      </trkpt>
      <trkpt lat="43.2675" lon="5.63031">
        <ele>341.734375</ele>
        <time>2022-03-26T08:35:31Z</time>
      </trkpt>
      <trkpt lat="43.2675" lon="5.63029">
        <ele>341.9765625</ele>
        <time>2022-03-26T08:35:32Z</time>
      </trkpt>
      <trkpt lat="43.2675" lon="5.63028">
        <ele>342.13671875</ele>
        <time>2022-03-26T08:35:33Z</time>
      </trkpt>
      <trkpt lat="43.2675" lon="5.63026">
        <ele>342.28125</ele>
        <time>2022-03-26T08:35:34Z</time>
      </trkpt>
      <trkpt lat="43.2675" lon="5.63024">
        <ele>342.46484375</ele>
        <time>2022-03-26T08:35:35Z</time>
      </trkpt>
      <trkpt lat="43.26749" lon="5.63022">
        <ele>342.6171875</ele>
        <time>2022-03-26T08:35:36Z</time>
      </trkpt>
      <trkpt lat="43.26749" lon="5.6302">
        <ele>342.78125</ele>
        <time>2022-03-26T08:35:37Z</time>
      </trkpt>
      <trkpt lat="43.26749" lon="5.63018">
        <ele>342.99609375</ele>
        <time>2022-03-26T08:35:38Z</time>
      </trkpt>
      <trkpt lat="43.26747" lon="5.63011">
        <ele>343.75</ele>
        <time>2022-03-26T08:35:43Z</time>
      </trkpt>
      <trkpt lat="43.26747" lon="5.63009">
        <ele>343.94140625</ele>
        <time>2022-03-26T08:35:44Z</time>
      </trkpt>
      <trkpt lat="43.26742" lon="5.63">
        <ele>345.69921875</ele>
        <time>2022-03-26T08:35:51Z</time>
      </trkpt>
      <trkpt lat="43.26741" lon="5.62999">
        <ele>345.984375</ele>
        <time>2022-03-26T08:35:52Z</time>
      </trkpt>
      <trkpt lat="43.2674" lon="5.62999">
        <ele>346.296875</ele>
        <time>2022-03-26T08:35:53Z</time>
      </trkpt>
      <trkpt lat="43.26726" lon="5.62998">
        <ele>350.43359375</ele>
        <time>2022-03-26T08:36:05Z</time>
      </trkpt>
      <trkpt lat="43.2672" lon="5.62993">
        <ele>352.140625</ele>
        <time>2022-03-26T08:36:11Z</time>
      </trkpt>
      <trkpt lat="43.26715" lon="5.62978">
        <ele>353.7421875</ele>
        <time>2022-03-26T08:36:22Z</time>
      </trkpt>
      <trkpt lat="43.26714" lon="5.62976">
        <ele>354.01953125</ele>
        <time>2022-03-26T08:36:23Z</time>
      </trkpt>
      <trkpt lat="43.26713" lon="5.62976">
        <ele>354.33984375</ele>
        <time>2022-03-26T08:36:24Z</time>
      </trkpt>
      <trkpt lat="43.26701" lon="5.62975">
        <ele>357.4453125</ele>
        <time>2022-03-26T08:36:33Z</time>
      </trkpt>
      <trkpt lat="43.26693" lon="5.62975">
        <ele>359.32421875</ele>
        <time>2022-03-26T08:36:46Z</time>
      </trkpt>
      <trkpt lat="43.26689" lon="5.62972">
        <ele>360.17578125</ele>
        <time>2022-03-26T08:37:17Z</time>
      </trkpt>
      <trkpt lat="43.26672" lon="5.62976">
        <ele>363.01171875</ele>
        <time>2022-03-26T08:37:30Z</time>
      </trkpt>
      <trkpt lat="43.26671" lon="5.62976">
        <ele>363.265625</ele>
        <time>2022-03-26T08:37:31Z</time>
      </trkpt>
      <trkpt lat="43.26667" lon="5.62977">
        <ele>363.53125</ele>
        <time>2022-03-26T08:37:47Z</time>
      </trkpt>
      <trkpt lat="43.26665" lon="5.62974">
        <ele>363.6953125</ele>
        <time>2022-03-26T08:37:51Z</time>
      </trkpt>
      <trkpt lat="43.26659" lon="5.62946">
        <ele>364.7421875</ele>
        <time>2022-03-26T08:38:03Z</time>
      </trkpt>
      <trkpt lat="43.26665" lon="5.62908">
        <ele>366.13671875</ele>
        <time>2022-03-26T08:38:15Z</time>
      </trkpt>
      <trkpt lat="43.26667" lon="5.62902">
        <ele>366.265625</ele>
        <time>2022-03-26T08:38:16Z</time>
      </trkpt>
      <trkpt lat="43.26669" lon="5.62895">
        <ele>366.43359375</ele>
        <time>2022-03-26T08:38:17Z</time>
      </trkpt>
      <trkpt lat="43.26671" lon="5.62889">
        <ele>366.5</ele>
        <time>2022-03-26T08:38:18Z</time>
      </trkpt>
      <trkpt lat="43.26672" lon="5.62884">
        <ele>366.546875</ele>
        <time>2022-03-26T08:38:19Z</time>
      </trkpt>
      <trkpt lat="43.26674" lon="5.62869">
        <ele>365.7421875</ele>
        <time>2022-03-26T08:38:22Z</time>
      </trkpt>
      <trkpt lat="43.26674" lon="5.62864">
        <ele>365.3828125</ele>
        <time>2022-03-26T08:38:23Z</time>
      </trkpt>
      <trkpt lat="43.26674" lon="5.62849">
        <ele>364.41015625</ele>
        <time>2022-03-26T08:38:26Z</time>
      </trkpt>
      <trkpt lat="43.26668" lon="5.62827">
        <ele>364.15625</ele>
        <time>2022-03-26T08:38:31Z</time>
      </trkpt>
      <trkpt lat="43.26667" lon="5.62823">
        <ele>364.07421875</ele>
        <time>2022-03-26T08:38:32Z</time>
      </trkpt>
      <trkpt lat="43.26667" lon="5.6282">
        <ele>364.09375</ele>
        <time>2022-03-26T08:38:33Z</time>
      </trkpt>
      <trkpt lat="43.26666" lon="5.62816">
        <ele>364.1015625</ele>
        <time>2022-03-26T08:38:34Z</time>
      </trkpt>
      <trkpt lat="43.26666" lon="5.62812">
        <ele>364.10546875</ele>
        <time>2022-03-26T08:38:35Z</time>
      </trkpt>
      <trkpt lat="43.26666" lon="5.62808">
        <ele>364.1171875</ele>
        <time>2022-03-26T08:38:36Z</time>
      </trkpt>
      <trkpt lat="43.26666" lon="5.62806">
        <ele>364.12890625</ele>
        <time>2022-03-26T08:38:37Z</time>
      </trkpt>
      <trkpt lat="43.26665" lon="5.62802">
        <ele>364.1484375</ele>
        <time>2022-03-26T08:38:39Z</time>
      </trkpt>
      <trkpt lat="43.26663" lon="5.62796">
        <ele>364.22265625</ele>
        <time>2022-03-26T08:38:42Z</time>
      </trkpt>
      <trkpt lat="43.26663" lon="5.62792">
        <ele>364.16796875</ele>
        <time>2022-03-26T08:38:43Z</time>
      </trkpt>
      <trkpt lat="43.26663" lon="5.62788">
        <ele>364.06640625</ele>
        <time>2022-03-26T08:38:44Z</time>
      </trkpt>
      <trkpt lat="43.26663" lon="5.62784">
        <ele>363.9921875</ele>
        <time>2022-03-26T08:38:45Z</time>
      </trkpt>
      <trkpt lat="43.26662" lon="5.62781">
        <ele>364.01953125</ele>
        <time>2022-03-26T08:38:46Z</time>
      </trkpt>
      <trkpt lat="43.2666" lon="5.62779">
        <ele>364.10546875</ele>
        <time>2022-03-26T08:38:47Z</time>
      </trkpt>
      <trkpt lat="43.26659" lon="5.62779">
        <ele>364.25</ele>
        <time>2022-03-26T08:38:48Z</time>
      </trkpt>
      <trkpt lat="43.26653" lon="5.6278">
        <ele>364.671875</ele>
        <time>2022-03-26T08:38:58Z</time>
      </trkpt>
      <trkpt lat="43.26652" lon="5.62784">
        <ele>364.75390625</ele>
        <time>2022-03-26T08:39:16Z</time>
      </trkpt>
      <trkpt lat="43.2665" lon="5.62791">
        <ele>364.77734375</ele>
        <time>2022-03-26T08:39:19Z</time>
      </trkpt>
      <trkpt lat="43.2665" lon="5.62794">
        <ele>364.73828125</ele>
        <time>2022-03-26T08:39:20Z</time>
      </trkpt>
      <trkpt lat="43.26649" lon="5.62798">
        <ele>364.73046875</ele>
        <time>2022-03-26T08:39:21Z</time>
      </trkpt>
      <trkpt lat="43.26648" lon="5.62802">
        <ele>364.76171875</ele>
        <time>2022-03-26T08:39:22Z</time>
      </trkpt>
      <trkpt lat="43.26647" lon="5.62806">
        <ele>364.8203125</ele>
        <time>2022-03-26T08:39:23Z</time>
      </trkpt>
      <trkpt lat="43.26645" lon="5.62809">
        <ele>364.89453125</ele>
        <time>2022-03-26T08:39:24Z</time>
      </trkpt>
      <trkpt lat="43.26643" lon="5.62811">
        <ele>364.96484375</ele>
        <time>2022-03-26T08:39:25Z</time>
      </trkpt>
      <trkpt lat="43.26638" lon="5.62814">
        <ele>364.48828125</ele>
        <time>2022-03-26T08:39:27Z</time>
      </trkpt>
      <trkpt lat="43.26635" lon="5.62815">
        <ele>364.06640625</ele>
        <time>2022-03-26T08:39:28Z</time>
      </trkpt>
      <trkpt lat="43.26632" lon="5.62816">
        <ele>363.55078125</ele>
        <time>2022-03-26T08:39:29Z</time>
      </trkpt>
      <trkpt lat="43.26628" lon="5.62818">
        <ele>362.90234375</ele>
        <time>2022-03-26T08:39:30Z</time>
      </trkpt>
      <trkpt lat="43.26624" lon="5.62822">
        <ele>362.015625</ele>
        <time>2022-03-26T08:39:31Z</time>
      </trkpt>
      <trkpt lat="43.26614" lon="5.6283">
        <ele>359.99609375</ele>
        <time>2022-03-26T08:39:34Z</time>
      </trkpt>
      <trkpt lat="43.26603" lon="5.62832">
        <ele>358.69921875</ele>
        <time>2022-03-26T08:39:37Z</time>
      </trkpt>
      <trkpt lat="43.266" lon="5.62835">
        <ele>358.3046875</ele>
        <time>2022-03-26T08:39:38Z</time>
      </trkpt>
      <trkpt lat="43.26598" lon="5.62838">
        <ele>358.0234375</ele>
        <time>2022-03-26T08:39:39Z</time>
      </trkpt>
      <trkpt lat="43.26597" lon="5.62842">
        <ele>357.79296875</ele>
        <time>2022-03-26T08:39:40Z</time>
      </trkpt>
      <trkpt lat="43.26597" lon="5.62846">
        <ele>357.65234375</ele>
        <time>2022-03-26T08:39:41Z</time>
      </trkpt>
      <trkpt lat="43.26597" lon="5.62851">
        <ele>357.62109375</ele>
        <time>2022-03-26T08:39:42Z</time>
      </trkpt>
      <trkpt lat="43.26598" lon="5.62857">
        <ele>358.09765625</ele>
        <time>2022-03-26T08:39:43Z</time>
      </trkpt>
      <trkpt lat="43.26599" lon="5.62867">
        <ele>358.765625</ele>
        <time>2022-03-26T08:39:45Z</time>
      </trkpt>
      <trkpt lat="43.26596" lon="5.6288">
        <ele>358.93359375</ele>
        <time>2022-03-26T08:39:49Z</time>
      </trkpt>
      <trkpt lat="43.26593" lon="5.62889">
        <ele>357.6796875</ele>
        <time>2022-03-26T08:39:51Z</time>
      </trkpt>
      <trkpt lat="43.26591" lon="5.62905">
        <ele>355.375</ele>
        <time>2022-03-26T08:39:55Z</time>
      </trkpt>
      <trkpt lat="43.26591" lon="5.6291">
        <ele>354.578125</ele>
        <time>2022-03-26T08:39:56Z</time>
      </trkpt>
      <trkpt lat="43.2659" lon="5.62931">
        <ele>349.16796875</ele>
        <time>2022-03-26T08:40:00Z</time>
      </trkpt>
      <trkpt lat="43.26588" lon="5.62937">
        <ele>347.25390625</ele>
        <time>2022-03-26T08:40:01Z</time>
      </trkpt>
      <trkpt lat="43.26586" lon="5.62944">
        <ele>345.94140625</ele>
        <time>2022-03-26T08:40:02Z</time>
      </trkpt>
      <trkpt lat="43.26585" lon="5.62951">
        <ele>344.60546875</ele>
        <time>2022-03-26T08:40:03Z</time>
      </trkpt>
      <trkpt lat="43.26583" lon="5.62958">
        <ele>343.05859375</ele>
        <time>2022-03-26T08:40:04Z</time>
      </trkpt>
      <trkpt lat="43.26581" lon="5.62965">
        <ele>341.44921875</ele>
        <time>2022-03-26T08:40:05Z</time>
      </trkpt>
      <trkpt lat="43.26579" lon="5.62971">
        <ele>339.828125</ele>
        <time>2022-03-26T08:40:06Z</time>
      </trkpt>
      <trkpt lat="43.26577" lon="5.62977">
        <ele>338.2109375</ele>
        <time>2022-03-26T08:40:07Z</time>
      </trkpt>
      <trkpt lat="43.26568" lon="5.62996">
        <ele>331.4140625</ele>
        <time>2022-03-26T08:40:11Z</time>
      </trkpt>
      <trkpt lat="43.26568" lon="5.63017">
        <ele>329.7109375</ele>
        <time>2022-03-26T08:40:14Z</time>
      </trkpt>
      <trkpt lat="43.26568" lon="5.63025">
        <ele>329.7421875</ele>
        <time>2022-03-26T08:40:15Z</time>
      </trkpt>
      <trkpt lat="43.26569" lon="5.63032">
        <ele>329.53125</ele>
        <time>2022-03-26T08:40:16Z</time>
      </trkpt>
      <trkpt lat="43.26561" lon="5.63052">
        <ele>325.0390625</ele>
        <time>2022-03-26T08:40:19Z</time>
      </trkpt>
      <trkpt lat="43.26559" lon="5.63057">
        <ele>323.61328125</ele>
        <time>2022-03-26T08:40:20Z</time>
      </trkpt>
      <trkpt lat="43.26553" lon="5.63076">
        <ele>319.70703125</ele>
        <time>2022-03-26T08:40:24Z</time>
      </trkpt>
      <trkpt lat="43.2655" lon="5.63079">
        <ele>318.25390625</ele>
        <time>2022-03-26T08:40:25Z</time>
      </trkpt>
      <trkpt lat="43.26546" lon="5.63079">
        <ele>316.484375</ele>
        <time>2022-03-26T08:40:26Z</time>
      </trkpt>
      <trkpt lat="43.26534" lon="5.63082">
        <ele>311.4453125</ele>
        <time>2022-03-26T08:40:29Z</time>
      </trkpt>
      <trkpt lat="43.26531" lon="5.63084">
        <ele>309.80859375</ele>
        <time>2022-03-26T08:40:31Z</time>
      </trkpt>
      <trkpt lat="43.26532" lon="5.63082">
        <ele>310.66015625</ele>
        <time>2022-03-26T08:40:45Z</time>
      </trkpt>
      <trkpt lat="43.26531" lon="5.63084">
        <ele>309.80078125</ele>
        <time>2022-03-26T08:40:51Z</time>
      </trkpt>
      <trkpt lat="43.2653" lon="5.63086">
        <ele>308.96875</ele>
        <time>2022-03-26T08:40:52Z</time>
      </trkpt>
      <trkpt lat="43.26529" lon="5.63088">
        <ele>308.22265625</ele>
        <time>2022-03-26T08:40:53Z</time>
      </trkpt>
      <trkpt lat="43.26528" lon="5.63092">
        <ele>307.4375</ele>
        <time>2022-03-26T08:40:55Z</time>
      </trkpt>
      <trkpt lat="43.2653" lon="5.63094">
        <ele>307.73046875</ele>
        <time>2022-03-26T08:40:58Z</time>
      </trkpt>
      <trkpt lat="43.26531" lon="5.63097">
        <ele>307.8359375</ele>
        <time>2022-03-26T08:41:08Z</time>
      </trkpt>
      <trkpt lat="43.26529" lon="5.63111">
        <ele>305.12890625</ele>
        <time>2022-03-26T08:41:21Z</time>
      </trkpt>
      <trkpt lat="43.2653" lon="5.63121">
        <ele>303.91796875</ele>
        <time>2022-03-26T08:41:24Z</time>
      </trkpt>
      <trkpt lat="43.26528" lon="5.63136">
        <ele>301.19921875</ele>
        <time>2022-03-26T08:41:29Z</time>
      </trkpt>
      <trkpt lat="43.26526" lon="5.6314">
        <ele>299.65234375</ele>
        <time>2022-03-26T08:41:30Z</time>
      </trkpt>
      <trkpt lat="43.26522" lon="5.63143">
        <ele>297.8828125</ele>
        <time>2022-03-26T08:41:31Z</time>
      </trkpt>
      <trkpt lat="43.26513" lon="5.6315">
        <ele>293.12890625</ele>
        <time>2022-03-26T08:41:34Z</time>
      </trkpt>
      <trkpt lat="43.26512" lon="5.63154">
        <ele>292.19140625</ele>
        <time>2022-03-26T08:41:35Z</time>
      </trkpt>
      <trkpt lat="43.26511" lon="5.63157">
        <ele>291.3515625</ele>
        <time>2022-03-26T08:41:36Z</time>
      </trkpt>
      <trkpt lat="43.2651" lon="5.63161">
        <ele>290.51953125</ele>
        <time>2022-03-26T08:41:37Z</time>
      </trkpt>
      <trkpt lat="43.26509" lon="5.63165">
        <ele>289.95703125</ele>
        <time>2022-03-26T08:41:38Z</time>
      </trkpt>
      <trkpt lat="43.2651" lon="5.63168">
        <ele>289.81640625</ele>
        <time>2022-03-26T08:41:39Z</time>
      </trkpt>
      <trkpt lat="43.2651" lon="5.63173">
        <ele>289.5078125</ele>
        <time>2022-03-26T08:41:40Z</time>
      </trkpt>
      <trkpt lat="43.26511" lon="5.63178">
        <ele>289.01171875</ele>
        <time>2022-03-26T08:41:41Z</time>
      </trkpt>
      <trkpt lat="43.2651" lon="5.63198">
        <ele>286.8984375</ele>
        <time>2022-03-26T08:41:44Z</time>
      </trkpt>
      <trkpt lat="43.26508" lon="5.63203">
        <ele>285.75</ele>
        <time>2022-03-26T08:41:45Z</time>
      </trkpt>
      <trkpt lat="43.26505" lon="5.63208">
        <ele>284.3125</ele>
        <time>2022-03-26T08:41:46Z</time>
      </trkpt>
      <trkpt lat="43.26502" lon="5.63214">
        <ele>282.875</ele>
        <time>2022-03-26T08:41:47Z</time>
      </trkpt>
      <trkpt lat="43.265" lon="5.6322">
        <ele>282.36328125</ele>
        <time>2022-03-26T08:41:48Z</time>
      </trkpt>
      <trkpt lat="43.26498" lon="5.63227">
        <ele>281.921875</ele>
        <time>2022-03-26T08:41:49Z</time>
      </trkpt>
      <trkpt lat="43.26496" lon="5.63231">
        <ele>281.60546875</ele>
        <time>2022-03-26T08:41:50Z</time>
      </trkpt>
      <trkpt lat="43.26495" lon="5.63234">
        <ele>281.3984375</ele>
        <time>2022-03-26T08:41:51Z</time>
      </trkpt>
      <trkpt lat="43.26493" lon="5.6324">
        <ele>280.953125</ele>
        <time>2022-03-26T08:42:05Z</time>
      </trkpt>
      <trkpt lat="43.26486" lon="5.63256">
        <ele>279.578125</ele>
        <time>2022-03-26T08:42:30Z</time>
      </trkpt>
      <trkpt lat="43.26476" lon="5.63269">
        <ele>278.07421875</ele>
        <time>2022-03-26T08:42:34Z</time>
      </trkpt>
      <trkpt lat="43.26472" lon="5.63269">
        <ele>277.890625</ele>
        <time>2022-03-26T08:42:35Z</time>
      </trkpt>
      <trkpt lat="43.26432" lon="5.63275">
        <ele>277.3203125</ele>
        <time>2022-03-26T08:42:49Z</time>
      </trkpt>
      <trkpt lat="43.26406" lon="5.63286">
        <ele>277.3515625</ele>
        <time>2022-03-26T08:42:59Z</time>
      </trkpt>
      <trkpt lat="43.26406" lon="5.6329">
        <ele>277.21484375</ele>
        <time>2022-03-26T08:43:00Z</time>
      </trkpt>
      <trkpt lat="43.2641" lon="5.63345">
        <ele>277.86328125</ele>
        <time>2022-03-26T08:43:14Z</time>
      </trkpt>
      <trkpt lat="43.26408" lon="5.63349">
        <ele>277.95703125</ele>
        <time>2022-03-26T08:43:15Z</time>
      </trkpt>
      <trkpt lat="43.26405" lon="5.63352">
        <ele>278.01171875</ele>
        <time>2022-03-26T08:43:16Z</time>
      </trkpt>
      <trkpt lat="43.26402" lon="5.63353">
        <ele>278.04296875</ele>
        <time>2022-03-26T08:43:17Z</time>
      </trkpt>
      <trkpt lat="43.26399" lon="5.63354">
        <ele>278.06640625</ele>
        <time>2022-03-26T08:43:18Z</time>
      </trkpt>
      <trkpt lat="43.26396" lon="5.63354">
        <ele>278.078125</ele>
        <time>2022-03-26T08:43:19Z</time>
      </trkpt>
      <trkpt lat="43.26358" lon="5.63364">
        <ele>279.109375</ele>
        <time>2022-03-26T08:43:33Z</time>
      </trkpt>
      <trkpt lat="43.26311" lon="5.63388">
        <ele>280.64453125</ele>
        <time>2022-03-26T08:43:48Z</time>
      </trkpt>
      <trkpt lat="43.26265" lon="5.63396">
        <ele>280.05078125</ele>
        <time>2022-03-26T08:44:01Z</time>
      </trkpt>
      <trkpt lat="43.26207" lon="5.63409">
        <ele>278.42578125</ele>
        <time>2022-03-26T08:44:16Z</time>
      </trkpt>
      <trkpt lat="43.26164" lon="5.63417">
        <ele>279.50390625</ele>
        <time>2022-03-26T08:44:31Z</time>
      </trkpt>
      <trkpt lat="43.26156" lon="5.63414">
        <ele>280.0859375</ele>
        <time>2022-03-26T08:44:43Z</time>
      </trkpt>
      <trkpt lat="43.26151" lon="5.63395">
        <ele>279.89453125</ele>
        <time>2022-03-26T08:45:00Z</time>
      </trkpt>
      <trkpt lat="43.2615" lon="5.63389">
        <ele>279.765625</ele>
        <time>2022-03-26T08:45:02Z</time>
      </trkpt>
      <trkpt lat="43.2615" lon="5.63386">
        <ele>279.6796875</ele>
        <time>2022-03-26T08:45:03Z</time>
      </trkpt>
      <trkpt lat="43.2615" lon="5.63384">
        <ele>279.6171875</ele>
        <time>2022-03-26T08:45:04Z</time>
      </trkpt>
      <trkpt lat="43.26145" lon="5.63338">
        <ele>279.38671875</ele>
        <time>2022-03-26T08:45:18Z</time>
      </trkpt>
      <trkpt lat="43.26137" lon="5.63268">
        <ele>278.9609375</ele>
        <time>2022-03-26T08:45:34Z</time>
      </trkpt>
      <trkpt lat="43.26129" lon="5.63221">
        <ele>279.92578125</ele>
        <time>2022-03-26T08:45:48Z</time>
      </trkpt>
      <trkpt lat="43.26119" lon="5.63157">
        <ele>280.328125</ele>
        <time>2022-03-26T08:46:04Z</time>
      </trkpt>
      <trkpt lat="43.26104" lon="5.63072">
        <ele>279.390625</ele>
        <time>2022-03-26T08:46:20Z</time>
      </trkpt>
      <trkpt lat="43.26086" lon="5.62969">
        <ele>277.25390625</ele>
        <time>2022-03-26T08:46:35Z</time>
      </trkpt>
      <trkpt lat="43.26069" lon="5.62879">
        <ele>276.1015625</ele>
        <time>2022-03-26T08:46:48Z</time>
      </trkpt>
      <trkpt lat="43.26069" lon="5.62878">
        <ele>276.0859375</ele>
        <time>2022-03-26T08:46:49Z</time>
      </trkpt>
      <trkpt lat="43.26068" lon="5.62876">
        <ele>276.1328125</ele>
        <time>2022-03-26T08:46:50Z</time>
      </trkpt>
      <trkpt lat="43.26067" lon="5.62874">
        <ele>276.15625</ele>
        <time>2022-03-26T08:46:51Z</time>
      </trkpt>
      <trkpt lat="43.26067" lon="5.62873">
        <ele>276.078125</ele>
        <time>2022-03-26T08:46:52Z</time>
      </trkpt>
      <trkpt lat="43.26069" lon="5.62872">
        <ele>275.74609375</ele>
        <time>2022-03-26T08:46:54Z</time>
      </trkpt>
      <trkpt lat="43.2607" lon="5.62873">
        <ele>275.5859375</ele>
        <time>2022-03-26T08:46:55Z</time>
      </trkpt>
      <trkpt lat="43.26071" lon="5.62875">
        <ele>275.5</ele>
        <time>2022-03-26T08:46:56Z</time>
      </trkpt>
      <trkpt lat="43.26072" lon="5.62878">
        <ele>275.57421875</ele>
        <time>2022-03-26T08:46:57Z</time>
      </trkpt>
      <trkpt lat="43.26072" lon="5.62881">
        <ele>275.63671875</ele>
        <time>2022-03-26T08:46:58Z</time>
      </trkpt>
      <trkpt lat="43.26073" lon="5.62884">
        <ele>275.6796875</ele>
        <time>2022-03-26T08:46:59Z</time>
      </trkpt>
      <trkpt lat="43.26074" lon="5.62895">
        <ele>276.078125</ele>
        <time>2022-03-26T08:47:03Z</time>
      </trkpt>
      <trkpt lat="43.26073" lon="5.62896">
        <ele>276.3671875</ele>
        <time>2022-03-26T08:47:04Z</time>
      </trkpt>
      <trkpt lat="43.26071" lon="5.62896">
        <ele>276.56640625</ele>
        <time>2022-03-26T08:47:05Z</time>
      </trkpt>
      <trkpt lat="43.2607" lon="5.62891">
        <ele>276.59375</ele>
        <time>2022-03-26T08:47:07Z</time>
      </trkpt>
      <trkpt lat="43.26069" lon="5.62888">
        <ele>276.66796875</ele>
        <time>2022-03-26T08:47:08Z</time>
      </trkpt>
      <trkpt lat="43.26057" lon="5.62851">
        <ele>276.22265625</ele>
        <time>2022-03-26T08:47:20Z</time>
      </trkpt>
      <trkpt lat="43.26053" lon="5.62836">
        <ele>276.4765625</ele>
        <time>2022-03-26T08:47:24Z</time>
      </trkpt>
      <trkpt lat="43.26046" lon="5.62828">
        <ele>277.3359375</ele>
        <time>2022-03-26T08:47:28Z</time>
      </trkpt>
      <trkpt lat="43.26043" lon="5.62817">
        <ele>277.48046875</ele>
        <time>2022-03-26T08:47:32Z</time>
      </trkpt>
      <trkpt lat="43.26043" lon="5.62814">
        <ele>277.328125</ele>
        <time>2022-03-26T08:47:33Z</time>
      </trkpt>
      <trkpt lat="43.26043" lon="5.6281">
        <ele>277.125</ele>
        <time>2022-03-26T08:47:34Z</time>
      </trkpt>
      <trkpt lat="43.26043" lon="5.62805">
        <ele>276.8203125</ele>
        <time>2022-03-26T08:47:35Z</time>
      </trkpt>
      <trkpt lat="43.26043" lon="5.628">
        <ele>276.4140625</ele>
        <time>2022-03-26T08:47:36Z</time>
      </trkpt>
      <trkpt lat="43.26042" lon="5.62792">
        <ele>276.1796875</ele>
        <time>2022-03-26T08:47:38Z</time>
      </trkpt>
      <trkpt lat="43.26021" lon="5.62751">
        <ele>278.47265625</ele>
        <time>2022-03-26T08:47:49Z</time>
      </trkpt>
      <trkpt lat="43.25995" lon="5.62688">
        <ele>281.51953125</ele>
        <time>2022-03-26T08:48:02Z</time>
      </trkpt>
      <trkpt lat="43.25994" lon="5.62681">
        <ele>281.3984375</ele>
        <time>2022-03-26T08:48:03Z</time>
      </trkpt>
      <trkpt lat="43.25986" lon="5.62623">
        <ele>281.015625</ele>
        <time>2022-03-26T08:48:12Z</time>
      </trkpt>
      <trkpt lat="43.25984" lon="5.62617">
        <ele>281.0859375</ele>
        <time>2022-03-26T08:48:13Z</time>
      </trkpt>
      <trkpt lat="43.25982" lon="5.62611">
        <ele>281.09765625</ele>
        <time>2022-03-26T08:48:14Z</time>
      </trkpt>
      <trkpt lat="43.2598" lon="5.62606">
        <ele>281.2421875</ele>
        <time>2022-03-26T08:48:15Z</time>
      </trkpt>
      <trkpt lat="43.25978" lon="5.62602">
        <ele>281.46484375</ele>
        <time>2022-03-26T08:48:16Z</time>
      </trkpt>
      <trkpt lat="43.25976" lon="5.62593">
        <ele>281.86328125</ele>
        <time>2022-03-26T08:48:24Z</time>
      </trkpt>
      <trkpt lat="43.25979" lon="5.62586">
        <ele>281.15234375</ele>
        <time>2022-03-26T08:48:46Z</time>
      </trkpt>
      <trkpt lat="43.25979" lon="5.62584">
        <ele>281.18359375</ele>
        <time>2022-03-26T08:48:47Z</time>
      </trkpt>
      <trkpt lat="43.25979" lon="5.6258">
        <ele>281.1171875</ele>
        <time>2022-03-26T08:48:48Z</time>
      </trkpt>
      <trkpt lat="43.2598" lon="5.62575">
        <ele>280.96484375</ele>
        <time>2022-03-26T08:48:49Z</time>
      </trkpt>
      <trkpt lat="43.25981" lon="5.62571">
        <ele>280.765625</ele>
        <time>2022-03-26T08:48:50Z</time>
      </trkpt>
      <trkpt lat="43.25986" lon="5.6254">
        <ele>279.77734375</ele>
        <time>2022-03-26T08:48:55Z</time>
      </trkpt>
      <trkpt lat="43.25986" lon="5.62532">
        <ele>279.734375</ele>
        <time>2022-03-26T08:48:56Z</time>
      </trkpt>
      <trkpt lat="43.25987" lon="5.62489">
        <ele>278.4453125</ele>
        <time>2022-03-26T08:49:01Z</time>
      </trkpt>
      <trkpt lat="43.25988" lon="5.6248">
        <ele>278.2578125</ele>
        <time>2022-03-26T08:49:02Z</time>
      </trkpt>
      <trkpt lat="43.25994" lon="5.62378">
        <ele>274.859375</ele>
        <time>2022-03-26T08:49:12Z</time>
      </trkpt>
      <trkpt lat="43.25994" lon="5.62368">
        <ele>274.58984375</ele>
        <time>2022-03-26T08:49:13Z</time>
      </trkpt>
      <trkpt lat="43.2599" lon="5.6228">
        <ele>273.75390625</ele>
        <time>2022-03-26T08:49:23Z</time>
      </trkpt>
      <trkpt lat="43.2598" lon="5.62205">
        <ele>274.22265625</ele>
        <time>2022-03-26T08:49:31Z</time>
      </trkpt>
      <trkpt lat="43.25979" lon="5.62195">
        <ele>273.89453125</ele>
        <time>2022-03-26T08:49:32Z</time>
      </trkpt>
      <trkpt lat="43.25978" lon="5.62185">
        <ele>273.39453125</ele>
        <time>2022-03-26T08:49:33Z</time>
      </trkpt>
      <trkpt lat="43.25963" lon="5.62072">
        <ele>274.0546875</ele>
        <time>2022-03-26T08:49:45Z</time>
      </trkpt>
      <trkpt lat="43.25956" lon="5.62047">
        <ele>274.14453125</ele>
        <time>2022-03-26T08:49:48Z</time>
      </trkpt>
      <trkpt lat="43.25931" lon="5.61964">
        <ele>274.3203125</ele>
        <time>2022-03-26T08:49:58Z</time>
      </trkpt>
      <trkpt lat="43.25919" lon="5.61931">
        <ele>274.83203125</ele>
        <time>2022-03-26T08:50:02Z</time>
      </trkpt>
      <trkpt lat="43.25916" lon="5.61924">
        <ele>275.0234375</ele>
        <time>2022-03-26T08:50:03Z</time>
      </trkpt>
      <trkpt lat="43.25914" lon="5.61918">
        <ele>274.9765625</ele>
        <time>2022-03-26T08:50:04Z</time>
      </trkpt>
      <trkpt lat="43.25906" lon="5.61888">
        <ele>274.8515625</ele>
        <time>2022-03-26T08:50:09Z</time>
      </trkpt>
      <trkpt lat="43.25905" lon="5.61882">
        <ele>274.80859375</ele>
        <time>2022-03-26T08:50:10Z</time>
      </trkpt>
      <trkpt lat="43.25879" lon="5.61828">
        <ele>277.17578125</ele>
        <time>2022-03-26T08:50:22Z</time>
      </trkpt>
      <trkpt lat="43.25867" lon="5.61812">
        <ele>278.82421875</ele>
        <time>2022-03-26T08:50:33Z</time>
      </trkpt>
      <trkpt lat="43.25869" lon="5.61805">
        <ele>277.765625</ele>
        <time>2022-03-26T08:51:06Z</time>
      </trkpt>
      <trkpt lat="43.25867" lon="5.61802">
        <ele>277.90234375</ele>
        <time>2022-03-26T08:51:23Z</time>
      </trkpt>
      <trkpt lat="43.25866" lon="5.618">
        <ele>277.89453125</ele>
        <time>2022-03-26T08:51:24Z</time>
      </trkpt>
      <trkpt lat="43.25865" lon="5.61798">
        <ele>277.8828125</ele>
        <time>2022-03-26T08:51:25Z</time>
      </trkpt>
      <trkpt lat="43.25864" lon="5.61796">
        <ele>277.96484375</ele>
        <time>2022-03-26T08:51:26Z</time>
      </trkpt>
      <trkpt lat="43.25863" lon="5.61794">
        <ele>278.22265625</ele>
        <time>2022-03-26T08:51:27Z</time>
      </trkpt>
      <trkpt lat="43.25861" lon="5.61792">
        <ele>278.484375</ele>
        <time>2022-03-26T08:51:28Z</time>
      </trkpt>
      <trkpt lat="43.25856" lon="5.61785">
        <ele>279.08984375</ele>
        <time>2022-03-26T08:51:31Z</time>
      </trkpt>
      <trkpt lat="43.25854" lon="5.61782">
        <ele>279.3359375</ele>
        <time>2022-03-26T08:51:32Z</time>
      </trkpt>
      <trkpt lat="43.25854" lon="5.6178">
        <ele>279.2734375</ele>
        <time>2022-03-26T08:51:33Z</time>
      </trkpt>
      <trkpt lat="43.25852" lon="5.61771">
        <ele>278.85546875</ele>
        <time>2022-03-26T08:51:44Z</time>
      </trkpt>
      <trkpt lat="43.25851" lon="5.61765">
        <ele>278.52734375</ele>
        <time>2022-03-26T08:52:01Z</time>
      </trkpt>
      <trkpt lat="43.25851" lon="5.61761">
        <ele>278.13671875</ele>
        <time>2022-03-26T08:52:20Z</time>
      </trkpt>
      <trkpt lat="43.2585" lon="5.61761">
        <ele>278.3046875</ele>
        <time>2022-03-26T08:52:21Z</time>
      </trkpt>
      <trkpt lat="43.25849" lon="5.61759">
        <ele>278.41015625</ele>
        <time>2022-03-26T08:52:22Z</time>
      </trkpt>
      <trkpt lat="43.25844" lon="5.61746">
        <ele>277.9375</ele>
        <time>2022-03-26T08:52:25Z</time>
      </trkpt>
      <trkpt lat="43.25836" lon="5.61722">
        <ele>277.08984375</ele>
        <time>2022-03-26T08:52:29Z</time>
      </trkpt>
      <trkpt lat="43.25811" lon="5.61674">
        <ele>278.09765625</ele>
        <time>2022-03-26T08:52:38Z</time>
      </trkpt>
      <trkpt lat="43.25807" lon="5.61664">
        <ele>278.1640625</ele>
        <time>2022-03-26T08:52:40Z</time>
      </trkpt>
      <trkpt lat="43.25792" lon="5.61602">
        <ele>275.6484375</ele>
        <time>2022-03-26T08:52:49Z</time>
      </trkpt>
      <trkpt lat="43.25773" lon="5.61541">
        <ele>274.2578125</ele>
        <time>2022-03-26T08:53:00Z</time>
      </trkpt>
      <trkpt lat="43.25757" lon="5.61495">
        <ele>273.58984375</ele>
        <time>2022-03-26T08:53:10Z</time>
      </trkpt>
      <trkpt lat="43.25755" lon="5.61489">
        <ele>273.5078125</ele>
        <time>2022-03-26T08:53:11Z</time>
      </trkpt>
      <trkpt lat="43.25753" lon="5.61483">
        <ele>273.16015625</ele>
        <time>2022-03-26T08:53:12Z</time>
      </trkpt>
      <trkpt lat="43.25751" lon="5.61476">
        <ele>272.7109375</ele>
        <time>2022-03-26T08:53:13Z</time>
      </trkpt>
      <trkpt lat="43.2575" lon="5.61468">
        <ele>272.24609375</ele>
        <time>2022-03-26T08:53:14Z</time>
      </trkpt>
      <trkpt lat="43.25747" lon="5.6146">
        <ele>271.84375</ele>
        <time>2022-03-26T08:53:15Z</time>
      </trkpt>
      <trkpt lat="43.25743" lon="5.61437">
        <ele>270.49609375</ele>
        <time>2022-03-26T08:53:18Z</time>
      </trkpt>
      <trkpt lat="43.25739" lon="5.61423">
        <ele>269.92578125</ele>
        <time>2022-03-26T08:53:20Z</time>
      </trkpt>
      <trkpt lat="43.25737" lon="5.61416">
        <ele>269.63671875</ele>
        <time>2022-03-26T08:53:21Z</time>
      </trkpt>
      <trkpt lat="43.25736" lon="5.6141">
        <ele>269.3359375</ele>
        <time>2022-03-26T08:53:22Z</time>
      </trkpt>
      <trkpt lat="43.25734" lon="5.61403">
        <ele>269.04296875</ele>
        <time>2022-03-26T08:53:23Z</time>
      </trkpt>
      <trkpt lat="43.25733" lon="5.61396">
        <ele>268.81640625</ele>
        <time>2022-03-26T08:53:24Z</time>
      </trkpt>
      <trkpt lat="43.25727" lon="5.61372">
        <ele>268.2265625</ele>
        <time>2022-03-26T08:53:27Z</time>
      </trkpt>
      <trkpt lat="43.25724" lon="5.61366">
        <ele>268.21875</ele>
        <time>2022-03-26T08:53:28Z</time>
      </trkpt>
      <trkpt lat="43.25722" lon="5.6136">
        <ele>268.31640625</ele>
        <time>2022-03-26T08:53:29Z</time>
      </trkpt>
      <trkpt lat="43.2572" lon="5.61355">
        <ele>268.421875</ele>
        <time>2022-03-26T08:53:30Z</time>
      </trkpt>
      <trkpt lat="43.25718" lon="5.61349">
        <ele>268.4609375</ele>
        <time>2022-03-26T08:53:31Z</time>
      </trkpt>
      <trkpt lat="43.25716" lon="5.61344">
        <ele>268.46484375</ele>
        <time>2022-03-26T08:53:32Z</time>
      </trkpt>
      <trkpt lat="43.25702" lon="5.61303">
        <ele>268.57421875</ele>
        <time>2022-03-26T08:53:39Z</time>
      </trkpt>
      <trkpt lat="43.257" lon="5.61299">
        <ele>268.78515625</ele>
        <time>2022-03-26T08:53:40Z</time>
      </trkpt>
      <trkpt lat="43.25697" lon="5.61296">
        <ele>269.10546875</ele>
        <time>2022-03-26T08:53:41Z</time>
      </trkpt>
      <trkpt lat="43.25695" lon="5.61295">
        <ele>269.59375</ele>
        <time>2022-03-26T08:53:42Z</time>
      </trkpt>
      <trkpt lat="43.25694" lon="5.61293">
        <ele>270.0625</ele>
        <time>2022-03-26T08:53:43Z</time>
      </trkpt>
      <trkpt lat="43.25692" lon="5.6129">
        <ele>270.34375</ele>
        <time>2022-03-26T08:53:45Z</time>
      </trkpt>
      <trkpt lat="43.25691" lon="5.61287">
        <ele>270.3984375</ele>
        <time>2022-03-26T08:53:46Z</time>
      </trkpt>
      <trkpt lat="43.25691" lon="5.61283">
        <ele>270.40234375</ele>
        <time>2022-03-26T08:53:47Z</time>
      </trkpt>
      <trkpt lat="43.2569" lon="5.61279">
        <ele>270.41796875</ele>
        <time>2022-03-26T08:53:48Z</time>
      </trkpt>
      <trkpt lat="43.2569" lon="5.61274">
        <ele>270.2890625</ele>
        <time>2022-03-26T08:53:49Z</time>
      </trkpt>
      <trkpt lat="43.2569" lon="5.61269">
        <ele>270.02734375</ele>
        <time>2022-03-26T08:53:50Z</time>
      </trkpt>
      <trkpt lat="43.2569" lon="5.61262">
        <ele>269.51953125</ele>
        <time>2022-03-26T08:53:51Z</time>
      </trkpt>
      <trkpt lat="43.2569" lon="5.61256">
        <ele>269.05859375</ele>
        <time>2022-03-26T08:53:52Z</time>
      </trkpt>
      <trkpt lat="43.25689" lon="5.61249">
        <ele>268.80078125</ele>
        <time>2022-03-26T08:53:53Z</time>
      </trkpt>
      <trkpt lat="43.25687" lon="5.61243">
        <ele>268.66015625</ele>
        <time>2022-03-26T08:53:54Z</time>
      </trkpt>
      <trkpt lat="43.25686" lon="5.61236">
        <ele>268.67578125</ele>
        <time>2022-03-26T08:53:55Z</time>
      </trkpt>
      <trkpt lat="43.2568" lon="5.61203">
        <ele>268.6875</ele>
        <time>2022-03-26T08:54:00Z</time>
      </trkpt>
      <trkpt lat="43.25679" lon="5.61196">
        <ele>268.59765625</ele>
        <time>2022-03-26T08:54:01Z</time>
      </trkpt>
      <trkpt lat="43.25677" lon="5.61181">
        <ele>267.9375</ele>
        <time>2022-03-26T08:54:03Z</time>
      </trkpt>
      <trkpt lat="43.25678" lon="5.61173">
        <ele>267.265625</ele>
        <time>2022-03-26T08:54:04Z</time>
      </trkpt>
      <trkpt lat="43.2568" lon="5.61155">
        <ele>265.63671875</ele>
        <time>2022-03-26T08:54:06Z</time>
      </trkpt>
      <trkpt lat="43.25682" lon="5.61145">
        <ele>264.8359375</ele>
        <time>2022-03-26T08:54:07Z</time>
      </trkpt>
      <trkpt lat="43.25684" lon="5.61135">
        <ele>264.08984375</ele>
        <time>2022-03-26T08:54:08Z</time>
      </trkpt>
      <trkpt lat="43.25686" lon="5.61127">
        <ele>263.4375</ele>
        <time>2022-03-26T08:54:09Z</time>
      </trkpt>
      <trkpt lat="43.25687" lon="5.6112">
        <ele>262.8125</ele>
        <time>2022-03-26T08:54:10Z</time>
      </trkpt>
      <trkpt lat="43.25688" lon="5.61117">
        <ele>262.5546875</ele>
        <time>2022-03-26T08:54:11Z</time>
      </trkpt>
      <trkpt lat="43.25688" lon="5.61108">
        <ele>262.03125</ele>
        <time>2022-03-26T08:54:12Z</time>
      </trkpt>
      <trkpt lat="43.25688" lon="5.61101">
        <ele>261.60546875</ele>
        <time>2022-03-26T08:54:13Z</time>
      </trkpt>
      <trkpt lat="43.25691" lon="5.61084">
        <ele>260.41015625</ele>
        <time>2022-03-26T08:54:15Z</time>
      </trkpt>
      <trkpt lat="43.25691" lon="5.61075">
        <ele>259.98828125</ele>
        <time>2022-03-26T08:54:16Z</time>
      </trkpt>
      <trkpt lat="43.25685" lon="5.6104">
        <ele>258.71875</ele>
        <time>2022-03-26T08:54:20Z</time>
      </trkpt>
      <trkpt lat="43.25683" lon="5.61032">
        <ele>258.8359375</ele>
        <time>2022-03-26T08:54:21Z</time>
      </trkpt>
      <trkpt lat="43.25682" lon="5.61024">
        <ele>258.84765625</ele>
        <time>2022-03-26T08:54:22Z</time>
      </trkpt>
      <trkpt lat="43.25681" lon="5.61015">
        <ele>258.76953125</ele>
        <time>2022-03-26T08:54:23Z</time>
      </trkpt>
      <trkpt lat="43.2568" lon="5.61007">
        <ele>258.64453125</ele>
        <time>2022-03-26T08:54:24Z</time>
      </trkpt>
      <trkpt lat="43.25679" lon="5.60998">
        <ele>258.48828125</ele>
        <time>2022-03-26T08:54:25Z</time>
      </trkpt>
      <trkpt lat="43.25677" lon="5.6098">
        <ele>258.07421875</ele>
        <time>2022-03-26T08:54:27Z</time>
      </trkpt>
      <trkpt lat="43.25672" lon="5.60954">
        <ele>257.47265625</ele>
        <time>2022-03-26T08:54:30Z</time>
      </trkpt>
      <trkpt lat="43.25672" lon="5.60947">
        <ele>257.21875</ele>
        <time>2022-03-26T08:54:31Z</time>
      </trkpt>
      <trkpt lat="43.25673" lon="5.60939">
        <ele>256.91015625</ele>
        <time>2022-03-26T08:54:32Z</time>
      </trkpt>
      <trkpt lat="43.25673" lon="5.60931">
        <ele>256.59765625</ele>
        <time>2022-03-26T08:54:33Z</time>
      </trkpt>
      <trkpt lat="43.25674" lon="5.60923">
        <ele>256.32421875</ele>
        <time>2022-03-26T08:54:34Z</time>
      </trkpt>
      <trkpt lat="43.25673" lon="5.60908">
        <ele>255.89453125</ele>
        <time>2022-03-26T08:54:36Z</time>
      </trkpt>
      <trkpt lat="43.25671" lon="5.60901">
        <ele>255.9296875</ele>
        <time>2022-03-26T08:54:37Z</time>
      </trkpt>
      <trkpt lat="43.25662" lon="5.60872">
        <ele>257.4921875</ele>
        <time>2022-03-26T08:54:42Z</time>
      </trkpt>
      <trkpt lat="43.2566" lon="5.60859">
        <ele>257.64453125</ele>
        <time>2022-03-26T08:54:44Z</time>
      </trkpt>
      <trkpt lat="43.2566" lon="5.60853">
        <ele>257.62890625</ele>
        <time>2022-03-26T08:54:45Z</time>
      </trkpt>
      <trkpt lat="43.25659" lon="5.60847">
        <ele>257.69140625</ele>
        <time>2022-03-26T08:54:46Z</time>
      </trkpt>
      <trkpt lat="43.25659" lon="5.60841">
        <ele>257.6015625</ele>
        <time>2022-03-26T08:54:47Z</time>
      </trkpt>
      <trkpt lat="43.25659" lon="5.60835">
        <ele>257.51953125</ele>
        <time>2022-03-26T08:54:48Z</time>
      </trkpt>
      <trkpt lat="43.25659" lon="5.60827">
        <ele>257.46484375</ele>
        <time>2022-03-26T08:54:49Z</time>
      </trkpt>
      <trkpt lat="43.25651" lon="5.60736">
        <ele>256.55859375</ele>
        <time>2022-03-26T08:54:59Z</time>
      </trkpt>
      <trkpt lat="43.25648" lon="5.60726">
        <ele>256.6796875</ele>
        <time>2022-03-26T08:55:00Z</time>
      </trkpt>
      <trkpt lat="43.25624" lon="5.60648">
        <ele>256.22265625</ele>
        <time>2022-03-26T08:55:09Z</time>
      </trkpt>
      <trkpt lat="43.25612" lon="5.60619">
        <ele>255.07421875</ele>
        <time>2022-03-26T08:55:13Z</time>
      </trkpt>
      <trkpt lat="43.25611" lon="5.60611">
        <ele>255.00390625</ele>
        <time>2022-03-26T08:55:14Z</time>
      </trkpt>
      <trkpt lat="43.25608" lon="5.60572">
        <ele>254.046875</ele>
        <time>2022-03-26T08:55:19Z</time>
      </trkpt>
      <trkpt lat="43.25607" lon="5.60565">
        <ele>254.2421875</ele>
        <time>2022-03-26T08:55:20Z</time>
      </trkpt>
      <trkpt lat="43.25608" lon="5.60558">
        <ele>254.2890625</ele>
        <time>2022-03-26T08:55:21Z</time>
      </trkpt>
      <trkpt lat="43.25611" lon="5.60544">
        <ele>254.26171875</ele>
        <time>2022-03-26T08:55:23Z</time>
      </trkpt>
      <trkpt lat="43.25611" lon="5.60536">
        <ele>254.19921875</ele>
        <time>2022-03-26T08:55:24Z</time>
      </trkpt>
      <trkpt lat="43.2561" lon="5.60527">
        <ele>254.18359375</ele>
        <time>2022-03-26T08:55:25Z</time>
      </trkpt>
      <trkpt lat="43.25609" lon="5.6052">
        <ele>254.19140625</ele>
        <time>2022-03-26T08:55:26Z</time>
      </trkpt>
      <trkpt lat="43.25608" lon="5.60514">
        <ele>254.40234375</ele>
        <time>2022-03-26T08:55:27Z</time>
      </trkpt>
      <trkpt lat="43.25607" lon="5.60508">
        <ele>254.56640625</ele>
        <time>2022-03-26T08:55:28Z</time>
      </trkpt>
      <trkpt lat="43.25604" lon="5.60497">
        <ele>254.87109375</ele>
        <time>2022-03-26T08:55:31Z</time>
      </trkpt>
      <trkpt lat="43.25604" lon="5.60493">
        <ele>254.96484375</ele>
        <time>2022-03-26T08:55:32Z</time>
      </trkpt>
      <trkpt lat="43.25604" lon="5.60489">
        <ele>254.9609375</ele>
        <time>2022-03-26T08:55:33Z</time>
      </trkpt>
      <trkpt lat="43.25603" lon="5.60484">
        <ele>254.8828125</ele>
        <time>2022-03-26T08:55:34Z</time>
      </trkpt>
      <trkpt lat="43.25602" lon="5.6048">
        <ele>254.8046875</ele>
        <time>2022-03-26T08:55:35Z</time>
      </trkpt>
      <trkpt lat="43.25596" lon="5.60457">
        <ele>254.34375</ele>
        <time>2022-03-26T08:55:40Z</time>
      </trkpt>
      <trkpt lat="43.25587" lon="5.60408">
        <ele>253.0390625</ele>
        <time>2022-03-26T08:55:48Z</time>
      </trkpt>
      <trkpt lat="43.25586" lon="5.60402">
        <ele>252.98046875</ele>
        <time>2022-03-26T08:55:49Z</time>
      </trkpt>
      <trkpt lat="43.25584" lon="5.60396">
        <ele>252.91015625</ele>
        <time>2022-03-26T08:55:50Z</time>
      </trkpt>
      <trkpt lat="43.25582" lon="5.60389">
        <ele>252.77734375</ele>
        <time>2022-03-26T08:55:51Z</time>
      </trkpt>
      <trkpt lat="43.25581" lon="5.60383">
        <ele>252.61328125</ele>
        <time>2022-03-26T08:55:52Z</time>
      </trkpt>
      <trkpt lat="43.25579" lon="5.60377">
        <ele>252.578125</ele>
        <time>2022-03-26T08:55:53Z</time>
      </trkpt>
      <trkpt lat="43.25577" lon="5.60363">
        <ele>252.7265625</ele>
        <time>2022-03-26T08:55:55Z</time>
      </trkpt>
      <trkpt lat="43.25576" lon="5.60356">
        <ele>252.8359375</ele>
        <time>2022-03-26T08:55:56Z</time>
      </trkpt>
      <trkpt lat="43.25573" lon="5.60339">
        <ele>252.7578125</ele>
        <time>2022-03-26T08:55:58Z</time>
      </trkpt>
      <trkpt lat="43.25562" lon="5.60306">
        <ele>251.4609375</ele>
        <time>2022-03-26T08:56:02Z</time>
      </trkpt>
      <trkpt lat="43.25556" lon="5.60289">
        <ele>250.8671875</ele>
        <time>2022-03-26T08:56:04Z</time>
      </trkpt>
      <trkpt lat="43.25552" lon="5.60281">
        <ele>250.75</ele>
        <time>2022-03-26T08:56:05Z</time>
      </trkpt>
      <trkpt lat="43.25548" lon="5.60275">
        <ele>250.62890625</ele>
        <time>2022-03-26T08:56:06Z</time>
      </trkpt>
      <trkpt lat="43.25534" lon="5.60253">
        <ele>249.25390625</ele>
        <time>2022-03-26T08:56:10Z</time>
      </trkpt>
      <trkpt lat="43.25531" lon="5.60249">
        <ele>248.81640625</ele>
        <time>2022-03-26T08:56:11Z</time>
      </trkpt>
      <trkpt lat="43.25529" lon="5.60244">
        <ele>248.58984375</ele>
        <time>2022-03-26T08:56:12Z</time>
      </trkpt>
      <trkpt lat="43.25529" lon="5.60231">
        <ele>248.34375</ele>
        <time>2022-03-26T08:56:21Z</time>
      </trkpt>
      <trkpt lat="43.25529" lon="5.60229">
        <ele>248.2265625</ele>
        <time>2022-03-26T08:56:49Z</time>
      </trkpt>
      <trkpt lat="43.25532" lon="5.60225">
        <ele>248.05078125</ele>
        <time>2022-03-26T08:57:22Z</time>
      </trkpt>
      <trkpt lat="43.25535" lon="5.60221">
        <ele>248.2578125</ele>
        <time>2022-03-26T08:57:41Z</time>
      </trkpt>
      <trkpt lat="43.25537" lon="5.60222">
        <ele>248.38671875</ele>
        <time>2022-03-26T08:57:42Z</time>
      </trkpt>
      <trkpt lat="43.25538" lon="5.60224">
        <ele>248.515625</ele>
        <time>2022-03-26T08:57:43Z</time>
      </trkpt>
      <trkpt lat="43.2554" lon="5.60226">
        <ele>248.62109375</ele>
        <time>2022-03-26T08:57:44Z</time>
      </trkpt>
      <trkpt lat="43.25541" lon="5.60228">
        <ele>248.70703125</ele>
        <time>2022-03-26T08:57:45Z</time>
      </trkpt>
      <trkpt lat="43.25542" lon="5.60231">
        <ele>248.78125</ele>
        <time>2022-03-26T08:57:46Z</time>
      </trkpt>
      <trkpt lat="43.25543" lon="5.60234">
        <ele>248.8671875</ele>
        <time>2022-03-26T08:57:47Z</time>
      </trkpt>
      <trkpt lat="43.25545" lon="5.60239">
        <ele>249.015625</ele>
        <time>2022-03-26T08:57:49Z</time>
      </trkpt>
      <trkpt lat="43.2555" lon="5.60245">
        <ele>249.43359375</ele>
        <time>2022-03-26T08:57:52Z</time>
      </trkpt>
      <trkpt lat="43.2557" lon="5.60263">
        <ele>252.5625</ele>
        <time>2022-03-26T08:58:05Z</time>
      </trkpt>
      <trkpt lat="43.25572" lon="5.60262">
        <ele>252.96484375</ele>
        <time>2022-03-26T08:58:06Z</time>
      </trkpt>
      <trkpt lat="43.2558" lon="5.60253">
        <ele>254.921875</ele>
        <time>2022-03-26T08:58:12Z</time>
      </trkpt>
      <trkpt lat="43.25591" lon="5.60234">
        <ele>258.13671875</ele>
        <time>2022-03-26T08:58:23Z</time>
      </trkpt>
      <trkpt lat="43.25593" lon="5.60225">
        <ele>258.10546875</ele>
        <time>2022-03-26T08:58:36Z</time>
      </trkpt>
      <trkpt lat="43.25592" lon="5.60219">
        <ele>257.62890625</ele>
        <time>2022-03-26T08:58:48Z</time>
      </trkpt>
      <trkpt lat="43.25598" lon="5.60206">
        <ele>258.36328125</ele>
        <time>2022-03-26T08:59:01Z</time>
      </trkpt>
      <trkpt lat="43.25607" lon="5.60188">
        <ele>258.796875</ele>
        <time>2022-03-26T08:59:12Z</time>
      </trkpt>
      <trkpt lat="43.25629" lon="5.60172">
        <ele>261.48046875</ele>
        <time>2022-03-26T08:59:26Z</time>
      </trkpt>
      <trkpt lat="43.25646" lon="5.60166">
        <ele>263.9765625</ele>
        <time>2022-03-26T08:59:34Z</time>
      </trkpt>
      <trkpt lat="43.25647" lon="5.60167">
        <ele>264.33984375</ele>
        <time>2022-03-26T08:59:35Z</time>
      </trkpt>
      <trkpt lat="43.25649" lon="5.60167">
        <ele>264.7109375</ele>
        <time>2022-03-26T08:59:36Z</time>
      </trkpt>
      <trkpt lat="43.25651" lon="5.60166">
        <ele>264.99609375</ele>
        <time>2022-03-26T08:59:37Z</time>
      </trkpt>
      <trkpt lat="43.25652" lon="5.60167">
        <ele>265.3828125</ele>
        <time>2022-03-26T08:59:38Z</time>
      </trkpt>
      <trkpt lat="43.25654" lon="5.60168">
        <ele>265.84765625</ele>
        <time>2022-03-26T08:59:39Z</time>
      </trkpt>
      <trkpt lat="43.25656" lon="5.60168">
        <ele>266.2734375</ele>
        <time>2022-03-26T08:59:40Z</time>
      </trkpt>
      <trkpt lat="43.25657" lon="5.60168">
        <ele>266.51953125</ele>
        <time>2022-03-26T08:59:41Z</time>
      </trkpt>
      <trkpt lat="43.25659" lon="5.60167">
        <ele>266.75390625</ele>
        <time>2022-03-26T08:59:42Z</time>
      </trkpt>
      <trkpt lat="43.2567" lon="5.60164">
        <ele>268.10546875</ele>
        <time>2022-03-26T08:59:49Z</time>
      </trkpt>
      <trkpt lat="43.25671" lon="5.60163">
        <ele>267.99609375</ele>
        <time>2022-03-26T08:59:50Z</time>
      </trkpt>
      <trkpt lat="43.25692" lon="5.60145">
        <ele>268.0234375</ele>
        <time>2022-03-26T09:00:02Z</time>
      </trkpt>
      <trkpt lat="43.25708" lon="5.6014">
        <ele>269.1875</ele>
        <time>2022-03-26T09:00:11Z</time>
      </trkpt>
      <trkpt lat="43.25725" lon="5.60155">
        <ele>271.80859375</ele>
        <time>2022-03-26T09:00:23Z</time>
      </trkpt>
      <trkpt lat="43.25734" lon="5.60172">
        <ele>274.30859375</ele>
        <time>2022-03-26T09:00:37Z</time>
      </trkpt>
      <trkpt lat="43.25736" lon="5.60176">
        <ele>274.84375</ele>
        <time>2022-03-26T09:00:41Z</time>
      </trkpt>
      <trkpt lat="43.25736" lon="5.60178">
        <ele>275.01953125</ele>
        <time>2022-03-26T09:00:42Z</time>
      </trkpt>
      <trkpt lat="43.25737" lon="5.60179">
        <ele>275.22265625</ele>
        <time>2022-03-26T09:00:43Z</time>
      </trkpt>
      <trkpt lat="43.25754" lon="5.602">
        <ele>279</ele>
        <time>2022-03-26T09:00:58Z</time>
      </trkpt>
      <trkpt lat="43.25756" lon="5.60201">
        <ele>279.3046875</ele>
        <time>2022-03-26T09:00:59Z</time>
      </trkpt>
      <trkpt lat="43.25768" lon="5.60209">
        <ele>281.47265625</ele>
        <time>2022-03-26T09:01:11Z</time>
      </trkpt>
      <trkpt lat="43.25778" lon="5.6021">
        <ele>282.0234375</ele>
        <time>2022-03-26T09:01:18Z</time>
      </trkpt>
      <trkpt lat="43.25791" lon="5.60216">
        <ele>284.859375</ele>
        <time>2022-03-26T09:01:30Z</time>
      </trkpt>
      <trkpt lat="43.25813" lon="5.6021">
        <ele>286.16796875</ele>
        <time>2022-03-26T09:01:41Z</time>
      </trkpt>
      <trkpt lat="43.25816" lon="5.60206">
        <ele>285.7421875</ele>
        <time>2022-03-26T09:01:43Z</time>
      </trkpt>
      <trkpt lat="43.25817" lon="5.60203">
        <ele>285.4375</ele>
        <time>2022-03-26T09:01:44Z</time>
      </trkpt>
      <trkpt lat="43.25827" lon="5.6017">
        <ele>282</ele>
        <time>2022-03-26T09:02:00Z</time>
      </trkpt>
      <trkpt lat="43.25838" lon="5.60154">
        <ele>281.96484375</ele>
        <time>2022-03-26T09:02:13Z</time>
      </trkpt>
      <trkpt lat="43.25853" lon="5.60142">
        <ele>283.4296875</ele>
        <time>2022-03-26T09:02:25Z</time>
      </trkpt>
      <trkpt lat="43.25856" lon="5.60139">
        <ele>283.625</ele>
        <time>2022-03-26T09:02:27Z</time>
      </trkpt>
      <trkpt lat="43.25857" lon="5.60137">
        <ele>283.64453125</ele>
        <time>2022-03-26T09:02:28Z</time>
      </trkpt>
      <trkpt lat="43.25858" lon="5.60136">
        <ele>283.671875</ele>
        <time>2022-03-26T09:02:29Z</time>
      </trkpt>
      <trkpt lat="43.25871" lon="5.60121">
        <ele>284.77734375</ele>
        <time>2022-03-26T09:02:41Z</time>
      </trkpt>
      <trkpt lat="43.25881" lon="5.60122">
        <ele>285.83203125</ele>
        <time>2022-03-26T09:02:49Z</time>
      </trkpt>
      <trkpt lat="43.25891" lon="5.60126">
        <ele>286.83984375</ele>
        <time>2022-03-26T09:02:56Z</time>
      </trkpt>
      <trkpt lat="43.25893" lon="5.60129">
        <ele>287.15625</ele>
        <time>2022-03-26T09:02:59Z</time>
      </trkpt>
      <trkpt lat="43.25901" lon="5.60137">
        <ele>288.41015625</ele>
        <time>2022-03-26T09:03:05Z</time>
      </trkpt>
      <trkpt lat="43.25921" lon="5.60146">
        <ele>290.078125</ele>
        <time>2022-03-26T09:03:21Z</time>
      </trkpt>
      <trkpt lat="43.25924" lon="5.60146">
        <ele>290.4375</ele>
        <time>2022-03-26T09:03:24Z</time>
      </trkpt>
      <trkpt lat="43.25928" lon="5.60146">
        <ele>290.89453125</ele>
        <time>2022-03-26T09:03:26Z</time>
      </trkpt>
      <trkpt lat="43.25929" lon="5.60147">
        <ele>290.953125</ele>
        <time>2022-03-26T09:03:27Z</time>
      </trkpt>
      <trkpt lat="43.2594" lon="5.60167">
        <ele>291.25</ele>
        <time>2022-03-26T09:03:41Z</time>
      </trkpt>
      <trkpt lat="43.25954" lon="5.60191">
        <ele>292.828125</ele>
        <time>2022-03-26T09:03:57Z</time>
      </trkpt>
      <trkpt lat="43.25972" lon="5.60211">
        <ele>294.0703125</ele>
        <time>2022-03-26T09:04:12Z</time>
      </trkpt>
      <trkpt lat="43.25984" lon="5.60235">
        <ele>295.26171875</ele>
        <time>2022-03-26T09:04:25Z</time>
      </trkpt>
      <trkpt lat="43.25989" lon="5.60268">
        <ele>300.25</ele>
        <time>2022-03-26T09:04:38Z</time>
      </trkpt>
      <trkpt lat="43.26003" lon="5.60274">
        <ele>300.75</ele>
        <time>2022-03-26T09:04:50Z</time>
      </trkpt>
      <trkpt lat="43.26006" lon="5.60273">
        <ele>300.62890625</ele>
        <time>2022-03-26T09:04:51Z</time>
      </trkpt>
      <trkpt lat="43.26009" lon="5.60272">
        <ele>300.578125</ele>
        <time>2022-03-26T09:04:52Z</time>
      </trkpt>
      <trkpt lat="43.26011" lon="5.60271">
        <ele>300.5390625</ele>
        <time>2022-03-26T09:04:53Z</time>
      </trkpt>
      <trkpt lat="43.26013" lon="5.6027">
        <ele>300.4296875</ele>
        <time>2022-03-26T09:04:54Z</time>
      </trkpt>
      <trkpt lat="43.26015" lon="5.6027">
        <ele>300.42578125</ele>
        <time>2022-03-26T09:04:55Z</time>
      </trkpt>
      <trkpt lat="43.26017" lon="5.6027">
        <ele>300.50390625</ele>
        <time>2022-03-26T09:04:56Z</time>
      </trkpt>
      <trkpt lat="43.26019" lon="5.60269">
        <ele>300.4609375</ele>
        <time>2022-03-26T09:04:57Z</time>
      </trkpt>
      <trkpt lat="43.26021" lon="5.60268">
        <ele>300.42578125</ele>
        <time>2022-03-26T09:04:58Z</time>
      </trkpt>
      <trkpt lat="43.26023" lon="5.60268">
        <ele>300.3828125</ele>
        <time>2022-03-26T09:04:59Z</time>
      </trkpt>
      <trkpt lat="43.26025" lon="5.60267">
        <ele>300.359375</ele>
        <time>2022-03-26T09:05:00Z</time>
      </trkpt>
      <trkpt lat="43.26048" lon="5.60255">
        <ele>298.98828125</ele>
        <time>2022-03-26T09:05:14Z</time>
      </trkpt>
      <trkpt lat="43.26068" lon="5.60241">
        <ele>297.26953125</ele>
        <time>2022-03-26T09:05:27Z</time>
      </trkpt>
      <trkpt lat="43.26077" lon="5.60244">
        <ele>298.03515625</ele>
        <time>2022-03-26T09:05:36Z</time>
      </trkpt>
      <trkpt lat="43.26101" lon="5.6025">
        <ele>300.6484375</ele>
        <time>2022-03-26T09:05:50Z</time>
      </trkpt>
      <trkpt lat="43.26108" lon="5.60252">
        <ele>301.46484375</ele>
        <time>2022-03-26T09:05:55Z</time>
      </trkpt>
      <trkpt lat="43.26118" lon="5.6025">
        <ele>301.8046875</ele>
        <time>2022-03-26T09:05:59Z</time>
      </trkpt>
      <trkpt lat="43.26138" lon="5.60249">
        <ele>303.171875</ele>
        <time>2022-03-26T09:06:08Z</time>
      </trkpt>
      <trkpt lat="43.26169" lon="5.60234">
        <ele>305.07421875</ele>
        <time>2022-03-26T09:06:22Z</time>
      </trkpt>
      <trkpt lat="43.26177" lon="5.60225">
        <ele>304.97265625</ele>
        <time>2022-03-26T09:06:36Z</time>
      </trkpt>
      <trkpt lat="43.26179" lon="5.60221">
        <ele>304.7421875</ele>
        <time>2022-03-26T09:07:02Z</time>
      </trkpt>
      <trkpt lat="43.26179" lon="5.6022">
        <ele>304.63671875</ele>
        <time>2022-03-26T09:07:27Z</time>
      </trkpt>
      <trkpt lat="43.26178" lon="5.60225">
        <ele>305.06640625</ele>
        <time>2022-03-26T09:07:51Z</time>
      </trkpt>
      <trkpt lat="43.26181" lon="5.60224">
        <ele>305.265625</ele>
        <time>2022-03-26T09:08:01Z</time>
      </trkpt>
      <trkpt lat="43.2619" lon="5.60221">
        <ele>305.8984375</ele>
        <time>2022-03-26T09:08:14Z</time>
      </trkpt>
      <trkpt lat="43.26206" lon="5.60211">
        <ele>306.68359375</ele>
        <time>2022-03-26T09:08:26Z</time>
      </trkpt>
      <trkpt lat="43.26214" lon="5.60208">
        <ele>307.37890625</ele>
        <time>2022-03-26T09:08:31Z</time>
      </trkpt>
      <trkpt lat="43.26224" lon="5.60213">
        <ele>308.72265625</ele>
        <time>2022-03-26T09:08:38Z</time>
      </trkpt>
      <trkpt lat="43.26246" lon="5.60223">
        <ele>311.5703125</ele>
        <time>2022-03-26T09:08:52Z</time>
      </trkpt>
      <trkpt lat="43.26266" lon="5.60221">
        <ele>312.33203125</ele>
        <time>2022-03-26T09:09:02Z</time>
      </trkpt>
      <trkpt lat="43.2629" lon="5.60218">
        <ele>313.2265625</ele>
        <time>2022-03-26T09:09:13Z</time>
      </trkpt>
      <trkpt lat="43.26309" lon="5.60234">
        <ele>312.5625</ele>
        <time>2022-03-26T09:09:25Z</time>
      </trkpt>
      <trkpt lat="43.26321" lon="5.60243">
        <ele>313.81640625</ele>
        <time>2022-03-26T09:09:33Z</time>
      </trkpt>
      <trkpt lat="43.26336" lon="5.60254">
        <ele>315.515625</ele>
        <time>2022-03-26T09:09:42Z</time>
      </trkpt>
      <trkpt lat="43.26342" lon="5.60266">
        <ele>316.06640625</ele>
        <time>2022-03-26T09:09:48Z</time>
      </trkpt>
      <trkpt lat="43.26348" lon="5.60277">
        <ele>316.234375</ele>
        <time>2022-03-26T09:09:53Z</time>
      </trkpt>
      <trkpt lat="43.26349" lon="5.6028">
        <ele>316.14453125</ele>
        <time>2022-03-26T09:09:54Z</time>
      </trkpt>
      <trkpt lat="43.2635" lon="5.60283">
        <ele>316.06640625</ele>
        <time>2022-03-26T09:09:55Z</time>
      </trkpt>
      <trkpt lat="43.26351" lon="5.60285">
        <ele>315.97265625</ele>
        <time>2022-03-26T09:09:56Z</time>
      </trkpt>
      <trkpt lat="43.26352" lon="5.60287">
        <ele>315.84375</ele>
        <time>2022-03-26T09:09:57Z</time>
      </trkpt>
      <trkpt lat="43.26353" lon="5.6029">
        <ele>315.65625</ele>
        <time>2022-03-26T09:09:58Z</time>
      </trkpt>
      <trkpt lat="43.26354" lon="5.60293">
        <ele>315.4296875</ele>
        <time>2022-03-26T09:09:59Z</time>
      </trkpt>
      <trkpt lat="43.26369" lon="5.60329">
        <ele>315.40625</ele>
        <time>2022-03-26T09:10:14Z</time>
      </trkpt>
      <trkpt lat="43.26377" lon="5.60368">
        <ele>317.6796875</ele>
        <time>2022-03-26T09:10:28Z</time>
      </trkpt>
      <trkpt lat="43.26393" lon="5.60392">
        <ele>319.86328125</ele>
        <time>2022-03-26T09:10:43Z</time>
      </trkpt>
      <trkpt lat="43.26414" lon="5.60413">
        <ele>320.30078125</ele>
        <time>2022-03-26T09:10:57Z</time>
      </trkpt>
      <trkpt lat="43.2642" lon="5.60421">
        <ele>320.03125</ele>
        <time>2022-03-26T09:11:02Z</time>
      </trkpt>
      <trkpt lat="43.26421" lon="5.60422">
        <ele>320.17578125</ele>
        <time>2022-03-26T09:11:03Z</time>
      </trkpt>
      <trkpt lat="43.26423" lon="5.60423">
        <ele>320.296875</ele>
        <time>2022-03-26T09:11:04Z</time>
      </trkpt>
      <trkpt lat="43.26423" lon="5.60425">
        <ele>320.31640625</ele>
        <time>2022-03-26T09:11:05Z</time>
      </trkpt>
      <trkpt lat="43.26425" lon="5.60426">
        <ele>320.41796875</ele>
        <time>2022-03-26T09:11:06Z</time>
      </trkpt>
      <trkpt lat="43.26426" lon="5.60428">
        <ele>320.48828125</ele>
        <time>2022-03-26T09:11:07Z</time>
      </trkpt>
      <trkpt lat="43.26428" lon="5.60429">
        <ele>320.5703125</ele>
        <time>2022-03-26T09:11:08Z</time>
      </trkpt>
      <trkpt lat="43.2643" lon="5.6043">
        <ele>320.64453125</ele>
        <time>2022-03-26T09:11:09Z</time>
      </trkpt>
      <trkpt lat="43.26432" lon="5.60431">
        <ele>320.6875</ele>
        <time>2022-03-26T09:11:10Z</time>
      </trkpt>
      <trkpt lat="43.26433" lon="5.60433">
        <ele>320.671875</ele>
        <time>2022-03-26T09:11:11Z</time>
      </trkpt>
      <trkpt lat="43.26435" lon="5.60434">
        <ele>320.68359375</ele>
        <time>2022-03-26T09:11:12Z</time>
      </trkpt>
      <trkpt lat="43.26436" lon="5.60435">
        <ele>320.6640625</ele>
        <time>2022-03-26T09:11:13Z</time>
      </trkpt>
      <trkpt lat="43.26457" lon="5.60458">
        <ele>321.55859375</ele>
        <time>2022-03-26T09:11:28Z</time>
      </trkpt>
      <trkpt lat="43.26476" lon="5.60488">
        <ele>321.28515625</ele>
        <time>2022-03-26T09:11:42Z</time>
      </trkpt>
      <trkpt lat="43.26495" lon="5.60512">
        <ele>323.36328125</ele>
        <time>2022-03-26T09:11:56Z</time>
      </trkpt>
      <trkpt lat="43.265" lon="5.60535">
        <ele>324.4453125</ele>
        <time>2022-03-26T09:12:06Z</time>
      </trkpt>
      <trkpt lat="43.26497" lon="5.60545">
        <ele>324.671875</ele>
        <time>2022-03-26T09:12:11Z</time>
      </trkpt>
      <trkpt lat="43.26497" lon="5.60547">
        <ele>324.765625</ele>
        <time>2022-03-26T09:12:12Z</time>
      </trkpt>
      <trkpt lat="43.26497" lon="5.60549">
        <ele>324.87109375</ele>
        <time>2022-03-26T09:12:13Z</time>
      </trkpt>
      <trkpt lat="43.26497" lon="5.60552">
        <ele>324.98828125</ele>
        <time>2022-03-26T09:12:14Z</time>
      </trkpt>
      <trkpt lat="43.26496" lon="5.60555">
        <ele>325.1015625</ele>
        <time>2022-03-26T09:12:15Z</time>
      </trkpt>
      <trkpt lat="43.26496" lon="5.60558">
        <ele>325.21875</ele>
        <time>2022-03-26T09:12:16Z</time>
      </trkpt>
      <trkpt lat="43.26495" lon="5.60597">
        <ele>327.6015625</ele>
        <time>2022-03-26T09:12:31Z</time>
      </trkpt>
      <trkpt lat="43.26503" lon="5.60632">
        <ele>330.26171875</ele>
        <time>2022-03-26T09:12:44Z</time>
      </trkpt>
      <trkpt lat="43.26503" lon="5.60666">
        <ele>332.29296875</ele>
        <time>2022-03-26T09:12:57Z</time>
      </trkpt>
      <trkpt lat="43.26504" lon="5.60695">
        <ele>333.87109375</ele>
        <time>2022-03-26T09:13:08Z</time>
      </trkpt>
      <trkpt lat="43.26504" lon="5.60698">
        <ele>334.19140625</ele>
        <time>2022-03-26T09:13:09Z</time>
      </trkpt>
      <trkpt lat="43.26504" lon="5.607">
        <ele>334.3828125</ele>
        <time>2022-03-26T09:13:10Z</time>
      </trkpt>
      <trkpt lat="43.26504" lon="5.60705">
        <ele>334.65625</ele>
        <time>2022-03-26T09:13:12Z</time>
      </trkpt>
      <trkpt lat="43.26504" lon="5.60708">
        <ele>334.91796875</ele>
        <time>2022-03-26T09:13:13Z</time>
      </trkpt>
      <trkpt lat="43.26497" lon="5.60738">
        <ele>336.24609375</ele>
        <time>2022-03-26T09:13:24Z</time>
      </trkpt>
      <trkpt lat="43.26498" lon="5.60773">
        <ele>338.2734375</ele>
        <time>2022-03-26T09:13:37Z</time>
      </trkpt>
      <trkpt lat="43.26502" lon="5.60783">
        <ele>338.53515625</ele>
        <time>2022-03-26T09:13:41Z</time>
      </trkpt>
      <trkpt lat="43.26502" lon="5.60786">
        <ele>338.64453125</ele>
        <time>2022-03-26T09:13:42Z</time>
      </trkpt>
      <trkpt lat="43.26502" lon="5.60788">
        <ele>338.7265625</ele>
        <time>2022-03-26T09:13:43Z</time>
      </trkpt>
      <trkpt lat="43.26501" lon="5.60819">
        <ele>339.91015625</ele>
        <time>2022-03-26T09:13:54Z</time>
      </trkpt>
      <trkpt lat="43.26502" lon="5.60824">
        <ele>340.078125</ele>
        <time>2022-03-26T09:13:56Z</time>
      </trkpt>
      <trkpt lat="43.26502" lon="5.60826">
        <ele>340.15234375</ele>
        <time>2022-03-26T09:13:57Z</time>
      </trkpt>
      <trkpt lat="43.26513" lon="5.60829">
        <ele>342.4765625</ele>
        <time>2022-03-26T09:14:09Z</time>
      </trkpt>
      <trkpt lat="43.26516" lon="5.60837">
        <ele>343.2421875</ele>
        <time>2022-03-26T09:14:28Z</time>
      </trkpt>
      <trkpt lat="43.26516" lon="5.60839">
        <ele>343.35546875</ele>
        <time>2022-03-26T09:14:29Z</time>
      </trkpt>
      <trkpt lat="43.2652" lon="5.60855">
        <ele>344.51953125</ele>
        <time>2022-03-26T09:14:38Z</time>
      </trkpt>
      <trkpt lat="43.2652" lon="5.60857">
        <ele>344.5859375</ele>
        <time>2022-03-26T09:14:39Z</time>
      </trkpt>
      <trkpt lat="43.26522" lon="5.60874">
        <ele>345.19140625</ele>
        <time>2022-03-26T09:14:45Z</time>
      </trkpt>
      <trkpt lat="43.26521" lon="5.60877">
        <ele>345.265625</ele>
        <time>2022-03-26T09:14:46Z</time>
      </trkpt>
      <trkpt lat="43.26525" lon="5.6089">
        <ele>345.74609375</ele>
        <time>2022-03-26T09:14:51Z</time>
      </trkpt>
      <trkpt lat="43.26527" lon="5.60892">
        <ele>345.83203125</ele>
        <time>2022-03-26T09:14:52Z</time>
      </trkpt>
      <trkpt lat="43.26528" lon="5.60895">
        <ele>345.8984375</ele>
        <time>2022-03-26T09:14:53Z</time>
      </trkpt>
      <trkpt lat="43.2654" lon="5.60938">
        <ele>347.4140625</ele>
        <time>2022-03-26T09:15:08Z</time>
      </trkpt>
      <trkpt lat="43.26542" lon="5.6094">
        <ele>347.51953125</ele>
        <time>2022-03-26T09:15:09Z</time>
      </trkpt>
      <trkpt lat="43.2656" lon="5.60965">
        <ele>347.5078125</ele>
        <time>2022-03-26T09:15:20Z</time>
      </trkpt>
      <trkpt lat="43.26562" lon="5.60967">
        <ele>348.18359375</ele>
        <time>2022-03-26T09:15:21Z</time>
      </trkpt>
      <trkpt lat="43.26564" lon="5.60969">
        <ele>348.8203125</ele>
        <time>2022-03-26T09:15:22Z</time>
      </trkpt>
      <trkpt lat="43.26566" lon="5.60971">
        <ele>349.4765625</ele>
        <time>2022-03-26T09:15:23Z</time>
      </trkpt>
      <trkpt lat="43.26567" lon="5.60973">
        <ele>350.06640625</ele>
        <time>2022-03-26T09:15:24Z</time>
      </trkpt>
      <trkpt lat="43.26569" lon="5.60974">
        <ele>350.484375</ele>
        <time>2022-03-26T09:15:25Z</time>
      </trkpt>
      <trkpt lat="43.2657" lon="5.60977">
        <ele>350.7890625</ele>
        <time>2022-03-26T09:15:26Z</time>
      </trkpt>
      <trkpt lat="43.26573" lon="5.60985">
        <ele>351.765625</ele>
        <time>2022-03-26T09:15:30Z</time>
      </trkpt>
      <trkpt lat="43.26573" lon="5.60988">
        <ele>351.66015625</ele>
        <time>2022-03-26T09:15:31Z</time>
      </trkpt>
      <trkpt lat="43.26572" lon="5.6099">
        <ele>351.51171875</ele>
        <time>2022-03-26T09:15:32Z</time>
      </trkpt>
      <trkpt lat="43.26572" lon="5.60993">
        <ele>351.484375</ele>
        <time>2022-03-26T09:15:33Z</time>
      </trkpt>
      <trkpt lat="43.26572" lon="5.60996">
        <ele>351.5234375</ele>
        <time>2022-03-26T09:15:34Z</time>
      </trkpt>
      <trkpt lat="43.26573" lon="5.61024">
        <ele>352.51171875</ele>
        <time>2022-03-26T09:15:46Z</time>
      </trkpt>
      <trkpt lat="43.26571" lon="5.61056">
        <ele>353.74609375</ele>
        <time>2022-03-26T09:15:58Z</time>
      </trkpt>
      <trkpt lat="43.26573" lon="5.61069">
        <ele>354.84765625</ele>
        <time>2022-03-26T09:16:09Z</time>
      </trkpt>
      <trkpt lat="43.26578" lon="5.61073">
        <ele>355.78515625</ele>
        <time>2022-03-26T09:16:30Z</time>
      </trkpt>
      <trkpt lat="43.2658" lon="5.61078">
        <ele>356.25390625</ele>
        <time>2022-03-26T09:16:34Z</time>
      </trkpt>
      <trkpt lat="43.26581" lon="5.61081">
        <ele>356.4140625</ele>
        <time>2022-03-26T09:16:35Z</time>
      </trkpt>
      <trkpt lat="43.26581" lon="5.61086">
        <ele>356.60546875</ele>
        <time>2022-03-26T09:16:37Z</time>
      </trkpt>
      <trkpt lat="43.2658" lon="5.61088">
        <ele>356.66796875</ele>
        <time>2022-03-26T09:16:38Z</time>
      </trkpt>
      <trkpt lat="43.2658" lon="5.61091">
        <ele>356.70703125</ele>
        <time>2022-03-26T09:16:39Z</time>
      </trkpt>
      <trkpt lat="43.2658" lon="5.61116">
        <ele>357.6875</ele>
        <time>2022-03-26T09:16:48Z</time>
      </trkpt>
      <trkpt lat="43.26581" lon="5.61119">
        <ele>357.94921875</ele>
        <time>2022-03-26T09:16:49Z</time>
      </trkpt>
      <trkpt lat="43.26582" lon="5.61121">
        <ele>358.20703125</ele>
        <time>2022-03-26T09:16:50Z</time>
      </trkpt>
      <trkpt lat="43.26588" lon="5.61153">
        <ele>360.04296875</ele>
        <time>2022-03-26T09:17:01Z</time>
      </trkpt>
      <trkpt lat="43.26588" lon="5.61156">
        <ele>360.19921875</ele>
        <time>2022-03-26T09:17:02Z</time>
      </trkpt>
      <trkpt lat="43.2659" lon="5.61178">
        <ele>361.0859375</ele>
        <time>2022-03-26T09:17:09Z</time>
      </trkpt>
      <trkpt lat="43.26591" lon="5.61181">
        <ele>361.21484375</ele>
        <time>2022-03-26T09:17:10Z</time>
      </trkpt>
      <trkpt lat="43.26591" lon="5.61184">
        <ele>361.328125</ele>
        <time>2022-03-26T09:17:11Z</time>
      </trkpt>
      <trkpt lat="43.26593" lon="5.61191">
        <ele>361.578125</ele>
        <time>2022-03-26T09:17:14Z</time>
      </trkpt>
      <trkpt lat="43.26601" lon="5.61214">
        <ele>362.015625</ele>
        <time>2022-03-26T09:17:25Z</time>
      </trkpt>
      <trkpt lat="43.26607" lon="5.61228">
        <ele>362.125</ele>
        <time>2022-03-26T09:17:33Z</time>
      </trkpt>
      <trkpt lat="43.26607" lon="5.61231">
        <ele>362.14453125</ele>
        <time>2022-03-26T09:17:34Z</time>
      </trkpt>
      <trkpt lat="43.26607" lon="5.61246">
        <ele>362.32421875</ele>
        <time>2022-03-26T09:17:43Z</time>
      </trkpt>
      <trkpt lat="43.26611" lon="5.61257">
        <ele>362.23828125</ele>
        <time>2022-03-26T09:18:07Z</time>
      </trkpt>
      <trkpt lat="43.26617" lon="5.61258">
        <ele>362.3671875</ele>
        <time>2022-03-26T09:18:32Z</time>
      </trkpt>
      <trkpt lat="43.26619" lon="5.61259">
        <ele>362.49609375</ele>
        <time>2022-03-26T09:18:35Z</time>
      </trkpt>
      <trkpt lat="43.2662" lon="5.61261">
        <ele>362.58203125</ele>
        <time>2022-03-26T09:18:36Z</time>
      </trkpt>
      <trkpt lat="43.26622" lon="5.61264">
        <ele>362.6796875</ele>
        <time>2022-03-26T09:18:38Z</time>
      </trkpt>
      <trkpt lat="43.26623" lon="5.61266">
        <ele>362.70703125</ele>
        <time>2022-03-26T09:18:39Z</time>
      </trkpt>
      <trkpt lat="43.26624" lon="5.61268">
        <ele>362.7265625</ele>
        <time>2022-03-26T09:18:40Z</time>
      </trkpt>
      <trkpt lat="43.26624" lon="5.6127">
        <ele>362.7578125</ele>
        <time>2022-03-26T09:18:41Z</time>
      </trkpt>
      <trkpt lat="43.26625" lon="5.61272">
        <ele>362.83984375</ele>
        <time>2022-03-26T09:18:42Z</time>
      </trkpt>
      <trkpt lat="43.26626" lon="5.61275">
        <ele>362.91796875</ele>
        <time>2022-03-26T09:18:43Z</time>
      </trkpt>
      <trkpt lat="43.26627" lon="5.61278">
        <ele>362.9765625</ele>
        <time>2022-03-26T09:18:44Z</time>
      </trkpt>
      <trkpt lat="43.26641" lon="5.61312">
        <ele>363.015625</ele>
        <time>2022-03-26T09:18:57Z</time>
      </trkpt>
      <trkpt lat="43.2665" lon="5.61348">
        <ele>365.39453125</ele>
        <time>2022-03-26T09:19:07Z</time>
      </trkpt>
      <trkpt lat="43.26652" lon="5.6135">
        <ele>365.64453125</ele>
        <time>2022-03-26T09:19:08Z</time>
      </trkpt>
      <trkpt lat="43.26653" lon="5.61353">
        <ele>365.859375</ele>
        <time>2022-03-26T09:19:09Z</time>
      </trkpt>
      <trkpt lat="43.26654" lon="5.61356">
        <ele>366.12890625</ele>
        <time>2022-03-26T09:19:10Z</time>
      </trkpt>
      <trkpt lat="43.26656" lon="5.6136">
        <ele>366.40234375</ele>
        <time>2022-03-26T09:19:11Z</time>
      </trkpt>
      <trkpt lat="43.26668" lon="5.6141">
        <ele>370.10546875</ele>
        <time>2022-03-26T09:19:26Z</time>
      </trkpt>
      <trkpt lat="43.26677" lon="5.61442">
        <ele>373.3125</ele>
        <time>2022-03-26T09:19:37Z</time>
      </trkpt>
      <trkpt lat="43.26679" lon="5.61446">
        <ele>373.8359375</ele>
        <time>2022-03-26T09:19:49Z</time>
      </trkpt>
      <trkpt lat="43.26682" lon="5.61446">
        <ele>374.09765625</ele>
        <time>2022-03-26T09:20:13Z</time>
      </trkpt>
      <trkpt lat="43.26683" lon="5.61446">
        <ele>374.23828125</ele>
        <time>2022-03-26T09:20:14Z</time>
      </trkpt>
      <trkpt lat="43.26685" lon="5.61445">
        <ele>374.37890625</ele>
        <time>2022-03-26T09:20:15Z</time>
      </trkpt>
      <trkpt lat="43.26702" lon="5.61417">
        <ele>376.18359375</ele>
        <time>2022-03-26T09:20:28Z</time>
      </trkpt>
      <trkpt lat="43.26714" lon="5.614">
        <ele>379.6328125</ele>
        <time>2022-03-26T09:20:37Z</time>
      </trkpt>
      <trkpt lat="43.26716" lon="5.61402">
        <ele>380.3125</ele>
        <time>2022-03-26T09:20:38Z</time>
      </trkpt>
      <trkpt lat="43.26717" lon="5.61404">
        <ele>380.875</ele>
        <time>2022-03-26T09:20:39Z</time>
      </trkpt>
      <trkpt lat="43.26718" lon="5.61406">
        <ele>381.328125</ele>
        <time>2022-03-26T09:20:40Z</time>
      </trkpt>
      <trkpt lat="43.26718" lon="5.61409">
        <ele>381.68359375</ele>
        <time>2022-03-26T09:20:41Z</time>
      </trkpt>
      <trkpt lat="43.26719" lon="5.61412">
        <ele>381.90234375</ele>
        <time>2022-03-26T09:20:42Z</time>
      </trkpt>
      <trkpt lat="43.26719" lon="5.61414">
        <ele>382.140625</ele>
        <time>2022-03-26T09:20:43Z</time>
      </trkpt>
      <trkpt lat="43.2672" lon="5.61417">
        <ele>382.43359375</ele>
        <time>2022-03-26T09:20:44Z</time>
      </trkpt>
      <trkpt lat="43.2672" lon="5.61419">
        <ele>382.7578125</ele>
        <time>2022-03-26T09:20:45Z</time>
      </trkpt>
      <trkpt lat="43.26722" lon="5.61421">
        <ele>383.26171875</ele>
        <time>2022-03-26T09:20:46Z</time>
      </trkpt>
      <trkpt lat="43.26723" lon="5.61423">
        <ele>383.71875</ele>
        <time>2022-03-26T09:20:47Z</time>
      </trkpt>
      <trkpt lat="43.26723" lon="5.61426">
        <ele>383.9375</ele>
        <time>2022-03-26T09:20:48Z</time>
      </trkpt>
      <trkpt lat="43.26723" lon="5.61428">
        <ele>384.1015625</ele>
        <time>2022-03-26T09:20:49Z</time>
      </trkpt>
      <trkpt lat="43.26723" lon="5.61431">
        <ele>384.2265625</ele>
        <time>2022-03-26T09:20:50Z</time>
      </trkpt>
      <trkpt lat="43.26723" lon="5.61433">
        <ele>384.296875</ele>
        <time>2022-03-26T09:20:51Z</time>
      </trkpt>
      <trkpt lat="43.26724" lon="5.61435">
        <ele>384.4921875</ele>
        <time>2022-03-26T09:20:52Z</time>
      </trkpt>
      <trkpt lat="43.26724" lon="5.61437">
        <ele>384.73046875</ele>
        <time>2022-03-26T09:20:53Z</time>
      </trkpt>
      <trkpt lat="43.26724" lon="5.61439">
        <ele>384.80078125</ele>
        <time>2022-03-26T09:21:04Z</time>
      </trkpt>
      <trkpt lat="43.26725" lon="5.6144">
        <ele>385.0859375</ele>
        <time>2022-03-26T09:21:21Z</time>
      </trkpt>
      <trkpt lat="43.26725" lon="5.61445">
        <ele>385.29296875</ele>
        <time>2022-03-26T09:21:37Z</time>
      </trkpt>
      <trkpt lat="43.26724" lon="5.61451">
        <ele>385.2890625</ele>
        <time>2022-03-26T09:21:40Z</time>
      </trkpt>
      <trkpt lat="43.26719" lon="5.61487">
        <ele>385.8828125</ele>
        <time>2022-03-26T09:21:52Z</time>
      </trkpt>
      <trkpt lat="43.26714" lon="5.61532">
        <ele>386.75390625</ele>
        <time>2022-03-26T09:22:05Z</time>
      </trkpt>
      <trkpt lat="43.26719" lon="5.61547">
        <ele>388.765625</ele>
        <time>2022-03-26T09:22:11Z</time>
      </trkpt>
      <trkpt lat="43.26719" lon="5.6156">
        <ele>390.09765625</ele>
        <time>2022-03-26T09:22:16Z</time>
      </trkpt>
      <trkpt lat="43.26717" lon="5.61562">
        <ele>389.98828125</ele>
        <time>2022-03-26T09:22:17Z</time>
      </trkpt>
      <trkpt lat="43.26715" lon="5.61564">
        <ele>389.84765625</ele>
        <time>2022-03-26T09:22:18Z</time>
      </trkpt>
      <trkpt lat="43.26714" lon="5.61566">
        <ele>389.625</ele>
        <time>2022-03-26T09:22:19Z</time>
      </trkpt>
      <trkpt lat="43.26712" lon="5.61568">
        <ele>389.46875</ele>
        <time>2022-03-26T09:22:20Z</time>
      </trkpt>
      <trkpt lat="43.2671" lon="5.6157">
        <ele>389.3203125</ele>
        <time>2022-03-26T09:22:21Z</time>
      </trkpt>
      <trkpt lat="43.26699" lon="5.61596">
        <ele>389.6015625</ele>
        <time>2022-03-26T09:22:31Z</time>
      </trkpt>
      <trkpt lat="43.267" lon="5.61598">
        <ele>389.9453125</ele>
        <time>2022-03-26T09:22:32Z</time>
      </trkpt>
      <trkpt lat="43.26701" lon="5.61599">
        <ele>390.34375</ele>
        <time>2022-03-26T09:22:33Z</time>
      </trkpt>
      <trkpt lat="43.26702" lon="5.61601">
        <ele>390.796875</ele>
        <time>2022-03-26T09:22:34Z</time>
      </trkpt>
      <trkpt lat="43.26705" lon="5.61602">
        <ele>391.28125</ele>
        <time>2022-03-26T09:22:35Z</time>
      </trkpt>
      <trkpt lat="43.26707" lon="5.61601">
        <ele>391.71484375</ele>
        <time>2022-03-26T09:22:36Z</time>
      </trkpt>
      <trkpt lat="43.26709" lon="5.61601">
        <ele>392.09375</ele>
        <time>2022-03-26T09:22:37Z</time>
      </trkpt>
      <trkpt lat="43.26733" lon="5.61605">
        <ele>396.95703125</ele>
        <time>2022-03-26T09:22:48Z</time>
      </trkpt>
      <trkpt lat="43.26735" lon="5.61607">
        <ele>397.44140625</ele>
        <time>2022-03-26T09:22:49Z</time>
      </trkpt>
      <trkpt lat="43.26737" lon="5.61608">
        <ele>397.921875</ele>
        <time>2022-03-26T09:22:50Z</time>
      </trkpt>
      <trkpt lat="43.26739" lon="5.61608">
        <ele>398.34375</ele>
        <time>2022-03-26T09:22:51Z</time>
      </trkpt>
      <trkpt lat="43.26741" lon="5.61607">
        <ele>398.765625</ele>
        <time>2022-03-26T09:22:52Z</time>
      </trkpt>
      <trkpt lat="43.26743" lon="5.61607">
        <ele>399.22265625</ele>
        <time>2022-03-26T09:22:53Z</time>
      </trkpt>
      <trkpt lat="43.26745" lon="5.61608">
        <ele>399.6875</ele>
        <time>2022-03-26T09:22:54Z</time>
      </trkpt>
      <trkpt lat="43.26746" lon="5.6161">
        <ele>400.14453125</ele>
        <time>2022-03-26T09:22:55Z</time>
      </trkpt>
      <trkpt lat="43.26747" lon="5.61611">
        <ele>400.55078125</ele>
        <time>2022-03-26T09:22:56Z</time>
      </trkpt>
      <trkpt lat="43.26749" lon="5.61613">
        <ele>400.9375</ele>
        <time>2022-03-26T09:22:57Z</time>
      </trkpt>
      <trkpt lat="43.26749" lon="5.61615">
        <ele>401.17578125</ele>
        <time>2022-03-26T09:22:58Z</time>
      </trkpt>
      <trkpt lat="43.2675" lon="5.61614">
        <ele>401.23046875</ele>
        <time>2022-03-26T09:23:09Z</time>
      </trkpt>
      <trkpt lat="43.26749" lon="5.61612">
        <ele>400.953125</ele>
        <time>2022-03-26T09:23:27Z</time>
      </trkpt>
      <trkpt lat="43.26749" lon="5.61613">
        <ele>401.046875</ele>
        <time>2022-03-26T09:23:29Z</time>
      </trkpt>
      <trkpt lat="43.26749" lon="5.61616">
        <ele>401.23828125</ele>
        <time>2022-03-26T09:23:51Z</time>
      </trkpt>
      <trkpt lat="43.26747" lon="5.61615">
        <ele>400.7890625</ele>
        <time>2022-03-26T09:24:32Z</time>
      </trkpt>
      <trkpt lat="43.26748" lon="5.61618">
        <ele>401.15234375</ele>
        <time>2022-03-26T09:24:51Z</time>
      </trkpt>
      <trkpt lat="43.26742" lon="5.61639">
        <ele>401.4296875</ele>
        <time>2022-03-26T09:25:01Z</time>
      </trkpt>
      <trkpt lat="43.26727" lon="5.61683">
        <ele>400.2890625</ele>
        <time>2022-03-26T09:25:15Z</time>
      </trkpt>
      <trkpt lat="43.26726" lon="5.61711">
        <ele>401.14453125</ele>
        <time>2022-03-26T09:25:23Z</time>
      </trkpt>
      <trkpt lat="43.26727" lon="5.61712">
        <ele>401.40234375</ele>
        <time>2022-03-26T09:25:24Z</time>
      </trkpt>
      <trkpt lat="43.26728" lon="5.61712">
        <ele>401.61328125</ele>
        <time>2022-03-26T09:25:25Z</time>
      </trkpt>
      <trkpt lat="43.2673" lon="5.61711">
        <ele>401.8046875</ele>
        <time>2022-03-26T09:25:26Z</time>
      </trkpt>
      <trkpt lat="43.26731" lon="5.6171">
        <ele>401.9375</ele>
        <time>2022-03-26T09:25:27Z</time>
      </trkpt>
      <trkpt lat="43.26731" lon="5.61708">
        <ele>402.00390625</ele>
        <time>2022-03-26T09:25:28Z</time>
      </trkpt>
      <trkpt lat="43.26733" lon="5.61703">
        <ele>402.18359375</ele>
        <time>2022-03-26T09:25:42Z</time>
      </trkpt>
      <trkpt lat="43.26739" lon="5.61689">
        <ele>403.125</ele>
        <time>2022-03-26T09:25:56Z</time>
      </trkpt>
      <trkpt lat="43.26753" lon="5.61659">
        <ele>405.21484375</ele>
        <time>2022-03-26T09:26:11Z</time>
      </trkpt>
      <trkpt lat="43.26773" lon="5.61625">
        <ele>409.18359375</ele>
        <time>2022-03-26T09:26:24Z</time>
      </trkpt>
      <trkpt lat="43.26774" lon="5.61623">
        <ele>409.58984375</ele>
        <time>2022-03-26T09:26:25Z</time>
      </trkpt>
      <trkpt lat="43.26776" lon="5.61621">
        <ele>409.81640625</ele>
        <time>2022-03-26T09:26:26Z</time>
      </trkpt>
      <trkpt lat="43.26788" lon="5.61586">
        <ele>411.49609375</ele>
        <time>2022-03-26T09:26:40Z</time>
      </trkpt>
      <trkpt lat="43.26797" lon="5.61573">
        <ele>414.0859375</ele>
        <time>2022-03-26T09:26:47Z</time>
      </trkpt>
      <trkpt lat="43.26804" lon="5.61566">
        <ele>416.484375</ele>
        <time>2022-03-26T09:26:54Z</time>
      </trkpt>
      <trkpt lat="43.26804" lon="5.61566">
        <ele>416.5625</ele>
        <time>2022-03-26T09:26:55Z</time>
      </trkpt>
      <trkpt lat="43.26807" lon="5.6156">
        <ele>417.70703125</ele>
        <time>2022-03-26T09:27:11Z</time>
      </trkpt>
      <trkpt lat="43.26814" lon="5.61553">
        <ele>419.82421875</ele>
        <time>2022-03-26T09:27:26Z</time>
      </trkpt>
      <trkpt lat="43.26815" lon="5.61553">
        <ele>420.19921875</ele>
        <time>2022-03-26T09:27:37Z</time>
      </trkpt>
      <trkpt lat="43.26818" lon="5.61549">
        <ele>421.1640625</ele>
        <time>2022-03-26T09:27:49Z</time>
      </trkpt>
      <trkpt lat="43.26824" lon="5.61546">
        <ele>423.125</ele>
        <time>2022-03-26T09:28:04Z</time>
      </trkpt>
      <trkpt lat="43.26825" lon="5.61545">
        <ele>423.51953125</ele>
        <time>2022-03-26T09:28:06Z</time>
      </trkpt>
      <trkpt lat="43.2683" lon="5.61543">
        <ele>425.1875</ele>
        <time>2022-03-26T09:28:20Z</time>
      </trkpt>
      <trkpt lat="43.26834" lon="5.6154">
        <ele>426.265625</ele>
        <time>2022-03-26T09:28:32Z</time>
      </trkpt>
      <trkpt lat="43.2684" lon="5.61536">
        <ele>428.25390625</ele>
        <time>2022-03-26T09:28:47Z</time>
      </trkpt>
      <trkpt lat="43.26848" lon="5.61531">
        <ele>430.96875</ele>
        <time>2022-03-26T09:29:06Z</time>
      </trkpt>
      <trkpt lat="43.26848" lon="5.61529">
        <ele>431.12890625</ele>
        <time>2022-03-26T09:29:07Z</time>
      </trkpt>
      <trkpt lat="43.26849" lon="5.61528">
        <ele>431.34375</ele>
        <time>2022-03-26T09:29:08Z</time>
      </trkpt>
      <trkpt lat="43.26852" lon="5.61521">
        <ele>432.1015625</ele>
        <time>2022-03-26T09:29:12Z</time>
      </trkpt>
      <trkpt lat="43.26858" lon="5.61504">
        <ele>434.30859375</ele>
        <time>2022-03-26T09:29:23Z</time>
      </trkpt>
      <trkpt lat="43.26866" lon="5.61488">
        <ele>436.67578125</ele>
        <time>2022-03-26T09:29:30Z</time>
      </trkpt>
      <trkpt lat="43.26867" lon="5.61484">
        <ele>437.18359375</ele>
        <time>2022-03-26T09:29:32Z</time>
      </trkpt>
      <trkpt lat="43.26871" lon="5.61468">
        <ele>438.29296875</ele>
        <time>2022-03-26T09:29:40Z</time>
      </trkpt>
      <trkpt lat="43.26872" lon="5.61463">
        <ele>438.56640625</ele>
        <time>2022-03-26T09:29:43Z</time>
      </trkpt>
      <trkpt lat="43.26875" lon="5.6145">
        <ele>439.890625</ele>
        <time>2022-03-26T09:29:49Z</time>
      </trkpt>
      <trkpt lat="43.26879" lon="5.6145">
        <ele>440.94921875</ele>
        <time>2022-03-26T09:29:58Z</time>
      </trkpt>
      <trkpt lat="43.26878" lon="5.61446">
        <ele>440.671875</ele>
        <time>2022-03-26T09:30:30Z</time>
      </trkpt>
      <trkpt lat="43.26879" lon="5.61448">
        <ele>440.82421875</ele>
        <time>2022-03-26T09:30:41Z</time>
      </trkpt>
      <trkpt lat="43.26878" lon="5.61448">
        <ele>440.671875</ele>
        <time>2022-03-26T09:30:47Z</time>
      </trkpt>
      <trkpt lat="43.26877" lon="5.61445">
        <ele>440.2578125</ele>
        <time>2022-03-26T09:31:14Z</time>
      </trkpt>
      <trkpt lat="43.26876" lon="5.61443">
        <ele>440.02734375</ele>
        <time>2022-03-26T09:31:31Z</time>
      </trkpt>
      <trkpt lat="43.26876" lon="5.61444">
        <ele>439.97265625</ele>
        <time>2022-03-26T09:31:54Z</time>
      </trkpt>
      <trkpt lat="43.26878" lon="5.61449">
        <ele>440.6875</ele>
        <time>2022-03-26T09:32:05Z</time>
      </trkpt>
      <trkpt lat="43.2688" lon="5.61452">
        <ele>441.1328125</ele>
        <time>2022-03-26T09:32:07Z</time>
      </trkpt>
      <trkpt lat="43.26888" lon="5.61484">
        <ele>443.80078125</ele>
        <time>2022-03-26T09:32:16Z</time>
      </trkpt>
      <trkpt lat="43.26888" lon="5.61516">
        <ele>444.63671875</ele>
        <time>2022-03-26T09:32:27Z</time>
      </trkpt>
      <trkpt lat="43.26897" lon="5.61558">
        <ele>449.1484375</ele>
        <time>2022-03-26T09:32:42Z</time>
      </trkpt>
      <trkpt lat="43.26902" lon="5.61585">
        <ele>451.4765625</ele>
        <time>2022-03-26T09:32:51Z</time>
      </trkpt>
      <trkpt lat="43.26903" lon="5.61589">
        <ele>451.99609375</ele>
        <time>2022-03-26T09:32:53Z</time>
      </trkpt>
      <trkpt lat="43.26905" lon="5.61614">
        <ele>453.55859375</ele>
        <time>2022-03-26T09:33:03Z</time>
      </trkpt>
      <trkpt lat="43.26904" lon="5.61616">
        <ele>453.4140625</ele>
        <time>2022-03-26T09:33:04Z</time>
      </trkpt>
      <trkpt lat="43.26904" lon="5.61618">
        <ele>453.23828125</ele>
        <time>2022-03-26T09:33:05Z</time>
      </trkpt>
      <trkpt lat="43.26903" lon="5.6162">
        <ele>452.9921875</ele>
        <time>2022-03-26T09:33:06Z</time>
      </trkpt>
      <trkpt lat="43.26902" lon="5.61622">
        <ele>452.77734375</ele>
        <time>2022-03-26T09:33:07Z</time>
      </trkpt>
      <trkpt lat="43.26902" lon="5.61625">
        <ele>452.734375</ele>
        <time>2022-03-26T09:33:08Z</time>
      </trkpt>
      <trkpt lat="43.26902" lon="5.61627">
        <ele>452.8046875</ele>
        <time>2022-03-26T09:33:09Z</time>
      </trkpt>
      <trkpt lat="43.26902" lon="5.6163">
        <ele>452.859375</ele>
        <time>2022-03-26T09:33:10Z</time>
      </trkpt>
      <trkpt lat="43.26902" lon="5.61632">
        <ele>452.9140625</ele>
        <time>2022-03-26T09:33:11Z</time>
      </trkpt>
      <trkpt lat="43.26902" lon="5.61635">
        <ele>453.0078125</ele>
        <time>2022-03-26T09:33:12Z</time>
      </trkpt>
      <trkpt lat="43.26902" lon="5.61638">
        <ele>453.06640625</ele>
        <time>2022-03-26T09:33:13Z</time>
      </trkpt>
      <trkpt lat="43.26901" lon="5.61667">
        <ele>452.8515625</ele>
        <time>2022-03-26T09:33:28Z</time>
      </trkpt>
      <trkpt lat="43.26902" lon="5.6167">
        <ele>453.0234375</ele>
        <time>2022-03-26T09:33:39Z</time>
      </trkpt>
      <trkpt lat="43.26902" lon="5.61668">
        <ele>453.0625</ele>
        <time>2022-03-26T09:33:53Z</time>
      </trkpt>
      <trkpt lat="43.26908" lon="5.61664">
        <ele>455.15625</ele>
        <time>2022-03-26T09:33:57Z</time>
      </trkpt>
      <trkpt lat="43.26915" lon="5.61658">
        <ele>457.6171875</ele>
        <time>2022-03-26T09:34:02Z</time>
      </trkpt>
      <trkpt lat="43.26916" lon="5.61656">
        <ele>458.0234375</ele>
        <time>2022-03-26T09:34:03Z</time>
      </trkpt>
      <trkpt lat="43.2692" lon="5.61652">
        <ele>459.3984375</ele>
        <time>2022-03-26T09:34:06Z</time>
      </trkpt>
      <trkpt lat="43.26934" lon="5.61631">
        <ele>463.68359375</ele>
        <time>2022-03-26T09:34:18Z</time>
      </trkpt>
      <trkpt lat="43.26936" lon="5.61626">
        <ele>464.4609375</ele>
        <time>2022-03-26T09:34:21Z</time>
      </trkpt>
      <trkpt lat="43.26939" lon="5.61622">
        <ele>465.546875</ele>
        <time>2022-03-26T09:34:24Z</time>
      </trkpt>
      <trkpt lat="43.26941" lon="5.61611">
        <ele>466.1484375</ele>
        <time>2022-03-26T09:34:29Z</time>
      </trkpt>
      <trkpt lat="43.26944" lon="5.61591">
        <ele>467.1015625</ele>
        <time>2022-03-26T09:34:41Z</time>
      </trkpt>
      <trkpt lat="43.26947" lon="5.61583">
        <ele>468.109375</ele>
        <time>2022-03-26T09:35:02Z</time>
      </trkpt>
      <trkpt lat="43.26951" lon="5.6158">
        <ele>468.953125</ele>
        <time>2022-03-26T09:35:14Z</time>
      </trkpt>
      <trkpt lat="43.26953" lon="5.61579">
        <ele>469.61328125</ele>
        <time>2022-03-26T09:35:25Z</time>
      </trkpt>
      <trkpt lat="43.2696" lon="5.61576">
        <ele>471.23046875</ele>
        <time>2022-03-26T09:35:38Z</time>
      </trkpt>
      <trkpt lat="43.26962" lon="5.61575">
        <ele>471.6875</ele>
        <time>2022-03-26T09:35:52Z</time>
      </trkpt>
      <trkpt lat="43.26962" lon="5.61575">
        <ele>471.71875</ele>
        <time>2022-03-26T09:36:15Z</time>
      </trkpt>
      <trkpt lat="43.26962" lon="5.61573">
        <ele>471.703125</ele>
        <time>2022-03-26T09:36:50Z</time>
      </trkpt>
      <trkpt lat="43.26965" lon="5.6157">
        <ele>472.51953125</ele>
        <time>2022-03-26T09:37:18Z</time>
      </trkpt>
      <trkpt lat="43.26968" lon="5.61571">
        <ele>473.34375</ele>
        <time>2022-03-26T09:37:35Z</time>
      </trkpt>
      <trkpt lat="43.26971" lon="5.61567">
        <ele>474.03125</ele>
        <time>2022-03-26T09:37:46Z</time>
      </trkpt>
      <trkpt lat="43.26972" lon="5.61565">
        <ele>474.16015625</ele>
        <time>2022-03-26T09:37:59Z</time>
      </trkpt>
      <trkpt lat="43.26973" lon="5.61563">
        <ele>474.5234375</ele>
        <time>2022-03-26T09:38:06Z</time>
      </trkpt>
      <trkpt lat="43.26974" lon="5.61561">
        <ele>474.90234375</ele>
        <time>2022-03-26T09:38:20Z</time>
      </trkpt>
      <trkpt lat="43.26976" lon="5.61562">
        <ele>474.82421875</ele>
        <time>2022-03-26T09:38:33Z</time>
      </trkpt>
      <trkpt lat="43.26979" lon="5.61561">
        <ele>474.48046875</ele>
        <time>2022-03-26T09:38:48Z</time>
      </trkpt>
      <trkpt lat="43.26981" lon="5.61562">
        <ele>474.2265625</ele>
        <time>2022-03-26T09:38:55Z</time>
      </trkpt>
      <trkpt lat="43.26981" lon="5.61563">
        <ele>474.2265625</ele>
        <time>2022-03-26T09:38:57Z</time>
      </trkpt>
      <trkpt lat="43.26983" lon="5.61562">
        <ele>473.94140625</ele>
        <time>2022-03-26T09:39:14Z</time>
      </trkpt>
      <trkpt lat="43.26987" lon="5.61557">
        <ele>473.40625</ele>
        <time>2022-03-26T09:39:26Z</time>
      </trkpt>
      <trkpt lat="43.26987" lon="5.61557">
        <ele>473.35546875</ele>
        <time>2022-03-26T09:39:27Z</time>
      </trkpt>
      <trkpt lat="43.26988" lon="5.61558">
        <ele>473.26171875</ele>
        <time>2022-03-26T09:39:35Z</time>
      </trkpt>
      <trkpt lat="43.2699" lon="5.61558">
        <ele>473</ele>
        <time>2022-03-26T09:39:53Z</time>
      </trkpt>
      <trkpt lat="43.26993" lon="5.61557">
        <ele>472.63671875</ele>
        <time>2022-03-26T09:40:06Z</time>
      </trkpt>
      <trkpt lat="43.26993" lon="5.61555">
        <ele>472.55859375</ele>
        <time>2022-03-26T09:40:19Z</time>
      </trkpt>
      <trkpt lat="43.26993" lon="5.61553">
        <ele>472.55078125</ele>
        <time>2022-03-26T09:40:34Z</time>
      </trkpt>
      <trkpt lat="43.26993" lon="5.61552">
        <ele>472.53125</ele>
        <time>2022-03-26T09:40:43Z</time>
      </trkpt>
      <trkpt lat="43.26994" lon="5.61553">
        <ele>472.40234375</ele>
        <time>2022-03-26T09:41:00Z</time>
      </trkpt>
      <trkpt lat="43.26996" lon="5.61552">
        <ele>472.1328125</ele>
        <time>2022-03-26T09:41:13Z</time>
      </trkpt>
      <trkpt lat="43.26998" lon="5.61551">
        <ele>471.8046875</ele>
        <time>2022-03-26T09:41:24Z</time>
      </trkpt>
      <trkpt lat="43.27002" lon="5.61549">
        <ele>471.15625</ele>
        <time>2022-03-26T09:41:40Z</time>
      </trkpt>
      <trkpt lat="43.27006" lon="5.61549">
        <ele>469.87890625</ele>
        <time>2022-03-26T09:41:53Z</time>
      </trkpt>
      <trkpt lat="43.27011" lon="5.61545">
        <ele>468.203125</ele>
        <time>2022-03-26T09:42:06Z</time>
      </trkpt>
      <trkpt lat="43.27012" lon="5.61543">
        <ele>467.6875</ele>
        <time>2022-03-26T09:42:19Z</time>
      </trkpt>
      <trkpt lat="43.27013" lon="5.61543">
        <ele>467.51953125</ele>
        <time>2022-03-26T09:42:26Z</time>
      </trkpt>
      <trkpt lat="43.27013" lon="5.61543">
        <ele>467.40625</ele>
        <time>2022-03-26T09:42:28Z</time>
      </trkpt>
      <trkpt lat="43.27014" lon="5.61542">
        <ele>466.98828125</ele>
        <time>2022-03-26T09:42:40Z</time>
      </trkpt>
      <trkpt lat="43.27016" lon="5.61538">
        <ele>466.328125</ele>
        <time>2022-03-26T09:42:51Z</time>
      </trkpt>
      <trkpt lat="43.27018" lon="5.61538">
        <ele>465.59375</ele>
        <time>2022-03-26T09:43:00Z</time>
      </trkpt>
      <trkpt lat="43.2702" lon="5.6154">
        <ele>465.11328125</ele>
        <time>2022-03-26T09:43:03Z</time>
      </trkpt>
      <trkpt lat="43.27021" lon="5.61543">
        <ele>464.8671875</ele>
        <time>2022-03-26T09:43:15Z</time>
      </trkpt>
      <trkpt lat="43.27021" lon="5.61543">
        <ele>464.97265625</ele>
        <time>2022-03-26T09:43:30Z</time>
      </trkpt>
      <trkpt lat="43.2702" lon="5.61543">
        <ele>465.109375</ele>
        <time>2022-03-26T09:43:32Z</time>
      </trkpt>
      <trkpt lat="43.2702" lon="5.61543">
        <ele>465.2578125</ele>
        <time>2022-03-26T09:43:49Z</time>
      </trkpt>
      <trkpt lat="43.27019" lon="5.61543">
        <ele>465.4921875</ele>
        <time>2022-03-26T09:44:28Z</time>
      </trkpt>
      <trkpt lat="43.27019" lon="5.61543">
        <ele>465.4609375</ele>
        <time>2022-03-26T09:44:34Z</time>
      </trkpt>
      <trkpt lat="43.2702" lon="5.61544">
        <ele>465.27734375</ele>
        <time>2022-03-26T09:45:02Z</time>
      </trkpt>
      <trkpt lat="43.2702" lon="5.61543">
        <ele>465.31640625</ele>
        <time>2022-03-26T09:45:07Z</time>
      </trkpt>
      <trkpt lat="43.2702" lon="5.61543">
        <ele>465.21484375</ele>
        <time>2022-03-26T09:45:11Z</time>
      </trkpt>
      <trkpt lat="43.27021" lon="5.61544">
        <ele>464.89453125</ele>
        <time>2022-03-26T09:45:56Z</time>
      </trkpt>
      <trkpt lat="43.27022" lon="5.61543">
        <ele>464.69921875</ele>
        <time>2022-03-26T09:46:07Z</time>
      </trkpt>
      <trkpt lat="43.27022" lon="5.61543">
        <ele>464.6953125</ele>
        <time>2022-03-26T09:46:09Z</time>
      </trkpt>
      <trkpt lat="43.27021" lon="5.61543">
        <ele>464.73828125</ele>
        <time>2022-03-26T09:46:11Z</time>
      </trkpt>
      <trkpt lat="43.2702" lon="5.61543">
        <ele>465.0625</ele>
        <time>2022-03-26T09:46:50Z</time>
      </trkpt>
      <trkpt lat="43.27021" lon="5.61544">
        <ele>465.00390625</ele>
        <time>2022-03-26T09:46:56Z</time>
      </trkpt>
      <trkpt lat="43.27021" lon="5.61543">
        <ele>465.02734375</ele>
        <time>2022-03-26T09:47:09Z</time>
      </trkpt>
      <trkpt lat="43.2702" lon="5.61544">
        <ele>465.30859375</ele>
        <time>2022-03-26T09:48:01Z</time>
      </trkpt>
      <trkpt lat="43.27021" lon="5.61543">
        <ele>465.03515625</ele>
        <time>2022-03-26T09:48:51Z</time>
      </trkpt>
      <trkpt lat="43.2702" lon="5.61542">
        <ele>465.015625</ele>
        <time>2022-03-26T09:49:32Z</time>
      </trkpt>
      <trkpt lat="43.2702" lon="5.61543">
        <ele>465.32421875</ele>
        <time>2022-03-26T09:49:45Z</time>
      </trkpt>
      <trkpt lat="43.27019" lon="5.61543">
        <ele>465.40234375</ele>
        <time>2022-03-26T09:49:46Z</time>
      </trkpt>
      <trkpt lat="43.2702" lon="5.61543">
        <ele>465.2265625</ele>
        <time>2022-03-26T09:49:53Z</time>
      </trkpt>
      <trkpt lat="43.27019" lon="5.61543">
        <ele>465.37109375</ele>
        <time>2022-03-26T09:49:56Z</time>
      </trkpt>
      <trkpt lat="43.27021" lon="5.61542">
        <ele>464.9609375</ele>
        <time>2022-03-26T09:50:12Z</time>
      </trkpt>
      <trkpt lat="43.27021" lon="5.61543">
        <ele>465.01953125</ele>
        <time>2022-03-26T09:50:34Z</time>
      </trkpt>
      <trkpt lat="43.27022" lon="5.61543">
        <ele>464.65234375</ele>
        <time>2022-03-26T09:51:09Z</time>
      </trkpt>
      <trkpt lat="43.27021" lon="5.61542">
        <ele>464.734375</ele>
        <time>2022-03-26T09:51:15Z</time>
      </trkpt>
      <trkpt lat="43.2702" lon="5.61542">
        <ele>465.13671875</ele>
        <time>2022-03-26T09:51:28Z</time>
      </trkpt>
      <trkpt lat="43.27019" lon="5.61542">
        <ele>465.3203125</ele>
        <time>2022-03-26T09:51:45Z</time>
      </trkpt>
      <trkpt lat="43.27019" lon="5.61543">
        <ele>465.5078125</ele>
        <time>2022-03-26T09:52:08Z</time>
      </trkpt>
      <trkpt lat="43.2702" lon="5.61541">
        <ele>465.13671875</ele>
        <time>2022-03-26T09:52:20Z</time>
      </trkpt>
      <trkpt lat="43.2702" lon="5.61541">
        <ele>465.18359375</ele>
        <time>2022-03-26T09:52:21Z</time>
      </trkpt>
      <trkpt lat="43.2702" lon="5.61541">
        <ele>465.0703125</ele>
        <time>2022-03-26T09:52:29Z</time>
      </trkpt>
      <trkpt lat="43.27021" lon="5.61541">
        <ele>464.80859375</ele>
        <time>2022-03-26T09:52:40Z</time>
      </trkpt>
      <trkpt lat="43.27019" lon="5.61541">
        <ele>465.48828125</ele>
        <time>2022-03-26T09:52:56Z</time>
      </trkpt>
      <trkpt lat="43.27018" lon="5.6154">
        <ele>465.65625</ele>
        <time>2022-03-26T09:53:16Z</time>
      </trkpt>
      <trkpt lat="43.27019" lon="5.6154">
        <ele>465.515625</ele>
        <time>2022-03-26T09:53:32Z</time>
      </trkpt>
      <trkpt lat="43.27018" lon="5.61539">
        <ele>465.6484375</ele>
        <time>2022-03-26T09:54:02Z</time>
      </trkpt>
      <trkpt lat="43.27018" lon="5.61539">
        <ele>465.63671875</ele>
        <time>2022-03-26T09:54:03Z</time>
      </trkpt>
      <trkpt lat="43.27018" lon="5.61539">
        <ele>465.6796875</ele>
        <time>2022-03-26T09:54:07Z</time>
      </trkpt>
      <trkpt lat="43.27018" lon="5.61539">
        <ele>465.6640625</ele>
        <time>2022-03-26T09:54:08Z</time>
      </trkpt>
      <trkpt lat="43.27018" lon="5.61539">
        <ele>465.63671875</ele>
        <time>2022-03-26T09:54:11Z</time>
      </trkpt>
      <trkpt lat="43.27018" lon="5.61539">
        <ele>465.609375</ele>
        <time>2022-03-26T09:54:21Z</time>
      </trkpt>
      <trkpt lat="43.27017" lon="5.61539">
        <ele>465.85546875</ele>
        <time>2022-03-26T09:54:47Z</time>
      </trkpt>
      <trkpt lat="43.27018" lon="5.61539">
        <ele>465.72265625</ele>
        <time>2022-03-26T09:55:23Z</time>
      </trkpt>
      <trkpt lat="43.27018" lon="5.61537">
        <ele>465.49609375</ele>
        <time>2022-03-26T09:55:30Z</time>
      </trkpt>
      <trkpt lat="43.27009" lon="5.61522">
        <ele>467.84765625</ele>
        <time>2022-03-26T09:55:36Z</time>
      </trkpt>
      <trkpt lat="43.27008" lon="5.61518">
        <ele>468.140625</ele>
        <time>2022-03-26T09:55:37Z</time>
      </trkpt>
      <trkpt lat="43.27004" lon="5.61517">
        <ele>469.6171875</ele>
        <time>2022-03-26T09:55:47Z</time>
      </trkpt>
      <trkpt lat="43.26998" lon="5.61517">
        <ele>470.796875</ele>
        <time>2022-03-26T09:56:00Z</time>
      </trkpt>
      <trkpt lat="43.26994" lon="5.61517">
        <ele>471.46875</ele>
        <time>2022-03-26T09:56:10Z</time>
      </trkpt>
      <trkpt lat="43.26992" lon="5.6151">
        <ele>471.82421875</ele>
        <time>2022-03-26T09:56:22Z</time>
      </trkpt>
      <trkpt lat="43.26992" lon="5.61504">
        <ele>471.84765625</ele>
        <time>2022-03-26T09:56:30Z</time>
      </trkpt>
      <trkpt lat="43.26993" lon="5.615">
        <ele>471.68359375</ele>
        <time>2022-03-26T09:56:34Z</time>
      </trkpt>
      <trkpt lat="43.27" lon="5.61488">
        <ele>470.38671875</ele>
        <time>2022-03-26T09:56:46Z</time>
      </trkpt>
      <trkpt lat="43.27" lon="5.61486">
        <ele>470.296875</ele>
        <time>2022-03-26T09:56:51Z</time>
      </trkpt>
      <trkpt lat="43.27" lon="5.61483">
        <ele>470.171875</ele>
        <time>2022-03-26T09:56:53Z</time>
      </trkpt>
      <trkpt lat="43.27003" lon="5.61474">
        <ele>469.37890625</ele>
        <time>2022-03-26T09:56:59Z</time>
      </trkpt>
      <trkpt lat="43.27" lon="5.61461">
        <ele>469.34375</ele>
        <time>2022-03-26T09:57:05Z</time>
      </trkpt>
      <trkpt lat="43.27002" lon="5.61453">
        <ele>468.4140625</ele>
        <time>2022-03-26T09:57:11Z</time>
      </trkpt>
      <trkpt lat="43.27" lon="5.6145">
        <ele>468.49609375</ele>
        <time>2022-03-26T09:57:13Z</time>
      </trkpt>
      <trkpt lat="43.26999" lon="5.6144">
        <ele>468.12890625</ele>
        <time>2022-03-26T09:57:17Z</time>
      </trkpt>
      <trkpt lat="43.26996" lon="5.61435">
        <ele>468.28515625</ele>
        <time>2022-03-26T09:57:19Z</time>
      </trkpt>
      <trkpt lat="43.27" lon="5.61421">
        <ele>466.50390625</ele>
        <time>2022-03-26T09:57:24Z</time>
      </trkpt>
      <trkpt lat="43.27002" lon="5.61415">
        <ele>465.640625</ele>
        <time>2022-03-26T09:57:27Z</time>
      </trkpt>
      <trkpt lat="43.27005" lon="5.61415">
        <ele>464.5</ele>
        <time>2022-03-26T09:57:29Z</time>
      </trkpt>
      <trkpt lat="43.27007" lon="5.61412">
        <ele>463.3515625</ele>
        <time>2022-03-26T09:57:31Z</time>
      </trkpt>
      <trkpt lat="43.27012" lon="5.61409">
        <ele>461.41015625</ele>
        <time>2022-03-26T09:57:38Z</time>
      </trkpt>
      <trkpt lat="43.27018" lon="5.6141">
        <ele>458.98046875</ele>
        <time>2022-03-26T09:57:43Z</time>
      </trkpt>
      <trkpt lat="43.27019" lon="5.6141">
        <ele>458.4765625</ele>
        <time>2022-03-26T09:57:46Z</time>
      </trkpt>
      <trkpt lat="43.2702" lon="5.61407">
        <ele>457.875</ele>
        <time>2022-03-26T09:57:52Z</time>
      </trkpt>
      <trkpt lat="43.27024" lon="5.61404">
        <ele>456.02734375</ele>
        <time>2022-03-26T09:58:09Z</time>
      </trkpt>
      <trkpt lat="43.2703" lon="5.61405">
        <ele>453.6875</ele>
        <time>2022-03-26T09:58:27Z</time>
      </trkpt>
      <trkpt lat="43.27037" lon="5.61407">
        <ele>449.296875</ele>
        <time>2022-03-26T09:58:31Z</time>
      </trkpt>
      <trkpt lat="43.27038" lon="5.61402">
        <ele>448.0234375</ele>
        <time>2022-03-26T09:58:33Z</time>
      </trkpt>
      <trkpt lat="43.27038" lon="5.61395">
        <ele>446.84375</ele>
        <time>2022-03-26T09:58:35Z</time>
      </trkpt>
      <trkpt lat="43.27039" lon="5.61389">
        <ele>445.6640625</ele>
        <time>2022-03-26T09:58:39Z</time>
      </trkpt>
      <trkpt lat="43.27046" lon="5.61386">
        <ele>441.109375</ele>
        <time>2022-03-26T09:58:43Z</time>
      </trkpt>
      <trkpt lat="43.27049" lon="5.61381">
        <ele>438.4296875</ele>
        <time>2022-03-26T09:59:03Z</time>
      </trkpt>
      <trkpt lat="43.27053" lon="5.61378">
        <ele>436.09765625</ele>
        <time>2022-03-26T09:59:20Z</time>
      </trkpt>
      <trkpt lat="43.2706" lon="5.61371">
        <ele>430.88671875</ele>
        <time>2022-03-26T09:59:24Z</time>
      </trkpt>
      <trkpt lat="43.27063" lon="5.61361">
        <ele>428.52734375</ele>
        <time>2022-03-26T09:59:27Z</time>
      </trkpt>
      <trkpt lat="43.27064" lon="5.61358">
        <ele>427.41796875</ele>
        <time>2022-03-26T09:59:28Z</time>
      </trkpt>
      <trkpt lat="43.2707" lon="5.61347">
        <ele>423.47265625</ele>
        <time>2022-03-26T09:59:31Z</time>
      </trkpt>
      <trkpt lat="43.27071" lon="5.61345">
        <ele>422.46875</ele>
        <time>2022-03-26T09:59:32Z</time>
      </trkpt>
      <trkpt lat="43.27073" lon="5.61332">
        <ele>420.2109375</ele>
        <time>2022-03-26T09:59:36Z</time>
      </trkpt>
      <trkpt lat="43.27074" lon="5.61324">
        <ele>418.515625</ele>
        <time>2022-03-26T09:59:38Z</time>
      </trkpt>
      <trkpt lat="43.27075" lon="5.61317">
        <ele>417.71484375</ele>
        <time>2022-03-26T09:59:40Z</time>
      </trkpt>
      <trkpt lat="43.27077" lon="5.613">
        <ele>414.90625</ele>
        <time>2022-03-26T09:59:44Z</time>
      </trkpt>
      <trkpt lat="43.27078" lon="5.61295">
        <ele>414.09375</ele>
        <time>2022-03-26T09:59:45Z</time>
      </trkpt>
      <trkpt lat="43.2708" lon="5.61286">
        <ele>412.0859375</ele>
        <time>2022-03-26T09:59:47Z</time>
      </trkpt>
      <trkpt lat="43.27081" lon="5.61278">
        <ele>410.77734375</ele>
        <time>2022-03-26T09:59:51Z</time>
      </trkpt>
      <trkpt lat="43.27087" lon="5.61268">
        <ele>406.4375</ele>
        <time>2022-03-26T09:59:56Z</time>
      </trkpt>
      <trkpt lat="43.27088" lon="5.61266">
        <ele>405.578125</ele>
        <time>2022-03-26T09:59:57Z</time>
      </trkpt>
      <trkpt lat="43.27089" lon="5.61251">
        <ele>404.09375</ele>
        <time>2022-03-26T10:00:01Z</time>
      </trkpt>
      <trkpt lat="43.27095" lon="5.61238">
        <ele>399.81640625</ele>
        <time>2022-03-26T10:00:03Z</time>
      </trkpt>
      <trkpt lat="43.27101" lon="5.61226">
        <ele>395.10546875</ele>
        <time>2022-03-26T10:00:06Z</time>
      </trkpt>
      <trkpt lat="43.27103" lon="5.61221">
        <ele>393.26953125</ele>
        <time>2022-03-26T10:00:14Z</time>
      </trkpt>
      <trkpt lat="43.27105" lon="5.6122">
        <ele>392.02734375</ele>
        <time>2022-03-26T10:00:17Z</time>
      </trkpt>
      <trkpt lat="43.27114" lon="5.61225">
        <ele>387.99609375</ele>
        <time>2022-03-26T10:00:22Z</time>
      </trkpt>
      <trkpt lat="43.27122" lon="5.61237">
        <ele>384.61328125</ele>
        <time>2022-03-26T10:00:28Z</time>
      </trkpt>
      <trkpt lat="43.27127" lon="5.61244">
        <ele>382.3359375</ele>
        <time>2022-03-26T10:00:32Z</time>
      </trkpt>
      <trkpt lat="43.27135" lon="5.61256">
        <ele>379.1640625</ele>
        <time>2022-03-26T10:00:38Z</time>
      </trkpt>
      <trkpt lat="43.27137" lon="5.61258">
        <ele>378.27734375</ele>
        <time>2022-03-26T10:00:40Z</time>
      </trkpt>
      <trkpt lat="43.27144" lon="5.61265">
        <ele>374.9140625</ele>
        <time>2022-03-26T10:00:44Z</time>
      </trkpt>
      <trkpt lat="43.27152" lon="5.61272">
        <ele>371.58203125</ele>
        <time>2022-03-26T10:00:48Z</time>
      </trkpt>
      <trkpt lat="43.27158" lon="5.61281">
        <ele>369.2734375</ele>
        <time>2022-03-26T10:01:02Z</time>
      </trkpt>
      <trkpt lat="43.27161" lon="5.61285">
        <ele>367.5390625</ele>
        <time>2022-03-26T10:01:04Z</time>
      </trkpt>
      <trkpt lat="43.27165" lon="5.61284">
        <ele>365.38671875</ele>
        <time>2022-03-26T10:01:06Z</time>
      </trkpt>
      <trkpt lat="43.27167" lon="5.61282">
        <ele>364.2421875</ele>
        <time>2022-03-26T10:01:07Z</time>
      </trkpt>
      <trkpt lat="43.27167" lon="5.6128">
        <ele>363.73828125</ele>
        <time>2022-03-26T10:01:08Z</time>
      </trkpt>
      <trkpt lat="43.27167" lon="5.61277">
        <ele>363.56640625</ele>
        <time>2022-03-26T10:01:09Z</time>
      </trkpt>
      <trkpt lat="43.27168" lon="5.61273">
        <ele>363.0078125</ele>
        <time>2022-03-26T10:01:10Z</time>
      </trkpt>
      <trkpt lat="43.27168" lon="5.61267">
        <ele>362.2265625</ele>
        <time>2022-03-26T10:01:11Z</time>
      </trkpt>
      <trkpt lat="43.27168" lon="5.6126">
        <ele>361.3828125</ele>
        <time>2022-03-26T10:01:12Z</time>
      </trkpt>
      <trkpt lat="43.27168" lon="5.61253">
        <ele>360.796875</ele>
        <time>2022-03-26T10:01:13Z</time>
      </trkpt>
      <trkpt lat="43.27168" lon="5.61247">
        <ele>360.015625</ele>
        <time>2022-03-26T10:01:14Z</time>
      </trkpt>
      <trkpt lat="43.27169" lon="5.61242">
        <ele>359.09375</ele>
        <time>2022-03-26T10:01:15Z</time>
      </trkpt>
      <trkpt lat="43.2717" lon="5.61236">
        <ele>358.05078125</ele>
        <time>2022-03-26T10:01:16Z</time>
      </trkpt>
      <trkpt lat="43.27171" lon="5.61231">
        <ele>356.84375</ele>
        <time>2022-03-26T10:01:17Z</time>
      </trkpt>
      <trkpt lat="43.27172" lon="5.61225">
        <ele>355.15625</ele>
        <time>2022-03-26T10:01:18Z</time>
      </trkpt>
      <trkpt lat="43.27174" lon="5.61219">
        <ele>353.17578125</ele>
        <time>2022-03-26T10:01:19Z</time>
      </trkpt>
      <trkpt lat="43.27176" lon="5.61212">
        <ele>351.3671875</ele>
        <time>2022-03-26T10:01:20Z</time>
      </trkpt>
      <trkpt lat="43.27179" lon="5.61199">
        <ele>347.66015625</ele>
        <time>2022-03-26T10:01:22Z</time>
      </trkpt>
      <trkpt lat="43.2718" lon="5.61192">
        <ele>346.01953125</ele>
        <time>2022-03-26T10:01:23Z</time>
      </trkpt>
      <trkpt lat="43.2718" lon="5.61186">
        <ele>344.62109375</ele>
        <time>2022-03-26T10:01:24Z</time>
      </trkpt>
      <trkpt lat="43.27181" lon="5.6118">
        <ele>343.5703125</ele>
        <time>2022-03-26T10:01:25Z</time>
      </trkpt>
      <trkpt lat="43.27182" lon="5.61175">
        <ele>342.2265625</ele>
        <time>2022-03-26T10:01:26Z</time>
      </trkpt>
      <trkpt lat="43.27182" lon="5.61167">
        <ele>340.65625</ele>
        <time>2022-03-26T10:01:27Z</time>
      </trkpt>
      <trkpt lat="43.27182" lon="5.61157">
        <ele>339.23828125</ele>
        <time>2022-03-26T10:01:28Z</time>
      </trkpt>
      <trkpt lat="43.27181" lon="5.61148">
        <ele>338.65625</ele>
        <time>2022-03-26T10:01:29Z</time>
      </trkpt>
      <trkpt lat="43.2718" lon="5.61141">
        <ele>338.6640625</ele>
        <time>2022-03-26T10:01:30Z</time>
      </trkpt>
      <trkpt lat="43.27178" lon="5.61136">
        <ele>339.25390625</ele>
        <time>2022-03-26T10:01:31Z</time>
      </trkpt>
      <trkpt lat="43.27176" lon="5.61133">
        <ele>339.515625</ele>
        <time>2022-03-26T10:01:32Z</time>
      </trkpt>
      <trkpt lat="43.27175" lon="5.61128">
        <ele>339.5859375</ele>
        <time>2022-03-26T10:01:33Z</time>
      </trkpt>
      <trkpt lat="43.27174" lon="5.61124">
        <ele>339.4765625</ele>
        <time>2022-03-26T10:01:34Z</time>
      </trkpt>
      <trkpt lat="43.27173" lon="5.61119">
        <ele>339.37109375</ele>
        <time>2022-03-26T10:01:35Z</time>
      </trkpt>
      <trkpt lat="43.27158" lon="5.61078">
        <ele>338.7578125</ele>
        <time>2022-03-26T10:01:43Z</time>
      </trkpt>
      <trkpt lat="43.27148" lon="5.61042">
        <ele>335.3203125</ele>
        <time>2022-03-26T10:01:48Z</time>
      </trkpt>
      <trkpt lat="43.27141" lon="5.61006">
        <ele>331.0234375</ele>
        <time>2022-03-26T10:01:52Z</time>
      </trkpt>
      <trkpt lat="43.27138" lon="5.60999">
        <ele>330.79296875</ele>
        <time>2022-03-26T10:01:53Z</time>
      </trkpt>
      <trkpt lat="43.27131" lon="5.60983">
        <ele>331.6953125</ele>
        <time>2022-03-26T10:02:00Z</time>
      </trkpt>
      <trkpt lat="43.27131" lon="5.60984">
        <ele>331.7578125</ele>
        <time>2022-03-26T10:02:28Z</time>
      </trkpt>
      <trkpt lat="43.27133" lon="5.60987">
        <ele>331.28515625</ele>
        <time>2022-03-26T10:02:31Z</time>
      </trkpt>
      <trkpt lat="43.27134" lon="5.60988">
        <ele>331.13671875</ele>
        <time>2022-03-26T10:02:32Z</time>
      </trkpt>
      <trkpt lat="43.27136" lon="5.60993">
        <ele>331.15234375</ele>
        <time>2022-03-26T10:02:34Z</time>
      </trkpt>
      <trkpt lat="43.27136" lon="5.60997">
        <ele>331.59375</ele>
        <time>2022-03-26T10:02:35Z</time>
      </trkpt>
      <trkpt lat="43.27137" lon="5.61">
        <ele>331.71875</ele>
        <time>2022-03-26T10:02:36Z</time>
      </trkpt>
      <trkpt lat="43.27138" lon="5.61002">
        <ele>331.73828125</ele>
        <time>2022-03-26T10:02:37Z</time>
      </trkpt>
      <trkpt lat="43.27139" lon="5.61005">
        <ele>331.8125</ele>
        <time>2022-03-26T10:02:38Z</time>
      </trkpt>
      <trkpt lat="43.27147" lon="5.61045">
        <ele>336.75</ele>
        <time>2022-03-26T10:02:53Z</time>
      </trkpt>
      <trkpt lat="43.27157" lon="5.61078">
        <ele>339.08203125</ele>
        <time>2022-03-26T10:03:07Z</time>
      </trkpt>
      <trkpt lat="43.27158" lon="5.61082">
        <ele>339.40625</ele>
        <time>2022-03-26T10:03:09Z</time>
      </trkpt>
      <trkpt lat="43.27159" lon="5.61084">
        <ele>339.37109375</ele>
        <time>2022-03-26T10:03:10Z</time>
      </trkpt>
      <trkpt lat="43.27171" lon="5.61112">
        <ele>338.98828125</ele>
        <time>2022-03-26T10:03:24Z</time>
      </trkpt>
      <trkpt lat="43.27182" lon="5.61151">
        <ele>338.66796875</ele>
        <time>2022-03-26T10:03:36Z</time>
      </trkpt>
      <trkpt lat="43.27178" lon="5.61164">
        <ele>343.38671875</ele>
        <time>2022-03-26T10:03:44Z</time>
      </trkpt>
      <trkpt lat="43.27176" lon="5.61164">
        <ele>344.09375</ele>
        <time>2022-03-26T10:03:45Z</time>
      </trkpt>
      <trkpt lat="43.27173" lon="5.61159">
        <ele>345.46484375</ele>
        <time>2022-03-26T10:04:00Z</time>
      </trkpt>
      <trkpt lat="43.2717" lon="5.61143">
        <ele>345.19921875</ele>
        <time>2022-03-26T10:04:17Z</time>
      </trkpt>
      <trkpt lat="43.27158" lon="5.6112">
        <ele>347.65234375</ele>
        <time>2022-03-26T10:04:32Z</time>
      </trkpt>
      <trkpt lat="43.27151" lon="5.61111">
        <ele>349.609375</ele>
        <time>2022-03-26T10:04:40Z</time>
      </trkpt>
      <trkpt lat="43.2715" lon="5.61109">
        <ele>349.7734375</ele>
        <time>2022-03-26T10:04:41Z</time>
      </trkpt>
      <trkpt lat="43.27149" lon="5.61108">
        <ele>349.91796875</ele>
        <time>2022-03-26T10:04:42Z</time>
      </trkpt>
      <trkpt lat="43.27138" lon="5.61094">
        <ele>352.58984375</ele>
        <time>2022-03-26T10:04:57Z</time>
      </trkpt>
      <trkpt lat="43.27128" lon="5.61076">
        <ele>353.875</ele>
        <time>2022-03-26T10:05:12Z</time>
      </trkpt>
      <trkpt lat="43.27115" lon="5.61054">
        <ele>355.1796875</ele>
        <time>2022-03-26T10:05:29Z</time>
      </trkpt>
      <trkpt lat="43.27107" lon="5.61041">
        <ele>356.09765625</ele>
        <time>2022-03-26T10:05:38Z</time>
      </trkpt>
      <trkpt lat="43.27107" lon="5.61039">
        <ele>356.19921875</ele>
        <time>2022-03-26T10:05:39Z</time>
      </trkpt>
      <trkpt lat="43.27095" lon="5.61016">
        <ele>357.05859375</ele>
        <time>2022-03-26T10:05:54Z</time>
      </trkpt>
      <trkpt lat="43.27084" lon="5.61">
        <ele>359.30078125</ele>
        <time>2022-03-26T10:06:06Z</time>
      </trkpt>
      <trkpt lat="43.27083" lon="5.60999">
        <ele>359.45703125</ele>
        <time>2022-03-26T10:06:07Z</time>
      </trkpt>
      <trkpt lat="43.27082" lon="5.60998">
        <ele>359.54296875</ele>
        <time>2022-03-26T10:06:08Z</time>
      </trkpt>
      <trkpt lat="43.27082" lon="5.60996">
        <ele>359.5625</ele>
        <time>2022-03-26T10:06:09Z</time>
      </trkpt>
      <trkpt lat="43.27081" lon="5.60995">
        <ele>359.640625</ele>
        <time>2022-03-26T10:06:10Z</time>
      </trkpt>
      <trkpt lat="43.2708" lon="5.60994">
        <ele>359.8515625</ele>
        <time>2022-03-26T10:06:11Z</time>
      </trkpt>
      <trkpt lat="43.27072" lon="5.60978">
        <ele>361.265625</ele>
        <time>2022-03-26T10:06:23Z</time>
      </trkpt>
      <trkpt lat="43.27072" lon="5.60977">
        <ele>361.3125</ele>
        <time>2022-03-26T10:06:24Z</time>
      </trkpt>
      <trkpt lat="43.27071" lon="5.60975">
        <ele>361.2109375</ele>
        <time>2022-03-26T10:06:25Z</time>
      </trkpt>
      <trkpt lat="43.2707" lon="5.6097">
        <ele>360.8828125</ele>
        <time>2022-03-26T10:06:28Z</time>
      </trkpt>
      <trkpt lat="43.2707" lon="5.60969">
        <ele>360.7734375</ele>
        <time>2022-03-26T10:06:29Z</time>
      </trkpt>
      <trkpt lat="43.27069" lon="5.60967">
        <ele>360.7890625</ele>
        <time>2022-03-26T10:06:30Z</time>
      </trkpt>
      <trkpt lat="43.27069" lon="5.60966">
        <ele>360.71484375</ele>
        <time>2022-03-26T10:06:31Z</time>
      </trkpt>
      <trkpt lat="43.27069" lon="5.60964">
        <ele>360.515625</ele>
        <time>2022-03-26T10:06:32Z</time>
      </trkpt>
      <trkpt lat="43.27069" lon="5.60963">
        <ele>360.45703125</ele>
        <time>2022-03-26T10:06:33Z</time>
      </trkpt>
      <trkpt lat="43.27068" lon="5.60961">
        <ele>360.67578125</ele>
        <time>2022-03-26T10:06:34Z</time>
      </trkpt>
      <trkpt lat="43.27065" lon="5.60938">
        <ele>361.90234375</ele>
        <time>2022-03-26T10:06:48Z</time>
      </trkpt>
      <trkpt lat="43.27066" lon="5.60912">
        <ele>363.7109375</ele>
        <time>2022-03-26T10:07:01Z</time>
      </trkpt>
      <trkpt lat="43.2708" lon="5.60892">
        <ele>359.890625</ele>
        <time>2022-03-26T10:07:17Z</time>
      </trkpt>
      <trkpt lat="43.27081" lon="5.60891">
        <ele>359.578125</ele>
        <time>2022-03-26T10:07:18Z</time>
      </trkpt>
      <trkpt lat="43.27083" lon="5.60889">
        <ele>358.9375</ele>
        <time>2022-03-26T10:07:20Z</time>
      </trkpt>
      <trkpt lat="43.27084" lon="5.60888">
        <ele>358.4921875</ele>
        <time>2022-03-26T10:07:21Z</time>
      </trkpt>
      <trkpt lat="43.27085" lon="5.60887">
        <ele>358.09765625</ele>
        <time>2022-03-26T10:07:22Z</time>
      </trkpt>
      <trkpt lat="43.27086" lon="5.60886">
        <ele>357.86328125</ele>
        <time>2022-03-26T10:07:23Z</time>
      </trkpt>
      <trkpt lat="43.27087" lon="5.60885">
        <ele>357.6796875</ele>
        <time>2022-03-26T10:07:24Z</time>
      </trkpt>
      <trkpt lat="43.27098" lon="5.60865">
        <ele>358.0859375</ele>
        <time>2022-03-26T10:07:38Z</time>
      </trkpt>
      <trkpt lat="43.27098" lon="5.6086">
        <ele>359.34765625</ele>
        <time>2022-03-26T10:07:42Z</time>
      </trkpt>
      <trkpt lat="43.27098" lon="5.60858">
        <ele>359.66796875</ele>
        <time>2022-03-26T10:07:43Z</time>
      </trkpt>
      <trkpt lat="43.27106" lon="5.60835">
        <ele>362.21875</ele>
        <time>2022-03-26T10:07:59Z</time>
      </trkpt>
      <trkpt lat="43.27107" lon="5.60831">
        <ele>362.6875</ele>
        <time>2022-03-26T10:08:01Z</time>
      </trkpt>
      <trkpt lat="43.27111" lon="5.60802">
        <ele>366.26953125</ele>
        <time>2022-03-26T10:08:16Z</time>
      </trkpt>
      <trkpt lat="43.27111" lon="5.60768">
        <ele>371.99609375</ele>
        <time>2022-03-26T10:08:30Z</time>
      </trkpt>
      <trkpt lat="43.27115" lon="5.60736">
        <ele>373.2890625</ele>
        <time>2022-03-26T10:08:42Z</time>
      </trkpt>
      <trkpt lat="43.2712" lon="5.60695">
        <ele>377.234375</ele>
        <time>2022-03-26T10:08:57Z</time>
      </trkpt>
      <trkpt lat="43.27123" lon="5.60646">
        <ele>382.96875</ele>
        <time>2022-03-26T10:09:12Z</time>
      </trkpt>
      <trkpt lat="43.27125" lon="5.60643">
        <ele>383.3359375</ele>
        <time>2022-03-26T10:09:13Z</time>
      </trkpt>
      <trkpt lat="43.27126" lon="5.60642">
        <ele>383.66796875</ele>
        <time>2022-03-26T10:09:14Z</time>
      </trkpt>
      <trkpt lat="43.27128" lon="5.60642">
        <ele>383.89453125</ele>
        <time>2022-03-26T10:09:15Z</time>
      </trkpt>
      <trkpt lat="43.2713" lon="5.60642">
        <ele>383.984375</ele>
        <time>2022-03-26T10:09:16Z</time>
      </trkpt>
      <trkpt lat="43.27131" lon="5.60644">
        <ele>383.98828125</ele>
        <time>2022-03-26T10:09:17Z</time>
      </trkpt>
      <trkpt lat="43.27132" lon="5.60645">
        <ele>383.890625</ele>
        <time>2022-03-26T10:09:18Z</time>
      </trkpt>
      <trkpt lat="43.27133" lon="5.60651">
        <ele>383.28125</ele>
        <time>2022-03-26T10:09:21Z</time>
      </trkpt>
      <trkpt lat="43.27138" lon="5.6066">
        <ele>382.59765625</ele>
        <time>2022-03-26T10:09:28Z</time>
      </trkpt>
      <trkpt lat="43.27139" lon="5.60663">
        <ele>382.125</ele>
        <time>2022-03-26T10:09:30Z</time>
      </trkpt>
      <trkpt lat="43.27143" lon="5.60669">
        <ele>381.66796875</ele>
        <time>2022-03-26T10:09:33Z</time>
      </trkpt>
      <trkpt lat="43.27144" lon="5.60673">
        <ele>381.3671875</ele>
        <time>2022-03-26T10:09:34Z</time>
      </trkpt>
      <trkpt lat="43.27144" lon="5.60677">
        <ele>380.74609375</ele>
        <time>2022-03-26T10:09:35Z</time>
      </trkpt>
      <trkpt lat="43.27144" lon="5.60682">
        <ele>380.1015625</ele>
        <time>2022-03-26T10:09:36Z</time>
      </trkpt>
      <trkpt lat="43.27146" lon="5.60689">
        <ele>379.1484375</ele>
        <time>2022-03-26T10:09:37Z</time>
      </trkpt>
      <trkpt lat="43.27147" lon="5.60703">
        <ele>377.34375</ele>
        <time>2022-03-26T10:09:39Z</time>
      </trkpt>
      <trkpt lat="43.27148" lon="5.60709">
        <ele>376.46484375</ele>
        <time>2022-03-26T10:09:40Z</time>
      </trkpt>
      <trkpt lat="43.2715" lon="5.60721">
        <ele>374.50390625</ele>
        <time>2022-03-26T10:09:43Z</time>
      </trkpt>
      <trkpt lat="43.27152" lon="5.60733">
        <ele>372.2734375</ele>
        <time>2022-03-26T10:09:45Z</time>
      </trkpt>
      <trkpt lat="43.27151" lon="5.60751">
        <ele>368.28125</ele>
        <time>2022-03-26T10:09:48Z</time>
      </trkpt>
      <trkpt lat="43.27152" lon="5.60762">
        <ele>365.921875</ele>
        <time>2022-03-26T10:09:51Z</time>
      </trkpt>
      <trkpt lat="43.27154" lon="5.60774">
        <ele>363.0703125</ele>
        <time>2022-03-26T10:09:53Z</time>
      </trkpt>
      <trkpt lat="43.27154" lon="5.60783">
        <ele>360.59375</ele>
        <time>2022-03-26T10:09:55Z</time>
      </trkpt>
      <trkpt lat="43.27154" lon="5.60791">
        <ele>358.72265625</ele>
        <time>2022-03-26T10:09:56Z</time>
      </trkpt>
      <trkpt lat="43.27145" lon="5.60817">
        <ele>353.8984375</ele>
        <time>2022-03-26T10:10:01Z</time>
      </trkpt>
      <trkpt lat="43.27142" lon="5.60821">
        <ele>353.765625</ele>
        <time>2022-03-26T10:10:02Z</time>
      </trkpt>
      <trkpt lat="43.27134" lon="5.6083">
        <ele>353.90234375</ele>
        <time>2022-03-26T10:10:04Z</time>
      </trkpt>
      <trkpt lat="43.27129" lon="5.60863">
        <ele>347.43359375</ele>
        <time>2022-03-26T10:10:08Z</time>
      </trkpt>
      <trkpt lat="43.27131" lon="5.60875">
        <ele>343.8515625</ele>
        <time>2022-03-26T10:10:09Z</time>
      </trkpt>
      <trkpt lat="43.27144" lon="5.60915">
        <ele>330.40234375</ele>
        <time>2022-03-26T10:10:18Z</time>
      </trkpt>
      <trkpt lat="43.27156" lon="5.60936">
        <ele>320.31640625</ele>
        <time>2022-03-26T10:10:31Z</time>
      </trkpt>
      <trkpt lat="43.27155" lon="5.60944">
        <ele>319.77734375</ele>
        <time>2022-03-26T10:10:33Z</time>
      </trkpt>
      <trkpt lat="43.27151" lon="5.60954">
        <ele>320.40234375</ele>
        <time>2022-03-26T10:10:35Z</time>
      </trkpt>
      <trkpt lat="43.2715" lon="5.60958">
        <ele>320.3046875</ele>
        <time>2022-03-26T10:10:36Z</time>
      </trkpt>
      <trkpt lat="43.27156" lon="5.60966">
        <ele>317.609375</ele>
        <time>2022-03-26T10:10:39Z</time>
      </trkpt>
      <trkpt lat="43.27157" lon="5.60967">
        <ele>316.90625</ele>
        <time>2022-03-26T10:10:40Z</time>
      </trkpt>
      <trkpt lat="43.27161" lon="5.60967">
        <ele>314.94140625</ele>
        <time>2022-03-26T10:10:43Z</time>
      </trkpt>
      <trkpt lat="43.27165" lon="5.60967">
        <ele>313.21484375</ele>
        <time>2022-03-26T10:10:46Z</time>
      </trkpt>
      <trkpt lat="43.27166" lon="5.60967">
        <ele>313.0234375</ele>
        <time>2022-03-26T10:10:47Z</time>
      </trkpt>
      <trkpt lat="43.27173" lon="5.60968">
        <ele>309.671875</ele>
        <time>2022-03-26T10:11:03Z</time>
      </trkpt>
      <trkpt lat="43.27175" lon="5.60968">
        <ele>308.6953125</ele>
        <time>2022-03-26T10:11:05Z</time>
      </trkpt>
      <trkpt lat="43.27184" lon="5.60969">
        <ele>304.23046875</ele>
        <time>2022-03-26T10:11:10Z</time>
      </trkpt>
      <trkpt lat="43.27192" lon="5.60969">
        <ele>300.58984375</ele>
        <time>2022-03-26T10:11:13Z</time>
      </trkpt>
      <trkpt lat="43.272" lon="5.60967">
        <ele>296.92578125</ele>
        <time>2022-03-26T10:11:16Z</time>
      </trkpt>
      <trkpt lat="43.27202" lon="5.60967">
        <ele>296.0390625</ele>
        <time>2022-03-26T10:11:17Z</time>
      </trkpt>
      <trkpt lat="43.2721" lon="5.60963">
        <ele>292.34765625</ele>
        <time>2022-03-26T10:11:21Z</time>
      </trkpt>
      <trkpt lat="43.27217" lon="5.60961">
        <ele>289.67578125</ele>
        <time>2022-03-26T10:11:23Z</time>
      </trkpt>
      <trkpt lat="43.27231" lon="5.6094">
        <ele>287.54296875</ele>
        <time>2022-03-26T10:11:28Z</time>
      </trkpt>
      <trkpt lat="43.27233" lon="5.60935">
        <ele>287.7421875</ele>
        <time>2022-03-26T10:11:29Z</time>
      </trkpt>
      <trkpt lat="43.27251" lon="5.60923">
        <ele>286.11328125</ele>
        <time>2022-03-26T10:11:33Z</time>
      </trkpt>
      <trkpt lat="43.27267" lon="5.60919">
        <ele>285.52734375</ele>
        <time>2022-03-26T10:11:36Z</time>
      </trkpt>
      <trkpt lat="43.27276" lon="5.60921">
        <ele>284.375</ele>
        <time>2022-03-26T10:11:39Z</time>
      </trkpt>
      <trkpt lat="43.27273" lon="5.60928">
        <ele>282.37109375</ele>
        <time>2022-03-26T10:11:42Z</time>
      </trkpt>
      <trkpt lat="43.27275" lon="5.60937">
        <ele>279.359375</ele>
        <time>2022-03-26T10:11:47Z</time>
      </trkpt>
      <trkpt lat="43.27286" lon="5.6094">
        <ele>277.984375</ele>
        <time>2022-03-26T10:11:51Z</time>
      </trkpt>
      <trkpt lat="43.27297" lon="5.60942">
        <ele>277.6796875</ele>
        <time>2022-03-26T10:11:55Z</time>
      </trkpt>
      <trkpt lat="43.273" lon="5.60944">
        <ele>276.953125</ele>
        <time>2022-03-26T10:11:56Z</time>
      </trkpt>
      <trkpt lat="43.27302" lon="5.6096">
        <ele>271.640625</ele>
        <time>2022-03-26T10:12:01Z</time>
      </trkpt>
      <trkpt lat="43.27298" lon="5.60968">
        <ele>269.296875</ele>
        <time>2022-03-26T10:12:04Z</time>
      </trkpt>
      <trkpt lat="43.27291" lon="5.60978">
        <ele>267.87890625</ele>
        <time>2022-03-26T10:12:06Z</time>
      </trkpt>
      <trkpt lat="43.27287" lon="5.60982">
        <ele>267.390625</ele>
        <time>2022-03-26T10:12:07Z</time>
      </trkpt>
      <trkpt lat="43.27287" lon="5.60993">
        <ele>265.7265625</ele>
        <time>2022-03-26T10:12:14Z</time>
      </trkpt>
      <trkpt lat="43.2729" lon="5.61">
        <ele>264.63671875</ele>
        <time>2022-03-26T10:12:26Z</time>
      </trkpt>
      <trkpt lat="43.27291" lon="5.61">
        <ele>264.3984375</ele>
        <time>2022-03-26T10:12:27Z</time>
      </trkpt>
      <trkpt lat="43.27292" lon="5.60998">
        <ele>264.37890625</ele>
        <time>2022-03-26T10:12:29Z</time>
      </trkpt>
      <trkpt lat="43.27292" lon="5.60996">
        <ele>264.36328125</ele>
        <time>2022-03-26T10:12:30Z</time>
      </trkpt>
      <trkpt lat="43.27299" lon="5.60992">
        <ele>263.53515625</ele>
        <time>2022-03-26T10:12:35Z</time>
      </trkpt>
      <trkpt lat="43.27301" lon="5.60992">
        <ele>263.25390625</ele>
        <time>2022-03-26T10:12:36Z</time>
      </trkpt>
      <trkpt lat="43.27303" lon="5.60991">
        <ele>262.9921875</ele>
        <time>2022-03-26T10:12:37Z</time>
      </trkpt>
      <trkpt lat="43.27304" lon="5.60992">
        <ele>262.60546875</ele>
        <time>2022-03-26T10:12:38Z</time>
      </trkpt>
      <trkpt lat="43.27306" lon="5.60992">
        <ele>262.1796875</ele>
        <time>2022-03-26T10:12:39Z</time>
      </trkpt>
      <trkpt lat="43.27308" lon="5.60992">
        <ele>261.8984375</ele>
        <time>2022-03-26T10:12:40Z</time>
      </trkpt>
      <trkpt lat="43.27311" lon="5.60993">
        <ele>261.68359375</ele>
        <time>2022-03-26T10:12:41Z</time>
      </trkpt>
      <trkpt lat="43.27314" lon="5.60994">
        <ele>261.4296875</ele>
        <time>2022-03-26T10:12:42Z</time>
      </trkpt>
      <trkpt lat="43.27317" lon="5.60994">
        <ele>261.19140625</ele>
        <time>2022-03-26T10:12:43Z</time>
      </trkpt>
      <trkpt lat="43.27348" lon="5.60998">
        <ele>258.6328125</ele>
        <time>2022-03-26T10:12:58Z</time>
      </trkpt>
      <trkpt lat="43.27382" lon="5.61012">
        <ele>251.43359375</ele>
        <time>2022-03-26T10:13:12Z</time>
      </trkpt>
      <trkpt lat="43.27386" lon="5.61012">
        <ele>250.91015625</ele>
        <time>2022-03-26T10:13:14Z</time>
      </trkpt>
      <trkpt lat="43.27426" lon="5.61">
        <ele>248.4140625</ele>
        <time>2022-03-26T10:13:28Z</time>
      </trkpt>
      <trkpt lat="43.27463" lon="5.60967">
        <ele>249.3125</ele>
        <time>2022-03-26T10:13:38Z</time>
      </trkpt>
      <trkpt lat="43.27466" lon="5.60961">
        <ele>249.52734375</ele>
        <time>2022-03-26T10:13:39Z</time>
      </trkpt>
      <trkpt lat="43.2747" lon="5.60956">
        <ele>249.64453125</ele>
        <time>2022-03-26T10:13:40Z</time>
      </trkpt>
      <trkpt lat="43.27475" lon="5.60951">
        <ele>249.7578125</ele>
        <time>2022-03-26T10:13:41Z</time>
      </trkpt>
      <trkpt lat="43.27479" lon="5.60945">
        <ele>249.8359375</ele>
        <time>2022-03-26T10:13:42Z</time>
      </trkpt>
      <trkpt lat="43.27484" lon="5.6094">
        <ele>249.6875</ele>
        <time>2022-03-26T10:13:43Z</time>
      </trkpt>
      <trkpt lat="43.27489" lon="5.60936">
        <ele>249.1640625</ele>
        <time>2022-03-26T10:13:44Z</time>
      </trkpt>
      <trkpt lat="43.27495" lon="5.60933">
        <ele>248.3125</ele>
        <time>2022-03-26T10:13:45Z</time>
      </trkpt>
      <trkpt lat="43.27501" lon="5.6093">
        <ele>247.38671875</ele>
        <time>2022-03-26T10:13:46Z</time>
      </trkpt>
      <trkpt lat="43.27506" lon="5.60927">
        <ele>246.53125</ele>
        <time>2022-03-26T10:13:47Z</time>
      </trkpt>
      <trkpt lat="43.27511" lon="5.60923">
        <ele>245.71875</ele>
        <time>2022-03-26T10:13:48Z</time>
      </trkpt>
      <trkpt lat="43.27516" lon="5.60919">
        <ele>245.08203125</ele>
        <time>2022-03-26T10:13:49Z</time>
      </trkpt>
      <trkpt lat="43.2752" lon="5.60914">
        <ele>244.69921875</ele>
        <time>2022-03-26T10:13:50Z</time>
      </trkpt>
      <trkpt lat="43.27592" lon="5.60842">
        <ele>235.93359375</ele>
        <time>2022-03-26T10:14:06Z</time>
      </trkpt>
      <trkpt lat="43.276" lon="5.6083">
        <ele>233.6484375</ele>
        <time>2022-03-26T10:14:08Z</time>
      </trkpt>
      <trkpt lat="43.27607" lon="5.60816">
        <ele>232.0390625</ele>
        <time>2022-03-26T10:14:10Z</time>
      </trkpt>
      <trkpt lat="43.2761" lon="5.60808">
        <ele>231.49609375</ele>
        <time>2022-03-26T10:14:11Z</time>
      </trkpt>
      <trkpt lat="43.27612" lon="5.608">
        <ele>231.1328125</ele>
        <time>2022-03-26T10:14:12Z</time>
      </trkpt>
      <trkpt lat="43.27615" lon="5.60784">
        <ele>231.2734375</ele>
        <time>2022-03-26T10:14:14Z</time>
      </trkpt>
      <trkpt lat="43.27616" lon="5.60775">
        <ele>231.87890625</ele>
        <time>2022-03-26T10:14:15Z</time>
      </trkpt>
      <trkpt lat="43.27617" lon="5.60758">
        <ele>232.484375</ele>
        <time>2022-03-26T10:14:17Z</time>
      </trkpt>
      <trkpt lat="43.27623" lon="5.60704">
        <ele>232.61328125</ele>
        <time>2022-03-26T10:14:23Z</time>
      </trkpt>
      <trkpt lat="43.27636" lon="5.60623">
        <ele>232.7109375</ele>
        <time>2022-03-26T10:14:31Z</time>
      </trkpt>
      <trkpt lat="43.27638" lon="5.60616">
        <ele>232.3046875</ele>
        <time>2022-03-26T10:14:32Z</time>
      </trkpt>
      <trkpt lat="43.27639" lon="5.60613">
        <ele>231.83984375</ele>
        <time>2022-03-26T10:14:39Z</time>
      </trkpt>
      <trkpt lat="43.27636" lon="5.60623">
        <ele>232.97265625</ele>
        <time>2022-03-26T10:14:52Z</time>
      </trkpt>
      <trkpt lat="43.27635" lon="5.60626">
        <ele>233.05859375</ele>
        <time>2022-03-26T10:14:54Z</time>
      </trkpt>
      <trkpt lat="43.27628" lon="5.6066">
        <ele>234.03515625</ele>
        <time>2022-03-26T10:15:09Z</time>
      </trkpt>
      <trkpt lat="43.27621" lon="5.60709">
        <ele>233.5546875</ele>
        <time>2022-03-26T10:15:22Z</time>
      </trkpt>
      <trkpt lat="43.27614" lon="5.60766">
        <ele>233.9609375</ele>
        <time>2022-03-26T10:15:35Z</time>
      </trkpt>
      <trkpt lat="43.27598" lon="5.60831">
        <ele>234.765625</ele>
        <time>2022-03-26T10:15:49Z</time>
      </trkpt>
      <trkpt lat="43.27593" lon="5.60839">
        <ele>235.9375</ele>
        <time>2022-03-26T10:15:51Z</time>
      </trkpt>
      <trkpt lat="43.2759" lon="5.60843">
        <ele>236.83203125</ele>
        <time>2022-03-26T10:15:52Z</time>
      </trkpt>
      <trkpt lat="43.27542" lon="5.60886">
        <ele>244.796875</ele>
        <time>2022-03-26T10:16:07Z</time>
      </trkpt>
      <trkpt lat="43.27513" lon="5.60922">
        <ele>245.34375</ele>
        <time>2022-03-26T10:16:18Z</time>
      </trkpt>
      <trkpt lat="43.27486" lon="5.60938">
        <ele>249.609375</ele>
        <time>2022-03-26T10:16:31Z</time>
      </trkpt>
      <trkpt lat="43.27485" lon="5.60939">
        <ele>249.66015625</ele>
        <time>2022-03-26T10:16:32Z</time>
      </trkpt>
      <trkpt lat="43.27485" lon="5.6094">
        <ele>249.421875</ele>
        <time>2022-03-26T10:16:33Z</time>
      </trkpt>
      <trkpt lat="43.27489" lon="5.60941">
        <ele>248.3125</ele>
        <time>2022-03-26T10:16:44Z</time>
      </trkpt>
      <trkpt lat="43.27491" lon="5.6094">
        <ele>248.05078125</ele>
        <time>2022-03-26T10:17:03Z</time>
      </trkpt>
      <trkpt lat="43.27492" lon="5.60941">
        <ele>247.53125</ele>
        <time>2022-03-26T10:17:04Z</time>
      </trkpt>
      <trkpt lat="43.27494" lon="5.60941">
        <ele>246.93359375</ele>
        <time>2022-03-26T10:17:05Z</time>
      </trkpt>
      <trkpt lat="43.2751" lon="5.60941">
        <ele>242.66796875</ele>
        <time>2022-03-26T10:17:11Z</time>
      </trkpt>
      <trkpt lat="43.27511" lon="5.6094">
        <ele>242.5859375</ele>
        <time>2022-03-26T10:17:15Z</time>
      </trkpt>
      <trkpt lat="43.27513" lon="5.60938">
        <ele>242.30078125</ele>
        <time>2022-03-26T10:17:16Z</time>
      </trkpt>
      <trkpt lat="43.27517" lon="5.60937">
        <ele>241.62890625</ele>
        <time>2022-03-26T10:17:17Z</time>
      </trkpt>
      <trkpt lat="43.27521" lon="5.60935">
        <ele>240.80859375</ele>
        <time>2022-03-26T10:17:18Z</time>
      </trkpt>
      <trkpt lat="43.27524" lon="5.60933">
        <ele>240.0859375</ele>
        <time>2022-03-26T10:17:19Z</time>
      </trkpt>
      <trkpt lat="43.2754" lon="5.60922">
        <ele>237.5859375</ele>
        <time>2022-03-26T10:17:24Z</time>
      </trkpt>
      <trkpt lat="43.27557" lon="5.60912">
        <ele>234.59765625</ele>
        <time>2022-03-26T10:17:29Z</time>
      </trkpt>
      <trkpt lat="43.27566" lon="5.60907">
        <ele>232.3359375</ele>
        <time>2022-03-26T10:17:31Z</time>
      </trkpt>
      <trkpt lat="43.27577" lon="5.609">
        <ele>230.5234375</ele>
        <time>2022-03-26T10:17:34Z</time>
      </trkpt>
      <trkpt lat="43.2758" lon="5.60898">
        <ele>229.859375</ele>
        <time>2022-03-26T10:17:35Z</time>
      </trkpt>
      <trkpt lat="43.27584" lon="5.60896">
        <ele>229.1953125</ele>
        <time>2022-03-26T10:17:36Z</time>
      </trkpt>
      <trkpt lat="43.27586" lon="5.60895">
        <ele>228.65625</ele>
        <time>2022-03-26T10:17:37Z</time>
      </trkpt>
      <trkpt lat="43.27589" lon="5.60892">
        <ele>227.92578125</ele>
        <time>2022-03-26T10:17:38Z</time>
      </trkpt>
      <trkpt lat="43.27593" lon="5.6089">
        <ele>226.8125</ele>
        <time>2022-03-26T10:17:39Z</time>
      </trkpt>
      <trkpt lat="43.2761" lon="5.60869">
        <ele>223.10546875</ele>
        <time>2022-03-26T10:17:45Z</time>
      </trkpt>
      <trkpt lat="43.27617" lon="5.6086">
        <ele>220.83203125</ele>
        <time>2022-03-26T10:17:47Z</time>
      </trkpt>
      <trkpt lat="43.27621" lon="5.60855">
        <ele>219.76953125</ele>
        <time>2022-03-26T10:17:48Z</time>
      </trkpt>
      <trkpt lat="43.27624" lon="5.6085">
        <ele>219.078125</ele>
        <time>2022-03-26T10:17:49Z</time>
      </trkpt>
      <trkpt lat="43.27626" lon="5.60846">
        <ele>218.57421875</ele>
        <time>2022-03-26T10:17:50Z</time>
      </trkpt>
      <trkpt lat="43.27628" lon="5.6084">
        <ele>217.921875</ele>
        <time>2022-03-26T10:17:51Z</time>
      </trkpt>
      <trkpt lat="43.2763" lon="5.60835">
        <ele>217.46484375</ele>
        <time>2022-03-26T10:17:52Z</time>
      </trkpt>
      <trkpt lat="43.27632" lon="5.6083">
        <ele>217.140625</ele>
        <time>2022-03-26T10:17:53Z</time>
      </trkpt>
      <trkpt lat="43.27639" lon="5.60814">
        <ele>215.3515625</ele>
        <time>2022-03-26T10:17:57Z</time>
      </trkpt>
      <trkpt lat="43.27646" lon="5.60797">
        <ele>213.62890625</ele>
        <time>2022-03-26T10:18:01Z</time>
      </trkpt>
      <trkpt lat="43.27653" lon="5.60782">
        <ele>211.16796875</ele>
        <time>2022-03-26T10:18:07Z</time>
      </trkpt>
      <trkpt lat="43.27653" lon="5.60779">
        <ele>211.36328125</ele>
        <time>2022-03-26T10:18:08Z</time>
      </trkpt>
      <trkpt lat="43.27653" lon="5.60775">
        <ele>211.515625</ele>
        <time>2022-03-26T10:18:09Z</time>
      </trkpt>
      <trkpt lat="43.27654" lon="5.60771">
        <ele>211.44140625</ele>
        <time>2022-03-26T10:18:10Z</time>
      </trkpt>
      <trkpt lat="43.27655" lon="5.60768">
        <ele>211.16015625</ele>
        <time>2022-03-26T10:18:11Z</time>
      </trkpt>
      <trkpt lat="43.27656" lon="5.60765">
        <ele>211.0546875</ele>
        <time>2022-03-26T10:18:12Z</time>
      </trkpt>
      <trkpt lat="43.27656" lon="5.60761">
        <ele>211.171875</ele>
        <time>2022-03-26T10:18:13Z</time>
      </trkpt>
      <trkpt lat="43.27658" lon="5.60754">
        <ele>211.02734375</ele>
        <time>2022-03-26T10:18:15Z</time>
      </trkpt>
      <trkpt lat="43.2766" lon="5.60752">
        <ele>210.65625</ele>
        <time>2022-03-26T10:18:16Z</time>
      </trkpt>
      <trkpt lat="43.27661" lon="5.60749">
        <ele>210.3984375</ele>
        <time>2022-03-26T10:18:17Z</time>
      </trkpt>
      <trkpt lat="43.27662" lon="5.60746">
        <ele>210.3828125</ele>
        <time>2022-03-26T10:18:18Z</time>
      </trkpt>
      <trkpt lat="43.27663" lon="5.60742">
        <ele>210.1953125</ele>
        <time>2022-03-26T10:18:19Z</time>
      </trkpt>
      <trkpt lat="43.27671" lon="5.60727">
        <ele>208.2734375</ele>
        <time>2022-03-26T10:18:24Z</time>
      </trkpt>
      <trkpt lat="43.27671" lon="5.6072">
        <ele>208.74609375</ele>
        <time>2022-03-26T10:18:30Z</time>
      </trkpt>
      <trkpt lat="43.27673" lon="5.60718">
        <ele>208.1328125</ele>
        <time>2022-03-26T10:18:31Z</time>
      </trkpt>
      <trkpt lat="43.27675" lon="5.60716">
        <ele>207.39453125</ele>
        <time>2022-03-26T10:18:32Z</time>
      </trkpt>
      <trkpt lat="43.27678" lon="5.60715">
        <ele>206.5625</ele>
        <time>2022-03-26T10:18:33Z</time>
      </trkpt>
      <trkpt lat="43.27682" lon="5.60714">
        <ele>205.421875</ele>
        <time>2022-03-26T10:18:34Z</time>
      </trkpt>
      <trkpt lat="43.27694" lon="5.60709">
        <ele>201.44140625</ele>
        <time>2022-03-26T10:18:38Z</time>
      </trkpt>
      <trkpt lat="43.27696" lon="5.60709">
        <ele>200.93359375</ele>
        <time>2022-03-26T10:18:39Z</time>
      </trkpt>
      <trkpt lat="43.27698" lon="5.60705">
        <ele>200.30859375</ele>
        <time>2022-03-26T10:18:53Z</time>
      </trkpt>
      <trkpt lat="43.27704" lon="5.60707">
        <ele>197.890625</ele>
        <time>2022-03-26T10:19:16Z</time>
      </trkpt>
      <trkpt lat="43.27707" lon="5.6071">
        <ele>196.58984375</ele>
        <time>2022-03-26T10:19:46Z</time>
      </trkpt>
      <trkpt lat="43.27708" lon="5.6071">
        <ele>196.328125</ele>
        <time>2022-03-26T10:20:09Z</time>
      </trkpt>
      <trkpt lat="43.27708" lon="5.60708">
        <ele>196.3359375</ele>
        <time>2022-03-26T10:20:33Z</time>
      </trkpt>
      <trkpt lat="43.2771" lon="5.60708">
        <ele>195.81640625</ele>
        <time>2022-03-26T10:20:34Z</time>
      </trkpt>
      <trkpt lat="43.27712" lon="5.60709">
        <ele>195.08984375</ele>
        <time>2022-03-26T10:20:35Z</time>
      </trkpt>
      <trkpt lat="43.27713" lon="5.6071">
        <ele>194.40625</ele>
        <time>2022-03-26T10:20:36Z</time>
      </trkpt>
      <trkpt lat="43.27715" lon="5.60711">
        <ele>193.66796875</ele>
        <time>2022-03-26T10:20:37Z</time>
      </trkpt>
      <trkpt lat="43.27715" lon="5.60714">
        <ele>193.32421875</ele>
        <time>2022-03-26T10:20:39Z</time>
      </trkpt>
      <trkpt lat="43.27715" lon="5.60717">
        <ele>193.015625</ele>
        <time>2022-03-26T10:20:40Z</time>
      </trkpt>
      <trkpt lat="43.27714" lon="5.60735">
        <ele>191.45703125</ele>
        <time>2022-03-26T10:20:45Z</time>
      </trkpt>
      <trkpt lat="43.27714" lon="5.6074">
        <ele>190.859375</ele>
        <time>2022-03-26T10:20:47Z</time>
      </trkpt>
      <trkpt lat="43.27716" lon="5.60745">
        <ele>189.6171875</ele>
        <time>2022-03-26T10:20:49Z</time>
      </trkpt>
      <trkpt lat="43.27718" lon="5.60747">
        <ele>188.53515625</ele>
        <time>2022-03-26T10:20:50Z</time>
      </trkpt>
      <trkpt lat="43.27728" lon="5.6075">
        <ele>184.5625</ele>
        <time>2022-03-26T10:20:54Z</time>
      </trkpt>
      <trkpt lat="43.27731" lon="5.60748">
        <ele>183.8984375</ele>
        <time>2022-03-26T10:20:55Z</time>
      </trkpt>
      <trkpt lat="43.27752" lon="5.6073">
        <ele>179.36328125</ele>
        <time>2022-03-26T10:21:02Z</time>
      </trkpt>
      <trkpt lat="43.27766" lon="5.60722">
        <ele>175.578125</ele>
        <time>2022-03-26T10:21:08Z</time>
      </trkpt>
      <trkpt lat="43.27771" lon="5.60718">
        <ele>174.50390625</ele>
        <time>2022-03-26T10:21:10Z</time>
      </trkpt>
      <trkpt lat="43.27776" lon="5.60713">
        <ele>173.47265625</ele>
        <time>2022-03-26T10:21:12Z</time>
      </trkpt>
      <trkpt lat="43.27782" lon="5.60712">
        <ele>171.421875</ele>
        <time>2022-03-26T10:21:14Z</time>
      </trkpt>
      <trkpt lat="43.27784" lon="5.60714">
        <ele>170.77734375</ele>
        <time>2022-03-26T10:21:15Z</time>
      </trkpt>
      <trkpt lat="43.27783" lon="5.60716">
        <ele>170.52734375</ele>
        <time>2022-03-26T10:21:16Z</time>
      </trkpt>
      <trkpt lat="43.27787" lon="5.60728">
        <ele>167.6875</ele>
        <time>2022-03-26T10:21:21Z</time>
      </trkpt>
      <trkpt lat="43.27785" lon="5.60743">
        <ele>166.21875</ele>
        <time>2022-03-26T10:21:26Z</time>
      </trkpt>
      <trkpt lat="43.2778" lon="5.60763">
        <ele>164.859375</ele>
        <time>2022-03-26T10:21:32Z</time>
      </trkpt>
      <trkpt lat="43.27781" lon="5.60765">
        <ele>164.375</ele>
        <time>2022-03-26T10:21:33Z</time>
      </trkpt>
      <trkpt lat="43.27781" lon="5.60768">
        <ele>163.94140625</ele>
        <time>2022-03-26T10:21:34Z</time>
      </trkpt>
      <trkpt lat="43.27781" lon="5.6077">
        <ele>163.53515625</ele>
        <time>2022-03-26T10:21:35Z</time>
      </trkpt>
      <trkpt lat="43.27782" lon="5.60772">
        <ele>163.25390625</ele>
        <time>2022-03-26T10:21:36Z</time>
      </trkpt>
      <trkpt lat="43.27781" lon="5.60776">
        <ele>162.6953125</ele>
        <time>2022-03-26T10:21:38Z</time>
      </trkpt>
      <trkpt lat="43.27779" lon="5.60782">
        <ele>162.43359375</ele>
        <time>2022-03-26T10:21:40Z</time>
      </trkpt>
      <trkpt lat="43.2778" lon="5.60784">
        <ele>161.80078125</ele>
        <time>2022-03-26T10:21:41Z</time>
      </trkpt>
      <trkpt lat="43.27782" lon="5.60785">
        <ele>161.12109375</ele>
        <time>2022-03-26T10:21:42Z</time>
      </trkpt>
      <trkpt lat="43.27785" lon="5.60786">
        <ele>160.4296875</ele>
        <time>2022-03-26T10:21:43Z</time>
      </trkpt>
      <trkpt lat="43.27786" lon="5.60785">
        <ele>160.09765625</ele>
        <time>2022-03-26T10:21:44Z</time>
      </trkpt>
      <trkpt lat="43.27803" lon="5.60776">
        <ele>157.296875</ele>
        <time>2022-03-26T10:21:51Z</time>
      </trkpt>
      <trkpt lat="43.27818" lon="5.60765">
        <ele>154.38671875</ele>
        <time>2022-03-26T10:21:57Z</time>
      </trkpt>
      <trkpt lat="43.27832" lon="5.60757">
        <ele>151.27734375</ele>
        <time>2022-03-26T10:22:02Z</time>
      </trkpt>
      <trkpt lat="43.27835" lon="5.60758">
        <ele>150.4921875</ele>
        <time>2022-03-26T10:22:03Z</time>
      </trkpt>
      <trkpt lat="43.27842" lon="5.60769">
        <ele>147.49609375</ele>
        <time>2022-03-26T10:22:08Z</time>
      </trkpt>
      <trkpt lat="43.27845" lon="5.60778">
        <ele>146.3125</ele>
        <time>2022-03-26T10:22:11Z</time>
      </trkpt>
      <trkpt lat="43.27855" lon="5.60798">
        <ele>143.2734375</ele>
        <time>2022-03-26T10:22:22Z</time>
      </trkpt>
      <trkpt lat="43.27852" lon="5.60801">
        <ele>143.640625</ele>
        <time>2022-03-26T10:22:47Z</time>
      </trkpt>
      <trkpt lat="43.27855" lon="5.60809">
        <ele>142.3515625</ele>
        <time>2022-03-26T10:23:04Z</time>
      </trkpt>
      <trkpt lat="43.27863" lon="5.6082">
        <ele>140.44921875</ele>
        <time>2022-03-26T10:23:08Z</time>
      </trkpt>
      <trkpt lat="43.27865" lon="5.6082">
        <ele>139.96875</ele>
        <time>2022-03-26T10:23:09Z</time>
      </trkpt>
      <trkpt lat="43.27868" lon="5.60821">
        <ele>139.5390625</ele>
        <time>2022-03-26T10:23:10Z</time>
      </trkpt>
      <trkpt lat="43.27871" lon="5.60822">
        <ele>139.07421875</ele>
        <time>2022-03-26T10:23:11Z</time>
      </trkpt>
      <trkpt lat="43.27874" lon="5.60823">
        <ele>138.60546875</ele>
        <time>2022-03-26T10:23:12Z</time>
      </trkpt>
      <trkpt lat="43.27877" lon="5.60823">
        <ele>138.1484375</ele>
        <time>2022-03-26T10:23:13Z</time>
      </trkpt>
      <trkpt lat="43.27879" lon="5.60824">
        <ele>137.7109375</ele>
        <time>2022-03-26T10:23:14Z</time>
      </trkpt>
      <trkpt lat="43.27882" lon="5.60824">
        <ele>137.3046875</ele>
        <time>2022-03-26T10:23:15Z</time>
      </trkpt>
      <trkpt lat="43.27885" lon="5.60824">
        <ele>136.89453125</ele>
        <time>2022-03-26T10:23:16Z</time>
      </trkpt>
      <trkpt lat="43.27887" lon="5.60823">
        <ele>136.5546875</ele>
        <time>2022-03-26T10:23:17Z</time>
      </trkpt>
      <trkpt lat="43.279" lon="5.60823">
        <ele>134.41015625</ele>
        <time>2022-03-26T10:23:21Z</time>
      </trkpt>
      <trkpt lat="43.27903" lon="5.60824">
        <ele>133.875</ele>
        <time>2022-03-26T10:23:22Z</time>
      </trkpt>
      <trkpt lat="43.27906" lon="5.60826">
        <ele>133.234375</ele>
        <time>2022-03-26T10:23:23Z</time>
      </trkpt>
      <trkpt lat="43.27909" lon="5.60829">
        <ele>132.48828125</ele>
        <time>2022-03-26T10:23:24Z</time>
      </trkpt>
      <trkpt lat="43.27927" lon="5.60831">
        <ele>128.22265625</ele>
        <time>2022-03-26T10:23:32Z</time>
      </trkpt>
      <trkpt lat="43.27931" lon="5.60831">
        <ele>127.328125</ele>
        <time>2022-03-26T10:23:34Z</time>
      </trkpt>
      <trkpt lat="43.27933" lon="5.60831">
        <ele>126.8515625</ele>
        <time>2022-03-26T10:23:53Z</time>
      </trkpt>
      <trkpt lat="43.27931" lon="5.60836">
        <ele>126.75390625</ele>
        <time>2022-03-26T10:24:13Z</time>
      </trkpt>
      <trkpt lat="43.2793" lon="5.60838">
        <ele>127.0390625</ele>
        <time>2022-03-26T10:24:16Z</time>
      </trkpt>
      <trkpt lat="43.2793" lon="5.6084">
        <ele>126.98046875</ele>
        <time>2022-03-26T10:24:17Z</time>
      </trkpt>
      <trkpt lat="43.27929" lon="5.60841">
        <ele>126.9375</ele>
        <time>2022-03-26T10:24:18Z</time>
      </trkpt>
      <trkpt lat="43.27929" lon="5.60844">
        <ele>126.8671875</ele>
        <time>2022-03-26T10:24:19Z</time>
      </trkpt>
      <trkpt lat="43.27928" lon="5.60847">
        <ele>126.6875</ele>
        <time>2022-03-26T10:24:20Z</time>
      </trkpt>
      <trkpt lat="43.27928" lon="5.6085">
        <ele>126.39453125</ele>
        <time>2022-03-26T10:24:21Z</time>
      </trkpt>
      <trkpt lat="43.27929" lon="5.60853">
        <ele>126.015625</ele>
        <time>2022-03-26T10:24:22Z</time>
      </trkpt>
      <trkpt lat="43.27929" lon="5.60857">
        <ele>125.6015625</ele>
        <time>2022-03-26T10:24:23Z</time>
      </trkpt>
      <trkpt lat="43.27929" lon="5.60889">
        <ele>121.23046875</ele>
        <time>2022-03-26T10:24:32Z</time>
      </trkpt>
      <trkpt lat="43.27922" lon="5.6091">
        <ele>119.0078125</ele>
        <time>2022-03-26T10:24:37Z</time>
      </trkpt>
      <trkpt lat="43.27892" lon="5.6092">
        <ele>121.75390625</ele>
        <time>2022-03-26T10:24:48Z</time>
      </trkpt>
      <trkpt lat="43.27888" lon="5.6092">
        <ele>121.89453125</ele>
        <time>2022-03-26T10:24:56Z</time>
      </trkpt>
      <trkpt lat="43.27889" lon="5.60923">
        <ele>121.4921875</ele>
        <time>2022-03-26T10:24:59Z</time>
      </trkpt>
      <trkpt lat="43.27886" lon="5.60925">
        <ele>121.16015625</ele>
        <time>2022-03-26T10:25:07Z</time>
      </trkpt>
      <trkpt lat="43.27884" lon="5.60924">
        <ele>121.33984375</ele>
        <time>2022-03-26T10:25:08Z</time>
      </trkpt>
      <trkpt lat="43.27881" lon="5.60924">
        <ele>121.45703125</ele>
        <time>2022-03-26T10:25:09Z</time>
      </trkpt>
      <trkpt lat="43.27874" lon="5.60925">
        <ele>121.60546875</ele>
        <time>2022-03-26T10:25:11Z</time>
      </trkpt>
      <trkpt lat="43.27865" lon="5.60924">
        <ele>121.99609375</ele>
        <time>2022-03-26T10:25:13Z</time>
      </trkpt>
      <trkpt lat="43.27832" lon="5.60936">
        <ele>121.50390625</ele>
        <time>2022-03-26T10:25:22Z</time>
      </trkpt>
      <trkpt lat="43.27829" lon="5.60946">
        <ele>120.84375</ele>
        <time>2022-03-26T10:25:24Z</time>
      </trkpt>
      <trkpt lat="43.27823" lon="5.60962">
        <ele>119.91015625</ele>
        <time>2022-03-26T10:25:28Z</time>
      </trkpt>
      <trkpt lat="43.27813" lon="5.60987">
        <ele>119.3046875</ele>
        <time>2022-03-26T10:25:35Z</time>
      </trkpt>
      <trkpt lat="43.27809" lon="5.60994">
        <ele>119.421875</ele>
        <time>2022-03-26T10:25:37Z</time>
      </trkpt>
      <trkpt lat="43.27806" lon="5.61002">
        <ele>119.55078125</ele>
        <time>2022-03-26T10:25:39Z</time>
      </trkpt>
      <trkpt lat="43.27786" lon="5.61056">
        <ele>119.484375</ele>
        <time>2022-03-26T10:25:53Z</time>
      </trkpt>
      <trkpt lat="43.2778" lon="5.61074">
        <ele>120.06640625</ele>
        <time>2022-03-26T10:25:58Z</time>
      </trkpt>
      <trkpt lat="43.27771" lon="5.61098">
        <ele>120.8359375</ele>
        <time>2022-03-26T10:26:04Z</time>
      </trkpt>
      <trkpt lat="43.27769" lon="5.61103">
        <ele>120.98828125</ele>
        <time>2022-03-26T10:26:05Z</time>
      </trkpt>
      <trkpt lat="43.27761" lon="5.61118">
        <ele>121.390625</ele>
        <time>2022-03-26T10:26:08Z</time>
      </trkpt>
      <trkpt lat="43.27755" lon="5.61135">
        <ele>121.46875</ele>
        <time>2022-03-26T10:26:11Z</time>
      </trkpt>
      <trkpt lat="43.27726" lon="5.61198">
        <ele>121.91796875</ele>
        <time>2022-03-26T10:26:22Z</time>
      </trkpt>
      <trkpt lat="43.27711" lon="5.61232">
        <ele>121.86328125</ele>
        <time>2022-03-26T10:26:29Z</time>
      </trkpt>
      <trkpt lat="43.27683" lon="5.61289">
        <ele>122.85546875</ele>
        <time>2022-03-26T10:26:43Z</time>
      </trkpt>
      <trkpt lat="43.27663" lon="5.61336">
        <ele>124.47265625</ele>
        <time>2022-03-26T10:26:55Z</time>
      </trkpt>
      <trkpt lat="43.27654" lon="5.61361">
        <ele>124.48828125</ele>
        <time>2022-03-26T10:27:03Z</time>
      </trkpt>
      <trkpt lat="43.27641" lon="5.61402">
        <ele>123.39453125</ele>
        <time>2022-03-26T10:27:17Z</time>
      </trkpt>
      <trkpt lat="43.27622" lon="5.61448">
        <ele>125.69140625</ele>
        <time>2022-03-26T10:27:32Z</time>
      </trkpt>
      <trkpt lat="43.2761" lon="5.61477">
        <ele>127.390625</ele>
        <time>2022-03-26T10:27:46Z</time>
      </trkpt>
      <trkpt lat="43.27605" lon="5.61489">
        <ele>128.234375</ele>
        <time>2022-03-26T10:27:53Z</time>
      </trkpt>
      <trkpt lat="43.27604" lon="5.61491">
        <ele>128.30859375</ele>
        <time>2022-03-26T10:27:54Z</time>
      </trkpt>
      <trkpt lat="43.27603" lon="5.61493">
        <ele>128.42578125</ele>
        <time>2022-03-26T10:27:55Z</time>
      </trkpt>
      <trkpt lat="43.27603" lon="5.61495">
        <ele>128.5078125</ele>
        <time>2022-03-26T10:27:56Z</time>
      </trkpt>
      <trkpt lat="43.27602" lon="5.61496">
        <ele>128.578125</ele>
        <time>2022-03-26T10:27:57Z</time>
      </trkpt>
      <trkpt lat="43.27601" lon="5.61498">
        <ele>128.6953125</ele>
        <time>2022-03-26T10:27:58Z</time>
      </trkpt>
      <trkpt lat="43.27601" lon="5.615">
        <ele>128.765625</ele>
        <time>2022-03-26T10:27:59Z</time>
      </trkpt>
      <trkpt lat="43.276" lon="5.61501">
        <ele>128.74609375</ele>
        <time>2022-03-26T10:28:00Z</time>
      </trkpt>
      <trkpt lat="43.276" lon="5.61503">
        <ele>128.70703125</ele>
        <time>2022-03-26T10:28:01Z</time>
      </trkpt>
      <trkpt lat="43.276" lon="5.61505">
        <ele>128.7109375</ele>
        <time>2022-03-26T10:28:02Z</time>
      </trkpt>
      <trkpt lat="43.27599" lon="5.61507">
        <ele>128.734375</ele>
        <time>2022-03-26T10:28:03Z</time>
      </trkpt>
      <trkpt lat="43.27588" lon="5.61523">
        <ele>130.5546875</ele>
        <time>2022-03-26T10:28:19Z</time>
      </trkpt>
      <trkpt lat="43.27579" lon="5.61537">
        <ele>133</ele>
        <time>2022-03-26T10:28:34Z</time>
      </trkpt>
      <trkpt lat="43.27578" lon="5.61539">
        <ele>133.2890625</ele>
        <time>2022-03-26T10:28:35Z</time>
      </trkpt>
      <trkpt lat="43.27577" lon="5.6154">
        <ele>133.5703125</ele>
        <time>2022-03-26T10:28:36Z</time>
      </trkpt>
      <trkpt lat="43.27576" lon="5.61541">
        <ele>133.79296875</ele>
        <time>2022-03-26T10:28:37Z</time>
      </trkpt>
      <trkpt lat="43.27575" lon="5.61543">
        <ele>133.9921875</ele>
        <time>2022-03-26T10:28:38Z</time>
      </trkpt>
      <trkpt lat="43.27575" lon="5.61544">
        <ele>134.09765625</ele>
        <time>2022-03-26T10:28:39Z</time>
      </trkpt>
      <trkpt lat="43.27575" lon="5.61546">
        <ele>134.12109375</ele>
        <time>2022-03-26T10:28:40Z</time>
      </trkpt>
      <trkpt lat="43.27575" lon="5.61547">
        <ele>134.1484375</ele>
        <time>2022-03-26T10:28:41Z</time>
      </trkpt>
      <trkpt lat="43.27574" lon="5.61548">
        <ele>134.20703125</ele>
        <time>2022-03-26T10:28:42Z</time>
      </trkpt>
      <trkpt lat="43.27574" lon="5.6155">
        <ele>134.3125</ele>
        <time>2022-03-26T10:28:43Z</time>
      </trkpt>
      <trkpt lat="43.27574" lon="5.61551">
        <ele>134.43359375</ele>
        <time>2022-03-26T10:28:44Z</time>
      </trkpt>
      <trkpt lat="43.27571" lon="5.61558">
        <ele>135.0234375</ele>
        <time>2022-03-26T10:28:48Z</time>
      </trkpt>
      <trkpt lat="43.27571" lon="5.61559">
        <ele>135.09765625</ele>
        <time>2022-03-26T10:28:49Z</time>
      </trkpt>
      <trkpt lat="43.27571" lon="5.61561">
        <ele>135.109375</ele>
        <time>2022-03-26T10:28:50Z</time>
      </trkpt>
      <trkpt lat="43.27571" lon="5.61562">
        <ele>135.13671875</ele>
        <time>2022-03-26T10:28:51Z</time>
      </trkpt>
      <trkpt lat="43.27571" lon="5.61581">
        <ele>135.45703125</ele>
        <time>2022-03-26T10:29:05Z</time>
      </trkpt>
      <trkpt lat="43.27569" lon="5.61593">
        <ele>136.3984375</ele>
        <time>2022-03-26T10:29:13Z</time>
      </trkpt>
      <trkpt lat="43.27569" lon="5.61625">
        <ele>137.42578125</ele>
        <time>2022-03-26T10:29:27Z</time>
      </trkpt>
      <trkpt lat="43.27573" lon="5.61663">
        <ele>136.94921875</ele>
        <time>2022-03-26T10:29:43Z</time>
      </trkpt>
      <trkpt lat="43.2757" lon="5.61701">
        <ele>135.5234375</ele>
        <time>2022-03-26T10:29:57Z</time>
      </trkpt>
      <trkpt lat="43.27565" lon="5.61734">
        <ele>135.16796875</ele>
        <time>2022-03-26T10:30:09Z</time>
      </trkpt>
      <trkpt lat="43.27564" lon="5.61786">
        <ele>132.70703125</ele>
        <time>2022-03-26T10:30:21Z</time>
      </trkpt>
      <trkpt lat="43.27563" lon="5.618">
        <ele>132.375</ele>
        <time>2022-03-26T10:30:23Z</time>
      </trkpt>
      <trkpt lat="43.27564" lon="5.61853">
        <ele>131.47265625</ele>
        <time>2022-03-26T10:30:29Z</time>
      </trkpt>
      <trkpt lat="43.27564" lon="5.61873">
        <ele>131.40234375</ele>
        <time>2022-03-26T10:30:31Z</time>
      </trkpt>
      <trkpt lat="43.27564" lon="5.61932">
        <ele>130.19921875</ele>
        <time>2022-03-26T10:30:40Z</time>
      </trkpt>
      <trkpt lat="43.27563" lon="5.61961">
        <ele>129.60546875</ele>
        <time>2022-03-26T10:30:47Z</time>
      </trkpt>
      <trkpt lat="43.27562" lon="5.62048">
        <ele>127.8203125</ele>
        <time>2022-03-26T10:31:04Z</time>
      </trkpt>
      <trkpt lat="43.27559" lon="5.62121">
        <ele>126.22265625</ele>
        <time>2022-03-26T10:31:18Z</time>
      </trkpt>
      <trkpt lat="43.27552" lon="5.62201">
        <ele>125.7421875</ele>
        <time>2022-03-26T10:31:33Z</time>
      </trkpt>
      <trkpt lat="43.27542" lon="5.62251">
        <ele>127.81640625</ele>
        <time>2022-03-26T10:31:44Z</time>
      </trkpt>
      <trkpt lat="43.27529" lon="5.62293">
        <ele>130.51171875</ele>
        <time>2022-03-26T10:31:57Z</time>
      </trkpt>
      <trkpt lat="43.27512" lon="5.62326">
        <ele>133.59765625</ele>
        <time>2022-03-26T10:32:11Z</time>
      </trkpt>
      <trkpt lat="43.275" lon="5.62363">
        <ele>136.8828125</ele>
        <time>2022-03-26T10:32:26Z</time>
      </trkpt>
      <trkpt lat="43.27505" lon="5.62402">
        <ele>135.8203125</ele>
        <time>2022-03-26T10:32:36Z</time>
      </trkpt>
      <trkpt lat="43.27508" lon="5.62434">
        <ele>136.76171875</ele>
        <time>2022-03-26T10:32:48Z</time>
      </trkpt>
      <trkpt lat="43.27517" lon="5.62464">
        <ele>136.359375</ele>
        <time>2022-03-26T10:33:02Z</time>
      </trkpt>
      <trkpt lat="43.27527" lon="5.62488">
        <ele>133.98046875</ele>
        <time>2022-03-26T10:33:08Z</time>
      </trkpt>
      <trkpt lat="43.2753" lon="5.62493">
        <ele>133.3046875</ele>
        <time>2022-03-26T10:33:09Z</time>
      </trkpt>
      <trkpt lat="43.27536" lon="5.62509">
        <ele>131.80078125</ele>
        <time>2022-03-26T10:33:12Z</time>
      </trkpt>
      <trkpt lat="43.27537" lon="5.62515">
        <ele>131.56640625</ele>
        <time>2022-03-26T10:33:13Z</time>
      </trkpt>
      <trkpt lat="43.27547" lon="5.62594">
        <ele>131.88671875</ele>
        <time>2022-03-26T10:33:27Z</time>
      </trkpt>
      <trkpt lat="43.2755" lon="5.62615">
        <ele>132.47265625</ele>
        <time>2022-03-26T10:33:31Z</time>
      </trkpt>
      <trkpt lat="43.27552" lon="5.62642">
        <ele>133.48828125</ele>
        <time>2022-03-26T10:33:36Z</time>
      </trkpt>
      <trkpt lat="43.27552" lon="5.62658">
        <ele>134.43359375</ele>
        <time>2022-03-26T10:33:39Z</time>
      </trkpt>
      <trkpt lat="43.27555" lon="5.62685">
        <ele>135.19921875</ele>
        <time>2022-03-26T10:33:45Z</time>
      </trkpt>
      <trkpt lat="43.27567" lon="5.62736">
        <ele>133.47265625</ele>
        <time>2022-03-26T10:33:57Z</time>
      </trkpt>
      <trkpt lat="43.27573" lon="5.62754">
        <ele>131.35546875</ele>
        <time>2022-03-26T10:34:00Z</time>
      </trkpt>
      <trkpt lat="43.27574" lon="5.62762">
        <ele>131.25</ele>
        <time>2022-03-26T10:34:01Z</time>
      </trkpt>
      <trkpt lat="43.27573" lon="5.62769">
        <ele>131.58203125</ele>
        <time>2022-03-26T10:34:02Z</time>
      </trkpt>
      <trkpt lat="43.27571" lon="5.62774">
        <ele>132.2734375</ele>
        <time>2022-03-26T10:34:03Z</time>
      </trkpt>
      <trkpt lat="43.2757" lon="5.62779">
        <ele>132.890625</ele>
        <time>2022-03-26T10:34:04Z</time>
      </trkpt>
      <trkpt lat="43.27569" lon="5.62782">
        <ele>133.359375</ele>
        <time>2022-03-26T10:34:05Z</time>
      </trkpt>
      <trkpt lat="43.27565" lon="5.62796">
        <ele>135.4609375</ele>
        <time>2022-03-26T10:34:10Z</time>
      </trkpt>
      <trkpt lat="43.27564" lon="5.62799">
        <ele>135.9375</ele>
        <time>2022-03-26T10:34:11Z</time>
      </trkpt>
      <trkpt lat="43.27563" lon="5.62827">
        <ele>139.12109375</ele>
        <time>2022-03-26T10:34:21Z</time>
      </trkpt>
      <trkpt lat="43.27562" lon="5.62829">
        <ele>139.41015625</ele>
        <time>2022-03-26T10:34:22Z</time>
      </trkpt>
      <trkpt lat="43.27562" lon="5.62837">
        <ele>140.2734375</ele>
        <time>2022-03-26T10:34:25Z</time>
      </trkpt>
      <trkpt lat="43.27562" lon="5.62852">
        <ele>141.21484375</ele>
        <time>2022-03-26T10:34:31Z</time>
      </trkpt>
      <trkpt lat="43.27562" lon="5.62853">
        <ele>141.62109375</ele>
        <time>2022-03-26T10:34:32Z</time>
      </trkpt>
      <trkpt lat="43.27561" lon="5.62859">
        <ele>142.67578125</ele>
        <time>2022-03-26T10:34:36Z</time>
      </trkpt>
      <trkpt lat="43.27561" lon="5.62861">
        <ele>142.99609375</ele>
        <time>2022-03-26T10:34:37Z</time>
      </trkpt>
      <trkpt lat="43.27561" lon="5.62863">
        <ele>143.05078125</ele>
        <time>2022-03-26T10:34:38Z</time>
      </trkpt>
      <trkpt lat="43.27562" lon="5.62865">
        <ele>142.81640625</ele>
        <time>2022-03-26T10:34:39Z</time>
      </trkpt>
      <trkpt lat="43.27563" lon="5.62866">
        <ele>142.7109375</ele>
        <time>2022-03-26T10:34:40Z</time>
      </trkpt>
      <trkpt lat="43.27564" lon="5.62868">
        <ele>142.66015625</ele>
        <time>2022-03-26T10:34:41Z</time>
      </trkpt>
      <trkpt lat="43.27563" lon="5.62871">
        <ele>143.5078125</ele>
        <time>2022-03-26T10:34:56Z</time>
      </trkpt>
      <trkpt lat="43.27572" lon="5.62888">
        <ele>141.70703125</ele>
        <time>2022-03-26T10:35:13Z</time>
      </trkpt>
      <trkpt lat="43.27586" lon="5.62913">
        <ele>138.83203125</ele>
        <time>2022-03-26T10:35:20Z</time>
      </trkpt>
      <trkpt lat="43.27589" lon="5.62917">
        <ele>138.11328125</ele>
        <time>2022-03-26T10:35:21Z</time>
      </trkpt>
      <trkpt lat="43.27597" lon="5.62928">
        <ele>136.2734375</ele>
        <time>2022-03-26T10:35:23Z</time>
      </trkpt>
      <trkpt lat="43.276" lon="5.62934">
        <ele>135.546875</ele>
        <time>2022-03-26T10:35:24Z</time>
      </trkpt>
      <trkpt lat="43.27603" lon="5.62941">
        <ele>134.1875</ele>
        <time>2022-03-26T10:35:25Z</time>
      </trkpt>
      <trkpt lat="43.27614" lon="5.62981">
        <ele>127.4609375</ele>
        <time>2022-03-26T10:35:30Z</time>
      </trkpt>
      <trkpt lat="43.27615" lon="5.62989">
        <ele>126.5546875</ele>
        <time>2022-03-26T10:35:31Z</time>
      </trkpt>
      <trkpt lat="43.27615" lon="5.62996">
        <ele>125.84375</ele>
        <time>2022-03-26T10:35:32Z</time>
      </trkpt>
      <trkpt lat="43.27614" lon="5.63004">
        <ele>125.31640625</ele>
        <time>2022-03-26T10:35:33Z</time>
      </trkpt>
      <trkpt lat="43.27612" lon="5.63012">
        <ele>125.11328125</ele>
        <time>2022-03-26T10:35:34Z</time>
      </trkpt>
      <trkpt lat="43.27609" lon="5.63019">
        <ele>125.14453125</ele>
        <time>2022-03-26T10:35:35Z</time>
      </trkpt>
      <trkpt lat="43.27606" lon="5.63025">
        <ele>125.34765625</ele>
        <time>2022-03-26T10:35:36Z</time>
      </trkpt>
      <trkpt lat="43.27603" lon="5.6303">
        <ele>125.81640625</ele>
        <time>2022-03-26T10:35:37Z</time>
      </trkpt>
      <trkpt lat="43.27598" lon="5.63035">
        <ele>126.37890625</ele>
        <time>2022-03-26T10:35:38Z</time>
      </trkpt>
      <trkpt lat="43.27594" lon="5.63041">
        <ele>126.6328125</ele>
        <time>2022-03-26T10:35:39Z</time>
      </trkpt>
      <trkpt lat="43.2759" lon="5.63048">
        <ele>126.35546875</ele>
        <time>2022-03-26T10:35:40Z</time>
      </trkpt>
      <trkpt lat="43.27587" lon="5.63056">
        <ele>125.46484375</ele>
        <time>2022-03-26T10:35:41Z</time>
      </trkpt>
      <trkpt lat="43.27573" lon="5.63092">
        <ele>123.53125</ele>
        <time>2022-03-26T10:35:45Z</time>
      </trkpt>
      <trkpt lat="43.27548" lon="5.63157">
        <ele>121.4453125</ele>
        <time>2022-03-26T10:35:52Z</time>
      </trkpt>
      <trkpt lat="43.2754" lon="5.63173">
        <ele>121.140625</ele>
        <time>2022-03-26T10:35:54Z</time>
      </trkpt>
      <trkpt lat="43.27536" lon="5.6318">
        <ele>120.82421875</ele>
        <time>2022-03-26T10:35:55Z</time>
      </trkpt>
      <trkpt lat="43.27526" lon="5.63195">
        <ele>120.953125</ele>
        <time>2022-03-26T10:35:57Z</time>
      </trkpt>
      <trkpt lat="43.27509" lon="5.6322">
        <ele>120.5078125</ele>
        <time>2022-03-26T10:36:01Z</time>
      </trkpt>
      <trkpt lat="43.27507" lon="5.63225">
        <ele>120.24609375</ele>
        <time>2022-03-26T10:36:02Z</time>
      </trkpt>
      <trkpt lat="43.27504" lon="5.63229">
        <ele>120.01953125</ele>
        <time>2022-03-26T10:36:03Z</time>
      </trkpt>
      <trkpt lat="43.27501" lon="5.63234">
        <ele>119.984375</ele>
        <time>2022-03-26T10:36:04Z</time>
      </trkpt>
      <trkpt lat="43.27499" lon="5.63237">
        <ele>120.14453125</ele>
        <time>2022-03-26T10:36:05Z</time>
      </trkpt>
      <trkpt lat="43.27498" lon="5.6324">
        <ele>120.08984375</ele>
        <time>2022-03-26T10:36:06Z</time>
      </trkpt>
      <trkpt lat="43.27499" lon="5.63243">
        <ele>119.796875</ele>
        <time>2022-03-26T10:36:07Z</time>
      </trkpt>
      <trkpt lat="43.275" lon="5.63246">
        <ele>119.13671875</ele>
        <time>2022-03-26T10:36:08Z</time>
      </trkpt>
      <trkpt lat="43.27501" lon="5.63252">
        <ele>118.31640625</ele>
        <time>2022-03-26T10:36:09Z</time>
      </trkpt>
      <trkpt lat="43.27502" lon="5.63259">
        <ele>117.69921875</ele>
        <time>2022-03-26T10:36:10Z</time>
      </trkpt>
      <trkpt lat="43.27501" lon="5.63266">
        <ele>117.2734375</ele>
        <time>2022-03-26T10:36:11Z</time>
      </trkpt>
      <trkpt lat="43.275" lon="5.63273">
        <ele>117.5234375</ele>
        <time>2022-03-26T10:36:12Z</time>
      </trkpt>
      <trkpt lat="43.27499" lon="5.63279">
        <ele>117.91796875</ele>
        <time>2022-03-26T10:36:13Z</time>
      </trkpt>
      <trkpt lat="43.27487" lon="5.63339">
        <ele>119.34765625</ele>
        <time>2022-03-26T10:36:25Z</time>
      </trkpt>
      <trkpt lat="43.27488" lon="5.63346">
        <ele>119.4453125</ele>
        <time>2022-03-26T10:36:27Z</time>
      </trkpt>
      <trkpt lat="43.27486" lon="5.6335">
        <ele>119.55078125</ele>
        <time>2022-03-26T10:36:28Z</time>
      </trkpt>
      <trkpt lat="43.27467" lon="5.63399">
        <ele>120.078125</ele>
        <time>2022-03-26T10:36:40Z</time>
      </trkpt>
      <trkpt lat="43.27459" lon="5.63429">
        <ele>120</ele>
        <time>2022-03-26T10:36:45Z</time>
      </trkpt>
      <trkpt lat="43.27457" lon="5.63435">
        <ele>120</ele>
        <time>2022-03-26T10:36:46Z</time>
      </trkpt>
      <trkpt lat="43.27456" lon="5.63441">
        <ele>120</ele>
        <time>2022-03-26T10:36:47Z</time>
      </trkpt>
      <trkpt lat="43.27454" lon="5.63447">
        <ele>120</ele>
        <time>2022-03-26T10:36:48Z</time>
      </trkpt>
      <trkpt lat="43.27452" lon="5.63454">
        <ele>120</ele>
        <time>2022-03-26T10:36:49Z</time>
      </trkpt>
      <trkpt lat="43.27444" lon="5.63485">
        <ele>120.01953125</ele>
        <time>2022-03-26T10:36:54Z</time>
      </trkpt>
      <trkpt lat="43.27431" lon="5.63533">
        <ele>120.5625</ele>
        <time>2022-03-26T10:37:02Z</time>
      </trkpt>
      <trkpt lat="43.27429" lon="5.63539">
        <ele>120.7734375</ele>
        <time>2022-03-26T10:37:03Z</time>
      </trkpt>
      <trkpt lat="43.27413" lon="5.63603">
        <ele>123.015625</ele>
        <time>2022-03-26T10:37:13Z</time>
      </trkpt>
      <trkpt lat="43.27399" lon="5.63662">
        <ele>124.1484375</ele>
        <time>2022-03-26T10:37:22Z</time>
      </trkpt>
      <trkpt lat="43.2739" lon="5.63714">
        <ele>125.0234375</ele>
        <time>2022-03-26T10:37:30Z</time>
      </trkpt>
      <trkpt lat="43.27373" lon="5.6377">
        <ele>125.640625</ele>
        <time>2022-03-26T10:37:41Z</time>
      </trkpt>
      <trkpt lat="43.27369" lon="5.63785">
        <ele>125.80859375</ele>
        <time>2022-03-26T10:37:45Z</time>
      </trkpt>
      <trkpt lat="43.27367" lon="5.63785">
        <ele>125.87890625</ele>
        <time>2022-03-26T10:37:46Z</time>
      </trkpt>
      <trkpt lat="43.27365" lon="5.63785">
        <ele>125.93359375</ele>
        <time>2022-03-26T10:37:47Z</time>
      </trkpt>
      <trkpt lat="43.27364" lon="5.63786">
        <ele>125.97265625</ele>
        <time>2022-03-26T10:37:57Z</time>
      </trkpt>
      <trkpt lat="43.27366" lon="5.63784">
        <ele>125.890625</ele>
        <time>2022-03-26T10:38:31Z</time>
      </trkpt>
      <trkpt lat="43.27368" lon="5.63786">
        <ele>125.83203125</ele>
        <time>2022-03-26T10:39:01Z</time>
      </trkpt>
      <trkpt lat="43.27369" lon="5.63788">
        <ele>125.80859375</ele>
        <time>2022-03-26T10:39:42Z</time>
      </trkpt>
      <trkpt lat="43.27369" lon="5.63787">
        <ele>125.796875</ele>
        <time>2022-03-26T10:40:31Z</time>
      </trkpt>
      <trkpt lat="43.27368" lon="5.6379">
        <ele>125.8515625</ele>
        <time>2022-03-26T10:41:10Z</time>
      </trkpt>
      <trkpt lat="43.27369" lon="5.6379">
        <ele>125.78515625</ele>
        <time>2022-03-26T10:41:13Z</time>
      </trkpt>
      <trkpt lat="43.2737" lon="5.63791">
        <ele>125.7578125</ele>
        <time>2022-03-26T10:41:15Z</time>
      </trkpt>
      <trkpt lat="43.2737" lon="5.63793">
        <ele>125.7734375</ele>
        <time>2022-03-26T10:41:16Z</time>
      </trkpt>
      <trkpt lat="43.27368" lon="5.63793">
        <ele>125.83203125</ele>
        <time>2022-03-26T10:41:21Z</time>
      </trkpt>
      <trkpt lat="43.27369" lon="5.63792">
        <ele>125.7890625</ele>
        <time>2022-03-26T10:41:35Z</time>
      </trkpt>
    </trkseg>
  </trk>
</gpx>